[[{"header":{"parameterUnit":"m.s-1","parameterCategory":1,"la1":30.6,"la2":28.766,"lo1":-90.7593,"lo2":-88.6598,"dy":0.0162,"dx":0.0183,"nx":116,"ny":114,"refTime":"2023-05-26T06:00:00:Z","depth":0,"parameterNumber":2,"parameterNumberName":"U-component_of_WINDS"},"data":[0.0,0.0,0.0,0.0,0.0,0.0,0.0,0.0,0.0,0.0,0.0,0.0,0.0,0.0,0.0,0.0,0.0,0.0,0.0,0.0,0.0,0.0,0.0,0.0,0.0,0.0,0.0,0.0,0.0,0.0,0.0,0.0,0.0,0.0,0.0,0.0,0.0,0.0,0.0,0.0,0.0,0.0,0.0,0.0,0.0,0.0,0.0,0.0,0.0,0.0,0.0,0.0,0.0,0.0,0.0,0.0,0.0,0.0,0.0,0.0,0.0,0.0,0.0,0.0,0.0,0.0,0.0,0.0,0.0,0.0,0.0,0.0,0.0,0.0,0.0,0.0,0.0,0.0,0.0,0.0,0.0,0.0,0.0,0.0,0.0,0.0,0.0,0.0,0.0,0.0,0.0,0.0,0.0,0.0,0.0,0.0,0.0,0.0,0.0,0.0,0.0,0.0,0.0,0.0,0.0,0.0,0.0,0.0,0.0,0.0,0.0,0.0,0.0,0.0,0.0,0.0,0.0,0.0,0.0,0.0,0.0,0.0,0.0,0.0,0.0,0.0,0.0,0.0,0.0,0.0,0.0,0.0,0.0,0.0,0.0,0.0,0.0,0.0,0.0,0.0,0.0,0.0,0.0,0.0,0.0,0.0,0.0,0.0,0.0,0.0,0.0,0.0,0.0,0.0,0.0,0.0,0.0,0.0,0.0,0.0,0.0,0.0,0.0,0.0,0.0,0.0,0.0,0.0,0.0,0.0,0.0,0.0,0.0,0.0,0.0,0.0,0.0,0.0,0.0,0.0,0.0,0.0,0.0,0.0,0.0,0.0,0.0,0.0,0.0,0.0,0.0,0.0,0.0,0.0,0.0,0.0,0.0,0.0,0.0,0.0,0.0,0.0,0.0,0.0,0.0,0.0,0.0,0.0,0.0,0.0,0.0,0.0,0.0,0.0,0.0,0.0,0.0,0.0,0.0,0.0,0.0,0.0,0.0,0.0,0.0,0.0,0.0,0.0,0.0,0.0,0.0,0.0,0.0,0.0,0.0,0.0,0.0,0.0,0.0,0.0,0.0,0.0,0.0,0.0,0.0,0.0,0.0,0.0,0.0,0.0,0.0,0.0,0.0,0.0,0.0,0.0,0.0,0.0,0.0,0.0,0.0,0.0,0.0,0.0,0.0,0.0,0.0,0.0,0.0,0.0,0.0,0.0,0.0,0.0,0.0,0.0,0.0,0.0,0.0,0.0,0.0,0.0,0.0,0.0,0.0,0.0,0.0,0.0,0.0,0.0,0.0,0.0,0.0,0.0,0.0,0.0,0.0,0.0,0.0,0.0,0.0,0.0,0.0,0.0,0.0,0.0,0.0,0.0,0.0,0.0,0.0,0.0,0.0,0.0,0.0,0.0,0.0,0.0,0.0,0.0,0.0,0.0,0.0,0.0,0.0,0.0,0.0,0.0,0.0,0.0,0.0,0.0,0.0,0.0,0.0,0.0,0.0,0.0,0.0,0.0,0.0,0.0,0.0,0.0,0.0,0.0,0.0,0.0,0.0,0.0,0.0,0.0,0.0,0.0,0.0,0.0,0.0,0.0,0.0,0.0,0.0,0.0,0.0,0.0,0.0,0.0,0.0,0.0,0.0,0.0,0.0,0.0,0.0,0.0,0.0,0.0,0.0,0.0,0.0,0.0,0.0,0.0,0.0,0.0,0.0,0.0,0.0,0.0,0.0,0.0,0.0,0.0,0.0,0.0,0.0,0.0,0.0,0.0,0.0,0.0,0.0,0.0,0.0,0.0,0.0,0.0,0.0,0.0,0.0,0.0,0.0,0.0,0.0,0.0,0.0,0.0,0.0,0.0,0.0,0.0,0.0,0.0,0.0,0.0,0.0,0.0,0.0,0.0,0.0,0.0,0.0,0.0,0.0,0.0,0.0,0.0,0.0,0.0,0.0,0.0,0.0,0.0,0.0,0.0,0.0,0.0,0.0,0.0,0.0,0.0,0.0,0.0,0.0,0.0,0.0,0.0,0.0,0.0,0.0,0.0,0.0,0.0,0.0,0.0,0.0,0.0,0.0,0.0,0.0,0.0,0.0,0.0,0.0,0.0,0.0,0.0,0.0,0.0,0.0,0.0,0.0,0.0,0.0,0.0,0.0,0.0,0.0,0.0,0.0,0.0,0.0,0.0,0.0,0.0,0.0,0.0,0.0,0.0,0.0,0.0,0.0,0.0,0.0,0.0,0.0,0.0,0.0,0.0,0.0,0.0,0.0,0.0,0.0,0.0,0.0,0.0,0.0,0.0,0.0,0.0,0.0,0.0,0.0,0.0,0.0,0.0,0.0,0.0,0.0,0.0,0.0,0.0,0.0,0.0,0.0,0.0,0.0,0.0,0.0,0.0,0.0,0.0,0.0,0.0,0.0,0.0,0.0,0.0,0.0,0.0,0.0,0.0,0.0,0.0,0.0,0.0,0.0,0.0,0.0,0.0,0.0,0.0,0.0,0.0,0.0,0.0,0.0,0.0,0.0,0.0,0.0,0.0,0.0,0.0,0.0,0.0,0.0,0.0,0.0,0.0,0.0,0.0,0.0,0.0,0.0,0.0,0.0,0.0,0.0,0.0,0.0,0.0,0.0,0.0,0.0,0.0,0.0,0.0,0.0,0.0,0.0,0.0,0.0,0.0,0.0,0.0,0.0,0.0,0.0,0.0,0.0,0.0,0.0,0.0,0.0,0.0,0.0,0.0,0.0,0.0,0.0,0.0,0.0,0.0,0.0,0.0,0.0,0.0,0.0,0.0,0.0,0.0,0.0,0.0,0.0,0.0,0.0,0.0,0.0,0.0,0.0,0.0,0.0,0.0,0.0,0.0,0.0,0.0,0.0,0.0,0.0,0.0,0.0,0.0,0.0,0.0,0.0,0.0,0.0,0.0,0.0,0.0,0.0,0.0,0.0,0.0,0.0,0.0,0.0,0.0,0.0,0.0,0.0,0.0,0.0,0.0,0.0,0.0,0.0,0.0,0.0,0.0,0.0,0.0,0.0,0.0,0.0,0.0,0.0,0.0,0.0,0.0,0.0,0.0,0.0,0.0,0.0,0.0,0.0,0.0,0.0,0.0,0.0,0.0,0.0,0.0,0.0,0.0,0.0,0.0,0.0,0.0,0.0,0.0,0.0,0.0,0.0,0.0,0.0,0.0,0.0,0.0,0.0,0.0,0.0,0.0,0.0,0.0,0.0,0.0,0.0,0.0,0.0,0.0,0.0,0.0,0.0,0.0,0.0,0.0,0.0,0.0,0.0,0.0,0.0,0.0,0.0,0.0,0.0,0.0,0.0,0.0,0.0,0.0,0.0,0.0,0.0,0.0,0.0,0.0,0.0,0.0,0.0,0.0,0.0,0.0,0.0,0.0,0.0,0.0,0.0,0.0,0.0,0.0,0.0,0.0,0.0,0.0,0.0,0.0,0.0,0.0,0.0,0.0,0.0,0.0,0.0,0.0,0.0,0.0,0.0,0.0,0.0,0.0,0.0,0.0,0.0,0.0,0.0,0.0,0.0,0.0,0.0,0.0,0.0,0.0,0.0,0.0,0.0,0.0,0.0,0.0,0.0,0.0,0.0,0.0,0.0,0.0,0.0,0.0,0.0,0.0,0.0,0.0,0.0,0.0,0.0,0.0,0.0,0.0,0.0,0.0,0.0,0.0,0.0,0.0,0.0,0.0,0.0,0.0,0.0,0.0,0.0,0.0,0.0,0.0,0.0,0.0,0.0,0.0,0.0,0.0,0.0,0.0,0.0,0.0,0.0,0.0,0.0,0.0,0.0,0.0,0.0,0.0,0.0,0.0,0.0,0.0,0.0,0.0,0.0,0.0,0.0,0.0,0.0,0.0,0.0,0.0,0.0,0.0,0.0,0.0,0.0,0.0,0.0,0.0,0.0,0.0,0.0,0.0,0.0,0.0,0.0,0.0,0.0,0.0,0.0,0.0,0.0,0.0,0.0,0.0,0.0,0.0,0.0,0.0,0.0,0.0,0.0,0.0,0.0,0.0,0.0,0.0,0.0,0.0,0.0,0.0,0.0,0.0,0.0,0.0,0.0,0.0,0.0,0.0,0.0,0.0,0.0,0.0,0.0,0.0,0.0,0.0,0.0,0.0,0.0,0.0,0.0,0.0,0.0,0.0,0.0,0.0,0.0,0.0,0.0,0.0,0.0,0.0,0.0,0.0,0.0,0.0,0.0,0.0,0.0,0.0,0.0,0.0,0.0,0.0,0.0,0.0,0.0,0.0,0.0,0.0,0.0,0.0,0.0,0.0,0.0,0.0,0.0,0.0,0.0,0.0,0.0,0.0,0.0,0.0,0.0,0.0,0.0,0.0,0.0,0.0,0.0,0.0,0.0,0.0,0.0,0.0,0.0,0.0,0.0,0.0,0.0,0.0,0.0,0.0,0.0,0.0,0.0,0.0,0.0,0.0,0.0,0.0,0.0,0.0,0.0,0.0,0.0,0.0,0.0,0.0,0.0,0.0,0.0,0.0,0.0,0.0,0.0,0.0,0.0,0.0,0.0,0.0,0.0,0.0,0.0,0.0,0.0,0.0,0.0,0.0,0.0,0.0,0.0,0.0,0.0,0.0,0.0,0.0,0.0,0.0,0.0,0.0,0.0,0.0,0.0,0.0,0.0,0.0,0.0,0.0,0.0,0.0,0.0,0.0,0.0,0.0,0.0,0.0,0.0,0.0,0.0,0.0,0.0,0.0,0.0,0.0,0.0,0.0,0.0,0.0,0.0,0.0,0.0,0.0,0.0,0.0,0.0,0.0,0.0,0.0,0.0,0.0,0.0,0.0,0.0,0.0,0.0,0.0,0.0,0.0,0.0,0.0,0.0,0.0,0.0,0.0,0.0,0.0,0.0,0.0,0.0,0.0,0.0,0.0,0.0,0.0,0.0,0.0,0.0,0.0,0.0,0.0,0.0,0.0,0.0,0.0,0.0,0.0,0.0,0.0,0.0,0.0,0.0,0.0,0.0,0.0,0.0,0.0,0.0,0.0,0.0,0.0,0.0,0.0,0.0,0.0,0.0,0.0,0.0,0.0,0.0,0.0,0.0,0.0,0.0,0.0,0.0,0.0,0.0,0.0,0.0,0.0,0.0,0.0,0.0,0.0,0.0,0.0,0.0,0.0,0.0,0.0,0.0,0.0,0.0,0.0,0.0,0.0,0.0,0.0,0.0,0.0,0.0,0.0,0.0,0.0,0.0,0.0,0.0,0.0,0.0,0.0,0.0,0.0,0.0,0.0,0.0,0.0,0.0,0.0,0.0,0.0,0.0,0.0,0.0,0.0,0.0,0.0,0.0,0.0,0.0,0.0,0.0,0.0,0.0,0.0,0.0,0.0,0.0,0.0,0.0,0.0,0.0,0.0,0.0,0.0,0.0,0.0,0.0,0.0,0.0,0.0,0.0,0.0,0.0,0.0,0.0,0.0,0.0,0.0,0.0,0.0,0.0,0.0,0.0,0.0,0.0,0.0,0.0,0.0,0.0,0.0,0.0,0.0,0.0,0.0,0.0,0.0,0.0,0.0,0.0,0.0,0.0,0.0,0.0,0.0,0.0,0.0,0.0,0.0,0.0,0.0,0.0,0.0,0.0,0.0,0.0,0.0,0.0,0.0,0.0,0.0,0.0,0.0,0.0,0.0,0.0,0.0,0.0,0.0,0.0,0.0,0.0,0.0,0.0,0.0,0.0,0.0,0.0,0.0,0.0,0.0,0.0,0.0,0.0,0.0,0.0,0.0,0.0,0.0,0.0,0.0,0.0,0.0,0.0,0.0,0.0,0.0,0.0,0.0,0.0,0.0,0.0,0.0,0.0,0.0,0.0,0.0,0.0,0.0,0.0,0.0,0.0,0.0,0.0,0.0,0.0,0.0,0.0,0.0,0.0,0.0,0.0,0.0,0.0,0.0,0.0,0.0,0.0,0.0,0.0,0.0,0.0,0.0,0.0,0.0,0.0,0.0,0.0,0.0,0.0,0.0,0.0,0.0,0.0,0.0,0.0,0.0,0.0,0.0,0.0,0.0,0.0,0.0,0.0,0.0,0.0,0.0,0.0,0.0,0.0,0.0,-4.0191,0.0,0.0,0.0,0.0,0.0,0.0,0.0,0.0,0.0,0.0,0.0,0.0,0.0,0.0,0.0,0.0,0.0,0.0,0.0,0.0,0.0,0.0,0.0,0.0,0.0,0.0,0.0,0.0,0.0,0.0,0.0,0.0,0.0,0.0,0.0,0.0,0.0,0.0,0.0,0.0,-2.6482,-3.0362,-2.5769,-2.5986,-3.04,0.0,0.0,0.0,0.0,0.0,0.0,0.0,0.0,0.0,0.0,0.0,0.0,0.0,0.0,0.0,0.0,0.0,0.0,0.0,0.0,0.0,0.0,0.0,0.0,0.0,0.0,0.0,0.0,0.0,0.0,0.0,0.0,0.0,0.0,0.0,0.0,0.0,0.0,0.0,0.0,0.0,0.0,0.0,0.0,0.0,0.0,0.0,0.0,0.0,0.0,0.0,0.0,0.0,0.0,0.0,0.0,0.0,0.0,0.0,0.0,0.0,0.0,0.0,0.0,0.0,0.0,0.0,0.0,0.0,0.0,0.0,-3.9103,0.0,0.0,0.0,0.0,0.0,0.0,0.0,0.0,0.0,0.0,0.0,0.0,0.0,0.0,0.0,0.0,0.0,0.0,0.0,0.0,0.0,0.0,0.0,0.0,0.0,0.0,0.0,0.0,0.0,0.0,0.0,0.0,0.0,0.0,0.0,0.0,0.0,0.0,0.0,-2.9243,-3.5621,-3.5768,-3.5817,-3.5777,-3.5491,0.0,0.0,0.0,0.0,0.0,0.0,0.0,0.0,0.0,0.0,0.0,0.0,0.0,0.0,0.0,0.0,0.0,0.0,0.0,0.0,0.0,0.0,0.0,0.0,0.0,0.0,0.0,0.0,0.0,0.0,0.0,0.0,0.0,0.0,0.0,0.0,0.0,0.0,0.0,0.0,0.0,0.0,0.0,0.0,0.0,0.0,0.0,0.0,0.0,0.0,0.0,0.0,0.0,0.0,0.0,0.0,0.0,0.0,0.0,0.0,0.0,0.0,0.0,-4.1482,-4.1257,-4.0834,-4.0492,-3.9932,-3.9241,-3.8214,-3.777,-3.7778,-3.8419,0.0,0.0,0.0,0.0,0.0,0.0,0.0,0.0,0.0,0.0,0.0,0.0,0.0,0.0,0.0,0.0,0.0,0.0,0.0,0.0,0.0,0.0,0.0,0.0,0.0,0.0,0.0,0.0,0.0,0.0,0.0,0.0,0.0,0.0,0.0,0.0,-3.0522,-3.4725,-3.5679,-3.5891,-3.5876,-3.571,-3.5308,-3.4732,-3.3989,0.0,0.0,0.0,0.0,0.0,0.0,0.0,0.0,0.0,0.0,0.0,0.0,0.0,0.0,0.0,0.0,0.0,0.0,0.0,0.0,0.0,0.0,0.0,0.0,0.0,0.0,0.0,0.0,0.0,0.0,0.0,0.0,0.0,0.0,0.0,0.0,0.0,0.0,0.0,0.0,0.0,-4.245,-4.2776,0.0,0.0,0.0,0.0,0.0,0.0,0.0,0.0,0.0,0.0,0.0,0.0,0.0,-4.1687,-4.2371,-4.2228,-4.2488,-4.3167,-4.3185,-4.2432,-4.1053,-4.086,-3.9982,-3.8508,-3.7575,0.0,-3.798,-3.799,0.0,0.0,0.0,0.0,0.0,0.0,0.0,0.0,0.0,0.0,0.0,0.0,0.0,0.0,0.0,0.0,0.0,0.0,0.0,0.0,0.0,0.0,0.0,0.0,0.0,0.0,0.0,0.0,0.0,0.0,0.0,0.0,0.0,0.0,0.0,0.0,-3.324,-3.5596,-3.588,-3.5876,-3.5838,-3.5727,-3.5143,-3.4566,-3.4004,-3.3172,0.0,0.0,0.0,0.0,0.0,0.0,0.0,0.0,0.0,0.0,0.0,0.0,0.0,0.0,0.0,0.0,0.0,0.0,0.0,0.0,0.0,0.0,0.0,0.0,0.0,0.0,0.0,0.0,0.0,0.0,0.0,0.0,0.0,0.0,0.0,0.0,0.0,0.0,0.0,-4.1341,-4.2162,-4.2234,-4.3308,-4.3905,0.0,0.0,0.0,0.0,0.0,0.0,0.0,0.0,0.0,-4.276,-4.217,-4.2051,-4.24,-4.1879,-4.1809,-4.2158,-4.2158,-4.1787,-4.1107,-4.1053,-4.0488,-3.9532,-3.8848,-3.8564,-3.8535,-3.7677,-3.7496,-3.7787,0.0,0.0,0.0,0.0,-3.832,-3.8304,0.0,0.0,0.0,0.0,0.0,0.0,0.0,0.0,0.0,0.0,0.0,0.0,0.0,0.0,0.0,-1.5349,0.0,0.0,0.0,0.0,0.0,0.0,0.0,0.0,0.0,0.0,0.0,-3.2628,-3.4461,-3.5562,-3.5974,-3.5879,-3.5773,-3.5663,-3.5014,-3.445,-3.3915,-3.3063,-3.167,-2.9929,0.0,0.0,0.0,0.0,0.0,0.0,0.0,0.0,0.0,0.0,0.0,0.0,0.0,0.0,0.0,0.0,0.0,0.0,0.0,0.0,0.0,0.0,0.0,0.0,0.0,0.0,0.0,0.0,0.0,0.0,0.0,0.0,0.0,0.0,0.0,0.0,0.0,-4.1195,-4.1733,-4.1731,-4.2426,-4.2814,0.0,0.0,0.0,0.0,0.0,0.0,-4.2474,-4.244,-4.2687,-4.3299,-4.258,-4.2263,-4.2415,-4.1765,-4.1515,-4.1717,-4.1717,-4.165,-4.1549,-4.1462,-4.1125,-4.072,-3.9997,-3.9515,-3.9138,-3.782,-3.7228,-3.7174,-3.7733,-3.7953,-3.7889,-3.7702,-3.7736,-3.7872,0.0,0.0,0.0,0.0,0.0,0.0,0.0,0.0,0.0,0.0,0.0,0.0,0.0,0.0,-1.7784,-1.7838,-1.8035,-1.8143,0.0,0.0,0.0,0.0,0.0,0.0,0.0,0.0,0.0,-3.2705,-3.4756,-3.5819,-3.5895,-3.5898,-3.5724,-3.5408,-3.4971,-3.4358,-3.3549,-3.2626,-3.1537,-3.0402,-2.9657,0.0,0.0,0.0,0.0,0.0,0.0,0.0,0.0,0.0,0.0,0.0,0.0,0.0,0.0,0.0,0.0,0.0,0.0,0.0,0.0,0.0,0.0,0.0,0.0,0.0,0.0,0.0,0.0,0.0,0.0,0.0,0.0,0.0,0.0,0.0,0.0,0.0,0.0,-4.178,-4.2334,0.0,0.0,0.0,0.0,-4.1924,-4.1897,-4.189,-4.1927,-4.1754,-4.1664,-4.172,-4.1593,-4.1853,-4.2479,-4.2396,-4.2699,-4.3369,-4.3369,-4.3176,-4.2811,-4.2332,-4.1866,-4.1358,-4.0214,-3.9646,-3.9473,-3.8614,-3.8167,-3.8027,-3.8061,-3.7984,-3.7821,-3.7094,-3.7297,-3.7804,0.0,0.0,0.0,0.0,0.0,0.0,0.0,0.0,0.0,0.0,0.0,0.0,0.0,-1.8221,-1.8821,-1.927,-1.9503,-1.9761,-2.0029,0.0,0.0,0.0,0.0,0.0,0.0,0.0,-3.1969,-3.2755,-3.4792,-3.5827,-3.5906,-3.5773,-3.5604,-3.5383,-3.4893,-3.4195,-3.3359,-3.2684,-3.1445,-2.9903,-2.922,-2.8021,0.0,0.0,0.0,0.0,0.0,0.0,0.0,0.0,0.0,0.0,0.0,0.0,0.0,0.0,0.0,0.0,0.0,0.0,0.0,0.0,0.0,0.0,0.0,0.0,0.0,0.0,0.0,0.0,0.0,0.0,0.0,0.0,0.0,0.0,0.0,0.0,0.0,-4.1511,-4.1743,0.0,-4.228,-4.2152,-4.1983,-4.1897,-4.1773,-4.1921,-4.2443,-4.2411,-4.2612,-4.3132,-4.3076,-4.3143,-4.3389,-4.3342,-4.3391,-4.3548,-4.3303,-4.3087,-4.2882,-4.2418,-4.2115,-4.1888,-4.1192,-4.0864,-4.0756,-4.0227,-3.923,-3.8125,-3.8125,-3.8031,-3.7872,-3.7601,-3.7364,-3.7144,0.0,0.0,0.0,0.0,0.0,0.0,0.0,0.0,0.0,0.0,0.0,-1.8927,-1.898,-1.9475,-2.0003,-2.0497,-2.0709,-2.0957,-2.1396,0.0,0.0,0.0,-2.3938,0.0,0.0,-3.0779,-3.2504,-3.3341,-3.4987,-3.583,-3.5897,-3.5666,-3.5466,-3.5277,-3.4793,-3.4096,-3.3169,-3.2723,-3.1519,-2.9876,-2.9294,-2.8276,-2.6916,0.0,0.0,0.0,0.0,0.0,0.0,0.0,0.0,0.0,0.0,0.0,0.0,0.0,0.0,0.0,0.0,0.0,0.0,0.0,0.0,0.0,0.0,0.0,0.0,0.0,0.0,0.0,0.0,0.0,0.0,0.0,0.0,0.0,0.0,0.0,-4.1032,-4.1644,-4.1616,-4.1734,-4.2138,-4.2187,-4.2212,-4.2212,-4.234,-4.263,-4.3188,-4.3206,-4.3448,-4.3986,-4.3961,-4.3929,-4.3897,-4.3851,-4.3753,-4.3582,-4.3338,-4.316,-4.3087,-4.2634,-4.2418,-4.2418,-4.1948,-4.1648,-4.149,-4.1192,-4.022,-3.8887,-3.8649,-3.8252,-3.7905,-3.7905,-3.7584,-3.7161,0.0,0.0,0.0,0.0,0.0,0.0,0.0,0.0,0.0,0.0,-1.9515,-2.0156,-2.0422,-2.1019,-2.1471,-2.1602,-2.165,-2.1841,-2.2217,-2.2466,0.0,0.0,0.0,0.0,-2.9286,-3.1315,-3.3015,-3.44,-3.534,-3.5832,-3.5895,-3.5626,-3.5364,-3.5076,-3.4756,-3.4031,-3.3014,-3.2745,-3.1754,-3.0326,-3.0005,-2.9271,-2.8299,0.0,0.0,0.0,0.0,0.0,0.0,0.0,0.0,0.0,0.0,0.0,0.0,0.0,0.0,0.0,0.0,0.0,0.0,0.0,0.0,0.0,0.0,0.0,0.0,0.0,0.0,0.0,0.0,0.0,0.0,0.0,0.0,0.0,-4.1437,-4.1418,-4.1663,-4.2257,-4.209,-4.1954,-4.1972,-4.2509,-4.2853,-4.2872,-4.3596,-4.4061,-4.4079,-4.4079,-4.4079,-4.4079,-4.4079,-4.4066,-4.3971,-4.3971,-4.3855,-4.3652,-4.3618,-4.3566,-4.3463,-4.3032,-4.2844,-4.2844,-4.2378,-4.1906,-4.1472,-4.1472,-4.11,-4.0449,-3.9699,-3.884,-3.7973,-3.7973,-3.7956,-3.7939,0.0,0.0,0.0,0.0,0.0,0.0,0.0,0.0,0.0,0.0,-2.0144,-2.0772,-2.0983,-2.1326,-2.1779,-2.2406,-2.2543,-2.2921,-2.3606,0.0,0.0,0.0,0.0,0.0,-3.0001,-3.2222,-3.3728,-3.4404,-3.5287,-3.5786,-3.5882,-3.553,-3.5252,-3.5028,-3.5197,-3.4758,-3.3858,-3.3681,-3.2644,-3.1018,-3.0163,-2.921,-2.8192,0.0,0.0,0.0,0.0,0.0,0.0,0.0,0.0,0.0,0.0,0.0,0.0,0.0,0.0,0.0,0.0,0.0,0.0,0.0,0.0,0.0,0.0,0.0,0.0,0.0,0.0,0.0,0.0,0.0,0.0,0.0,0.0,-4.1475,-4.1399,-4.1934,-4.2495,-4.29,-4.2908,-4.2997,-4.3394,-4.3553,-4.3931,-4.4562,-4.4822,-4.5194,-4.5769,-4.5807,-4.5807,-4.5807,-4.5807,-4.5807,-4.5793,-4.5793,-4.5379,-4.462,-4.4251,-4.3725,-4.3032,-4.2239,-4.1864,-4.1864,-4.1463,-4.1163,-4.1041,-4.1041,-4.0918,-4.0631,-4.0312,-3.9895,-3.9478,-3.9478,-3.9157,-3.8616,0.0,0.0,0.0,0.0,0.0,0.0,0.0,0.0,0.0,0.0,-2.0673,-2.1229,-2.1375,-2.1874,-2.2406,-2.298,-2.3172,-2.355,-2.4251,0.0,0.0,0.0,0.0,-2.9692,-3.1152,-3.2863,-3.4136,-3.4911,-3.5444,-3.5739,-3.5772,-3.5454,-3.5153,-3.4904,-3.5327,-3.5027,-3.4217,-3.4309,-3.3591,-3.2235,-3.0817,-2.9496,-2.8288,-2.77,-2.7246,-2.7026,-2.7378,-2.7733,-2.8218,-2.9525,0.0,0.0,0.0,0.0,0.0,0.0,0.0,0.0,0.0,0.0,0.0,0.0,0.0,0.0,0.0,0.0,0.0,0.0,0.0,0.0,0.0,0.0,0.0,0.0,-4.218,-4.2546,-4.2349,-4.2699,-4.3142,-4.3668,-4.369,-4.3885,-4.4513,-4.4619,-4.4941,-4.5732,-4.582,-4.6025,-4.6475,-4.6494,-4.6494,-4.6494,-4.6494,-4.6494,-4.6494,-4.6494,-4.6153,-4.5503,-4.522,-4.4492,-4.3389,-4.2839,-4.231,-4.1778,-4.1552,-4.1328,-4.1163,-4.1163,-4.0948,0.0,0.0,0.0,0.0,0.0,-3.9867,-3.9394,0.0,0.0,0.0,0.0,0.0,0.0,0.0,0.0,0.0,0.0,0.0,-2.1602,-2.1698,-2.2543,-2.3216,-2.3493,-2.3681,-2.4006,0.0,0.0,0.0,-2.7294,-2.8743,-3.0424,-3.2409,-3.3355,-3.442,-3.5584,-3.5663,-3.5663,-3.5632,-3.5396,-3.5101,-3.4755,-3.5348,-3.5129,-3.4347,-3.4831,-3.4486,-3.3473,-3.1632,-3.0064,-2.8762,-2.7993,-2.755,-2.7423,-2.7545,-2.7509,-2.757,-2.8892,0.0,0.0,0.0,0.0,0.0,0.0,0.0,0.0,0.0,0.0,0.0,0.0,0.0,0.0,0.0,0.0,0.0,0.0,0.0,0.0,0.0,0.0,0.0,0.0,-4.3156,-4.4154,-4.3843,-4.3674,-4.3871,-4.4568,-4.4524,-4.4722,-4.5482,-4.5599,-4.5923,-4.6601,-4.6722,-4.6759,-4.6806,0.0,0.0,0.0,0.0,-4.6773,-4.6773,-4.6773,-4.6598,-4.6334,-4.6334,-4.5608,-4.43,-4.417,-4.3484,-4.2422,-4.2251,-4.1948,-4.1561,-4.1516,-4.1192,-4.0697,-4.0648,-4.0583,-4.0485,-4.0355,-4.0188,-4.007,0.0,0.0,0.0,0.0,0.0,0.0,0.0,0.0,0.0,-2.165,-2.2156,-2.242,-2.2328,-2.3098,-2.3782,-2.4094,-2.4533,-2.5075,0.0,0.0,-2.709,-2.8271,-2.9833,-3.1342,-3.2763,-3.4027,-3.4925,-3.545,-3.5597,-3.5722,-3.5753,-3.5446,-3.5151,-3.4908,-3.5923,-3.5899,-3.5103,-3.5598,-3.4812,-3.308,-3.1424,-3.0612,-3.0344,-2.9233,-2.8463,-2.8073,-2.8602,-2.8697,-2.8709,-2.9635,-3.0227,-3.0766,-3.1454,-3.2621,0.0,0.0,0.0,0.0,0.0,0.0,0.0,0.0,0.0,0.0,0.0,0.0,0.0,0.0,0.0,0.0,0.0,0.0,0.0,-4.3534,-4.3867,-4.421,-4.4878,-4.5228,-4.5421,-4.5534,-4.5377,-4.5574,-4.6377,-4.6452,-4.6807,-4.7652,-4.7625,-4.7891,-4.8546,-4.8479,-4.8444,-4.8444,-4.8444,-4.8444,-4.8444,-4.8444,-4.8007,-4.7165,0.0,0.0,-4.5535,-4.454,-4.3966,-4.3689,-4.2665,-4.2157,-4.2032,-4.1648,-4.1237,-4.084,-4.0485,-4.0355,-4.0337,-4.0188,-4.0138,-4.007,0.0,0.0,0.0,0.0,0.0,0.0,0.0,0.0,0.0,0.0,-2.2388,-2.274,-2.286,-2.3608,-2.423,-2.4558,-2.5075,0.0,0.0,-2.6498,-2.7538,-2.9176,-3.0337,-3.1738,-3.3414,-3.4407,-3.5115,-3.5547,-3.5663,-3.5675,-3.5646,-3.534,-3.5028,-3.4724,-3.5576,-3.5412,-3.4543,-3.5102,-3.4518,-3.3061,-3.128,-3.0631,-3.0551,-2.9108,-2.8317,-2.8039,-2.835,-2.8511,-2.87,-2.9234,-2.9858,-3.051,-3.1001,-3.211,-3.3287,0.0,0.0,0.0,0.0,0.0,0.0,0.0,0.0,0.0,0.0,0.0,0.0,0.0,0.0,-4.1151,0.0,0.0,-4.3063,-4.3787,-4.4403,-4.5017,-4.5657,-4.5993,-4.6108,-4.5916,-4.613,-4.6555,-4.7317,-4.7435,-4.776,-4.8557,-4.8548,-4.8669,-4.9083,-4.8962,-4.8909,-4.8909,-4.8909,-4.8909,-4.8909,-4.8909,-4.8635,-4.8086,-4.8032,-4.7408,-4.6209,-4.5176,-4.4361,-4.367,-4.2678,-4.2074,-4.1821,-4.1373,-4.1088,-4.0871,-4.0583,-4.0453,-4.0387,-4.0238,-4.0188,-4.007,0.0,0.0,0.0,0.0,0.0,0.0,0.0,0.0,0.0,0.0,-2.2644,-2.3009,-2.326,-2.4017,-2.4648,0.0,0.0,0.0,0.0,-2.6557,-2.7707,-2.9618,-3.049,-3.1831,-3.3723,-3.451,-3.5116,-3.562,-3.5675,-3.5634,-3.551,-3.5212,-3.4883,-3.4531,-3.5051,-3.4724,-3.3821,-3.4412,-3.4056,-3.2964,-3.1242,-3.043,-3.0085,-2.8611,-2.7955,-2.784,-2.8024,-2.8271,-2.8528,-2.8873,-2.954,-3.0293,-3.0518,-3.1479,-3.2678,-3.3613,-3.4496,0.0,0.0,0.0,0.0,0.0,0.0,0.0,0.0,0.0,-4.0712,-4.1666,-4.1724,-4.1893,-4.2833,-4.3541,-4.3958,-4.3852,-4.4996,-4.5956,-4.6176,-4.6568,-4.6725,-4.6531,-4.693,-4.7526,-4.8309,-4.8427,-4.8677,-4.9225,-4.923,-4.9164,-4.9116,-4.8996,-4.8909,-4.8909,-4.8909,-4.8909,-4.8909,-4.8909,-4.8874,-4.8787,-4.8678,-4.8034,-4.6934,-4.6051,-4.4979,-4.3827,-4.2772,-4.2074,-4.1604,-4.1209,-4.0965,-4.084,-4.0745,-4.0583,-4.0436,-4.0337,-4.0188,-4.007,0.0,0.0,0.0,0.0,0.0,0.0,0.0,0.0,0.0,0.0,0.0,0.0,0.0,0.0,0.0,0.0,0.0,0.0,-2.6253,-2.6718,-2.7578,-2.8971,-3.0339,-3.1654,-3.293,-3.4112,-3.4925,-3.5342,-3.5576,-3.5662,-3.5566,-3.5177,-3.4845,-3.46,-3.4944,-3.4746,-3.4171,-3.4482,-3.3768,-3.2319,-3.1151,-3.018,-2.9373,-2.8642,-2.8103,-2.7925,-2.8873,-2.9164,-2.9194,-2.981,-3.0426,-3.0878,-3.0918,-3.1675,-3.2719,-3.3883,-3.4976,-3.6145,-3.776,-3.8423,-3.8695,-3.896,-3.8952,-3.9175,0.0,0.0,-4.1288,-4.2233,-4.2584,-4.3004,-4.3938,-4.4186,-4.442,-4.4934,-4.5854,-4.6447,-4.631,-4.7429,-4.8291,-4.8325,-4.8164,-4.8401,-4.9283,-4.9358,-4.9396,-4.9459,-4.9295,-4.9197,-4.9197,-4.9012,-4.8909,-4.8909,-4.8909,-4.8909,-4.8909,-4.8909,-4.8874,-4.8787,-4.8678,-4.8477,-4.8254,-4.7314,-4.6414,-4.5516,-4.3648,-4.2555,-4.2074,-4.1604,-4.1146,-4.0697,-4.0697,-4.0551,-4.0305,-4.0305,-4.0188,-4.007,0.0,0.0,0.0,0.0,0.0,0.0,0.0,0.0,0.0,0.0,0.0,0.0,0.0,0.0,0.0,0.0,0.0,0.0,-2.6333,-2.6718,-2.7511,-2.8784,-2.955,-3.0772,-3.2581,-3.3346,-3.4255,-3.5356,-3.5517,-3.5523,-3.5423,-3.5039,-3.462,-3.4144,-3.4118,-3.3695,-3.2979,-3.2751,-3.2128,-3.1166,-3.0164,-2.9547,-2.9122,-2.8585,-2.8299,-2.8235,-2.8795,-2.9134,0.0,0.0,-3.051,-3.0935,-3.1072,-3.1611,-3.2406,-3.336,-3.4234,-3.5239,-3.6931,-3.7885,-3.8428,-3.8707,-3.9275,-3.9964,-4.0609,-4.1345,-4.2158,-4.3085,-4.3257,-4.3526,-4.4429,-4.4584,-4.4827,0.0,-4.6192,-4.6806,-4.7434,-4.8213,-4.884,-4.9089,-4.9036,-4.9096,-4.9471,-4.9509,-4.9509,-4.9509,-4.9358,-4.9244,-4.9179,-4.9064,-4.8962,-4.8909,-4.8909,-4.8909,-4.8909,-4.8909,-4.8874,-4.8839,-4.8768,-4.866,-4.8514,-4.7647,-4.6341,-4.4744,-4.3198,-4.2257,-4.1778,-4.1328,-4.1041,-4.0793,-4.0745,-4.0583,-4.0387,-4.0355,-4.0188,-4.007,0.0,0.0,0.0,0.0,0.0,0.0,0.0,0.0,0.0,0.0,0.0,0.0,0.0,0.0,0.0,0.0,0.0,0.0,0.0,-2.6561,-2.7249,-2.8259,-2.8711,-2.9799,-3.1631,-3.2186,-3.3144,-3.4571,-3.4276,-3.4326,-3.4666,-3.3982,-3.3629,-3.353,-3.3234,-3.2737,-3.2057,-3.1442,-3.0897,-3.0384,-2.9483,-2.9044,-2.8967,-2.8636,-2.8541,-2.8573,-2.8748,-2.9042,0.0,-3.0038,-3.0535,-3.0952,-3.1329,-3.1694,-3.2213,-3.3231,-3.4273,-3.5439,-3.6944,-3.7794,-3.8364,-3.8707,-3.9573,-4.0558,-4.116,-4.204,-4.3008,-4.4026,-4.4087,-4.4166,-4.4893,-4.4962,-4.5181,-4.6003,-4.6485,-4.7152,-4.8356,-4.8814,-4.9193,-4.9539,-4.9532,-4.9509,-4.9509,-4.9509,-4.9509,-4.9509,-4.939,-4.9276,-4.9179,-4.9116,-4.9049,-4.8909,-4.8909,-4.8909,-4.8909,-4.8909,-4.8909,-4.8909,-4.8822,-4.8732,-4.855,-4.7537,-4.6099,-4.4367,-4.2977,-4.2033,-4.149,-4.1088,-4.0888,-4.084,-4.0745,-4.06,-4.0436,-4.0355,-4.0188,-4.007,0.0,0.0,0.0,0.0,0.0,0.0,0.0,0.0,0.0,0.0,0.0,0.0,0.0,0.0,0.0,0.0,0.0,0.0,0.0,-2.621,-2.6674,-2.7046,-2.798,-2.8862,-2.9565,-3.0567,-3.152,-3.2483,-3.1254,-3.1502,-3.3128,-3.1556,-3.1568,-3.2932,-3.2579,-3.2299,-3.2057,-3.1232,-3.0673,-3.0267,-2.9438,-2.8967,-2.8794,-2.8794,-2.8811,-2.8904,-2.9044,0.0,-2.954,-3.0318,-3.074,-3.1015,-3.175,-3.2003,-3.2319,-3.3902,-3.5937,-3.7868,-3.8682,-3.8873,-3.8833,-3.911,-3.9649,-4.0504,-4.2011,-4.2843,-4.3661,-4.5052,-4.5184,-4.5163,-4.5513,-4.5362,-4.547,-4.6334,-4.6814,-4.747,-4.8638,-4.9183,-4.9566,-4.9776,-4.9615,-4.9509,0.0,-4.9509,-4.9509,-4.9509,-4.939,-4.9276,-4.9179,-4.9116,-4.9049,-4.8909,-4.8909,-4.8909,-4.8909,-4.8909,-4.8909,-4.8909,-4.8822,-4.8732,-4.8569,-4.7098,-4.5979,-4.5182,-4.3456,-4.2236,-4.149,-4.1088,-4.084,-4.0697,-4.0697,-4.0551,-4.0305,-4.0305,-4.0188,-4.007,0.0,0.0,0.0,0.0,0.0,0.0,0.0,0.0,0.0,0.0,0.0,0.0,0.0,0.0,0.0,0.0,-2.5556,-2.5711,-2.5342,-2.5851,-2.6245,-2.6465,-2.6859,-2.7599,-2.8676,-2.9556,-3.0558,-3.1677,-3.1504,-3.114,-3.0579,-3.0835,-3.057,-2.995,-3.0874,-3.1257,-3.1189,-3.0369,-3.0021,-2.9881,-2.8904,-2.8525,-2.8556,-2.8636,-2.8842,-2.9198,0.0,0.0,-3.0123,-3.0925,-3.1257,-3.1428,-3.186,-3.2231,-3.2841,-3.4517,-3.5984,-3.7254,-3.7988,-3.86,-3.9017,-3.9165,-3.9877,-4.0891,-4.212,-4.3042,-4.3927,-4.4982,-4.5178,-4.5222,-4.5362,-4.5302,-4.5638,-4.6946,-4.7262,-4.7776,-4.8975,-4.9457,-4.9665,-4.9615,-4.9532,0.0,0.0,0.0,0.0,-4.9509,-4.9459,-4.939,-4.9276,-4.9197,-4.915,-4.9049,-4.8962,-4.8909,-4.8909,-4.8909,-4.8909,-4.889,-4.8213,-4.7847,-4.7756,-4.6067,-4.5,-4.4476,-4.3868,-4.2821,-4.1525,-4.1943,-4.1615,-4.084,-4.0745,-4.06,-4.0436,-4.0337,-4.0188,-4.007,0.0,0.0,0.0,0.0,0.0,0.0,0.0,0.0,0.0,0.0,0.0,0.0,0.0,0.0,0.0,0.0,0.0,-2.5914,-2.5167,-2.5754,-2.6037,-2.5832,-2.5917,-2.6471,-2.7555,-2.8084,-2.8941,-3.008,-2.9855,-2.9351,-2.8679,-2.91,-2.8894,-2.8227,-2.9499,-3.0145,-3.0234,-2.9569,-2.9316,-2.9348,-2.8542,-2.8186,-2.825,-2.8605,-2.8936,0.0,0.0,-3.014,-3.0601,-3.1218,-3.1524,-3.1711,-3.2214,-3.2927,-3.39,-3.5303,-3.6377,-3.7299,-3.8035,-3.8656,-3.9156,-3.9298,-4.0084,-4.1014,-4.1895,-4.2968,-4.3983,-4.4641,-4.5029,-4.5282,-4.5419,-4.5263,-4.5619,-4.7099,-4.7329,-4.7716,-4.8985,-4.9485,-4.9749,-4.9915,-4.9922,-4.9922,0.0,0.0,0.0,-4.9527,-4.9509,-4.944,-4.9308,-4.9244,-4.9164,-4.9101,-4.8962,-4.8909,-4.8909,-4.8909,-4.876,-4.8463,-4.7752,-4.7239,-4.6925,-4.5517,-4.4485,-4.3862,-4.366,-4.2736,-4.1318,-4.1852,-4.1598,-4.0888,-4.0745,-4.0648,-4.0534,-4.0355,-4.0238,-4.0188,0.0,0.0,0.0,0.0,0.0,0.0,0.0,0.0,0.0,0.0,0.0,0.0,0.0,0.0,0.0,0.0,0.0,0.0,-2.5257,-2.5886,-2.5942,-2.5207,-2.5194,-2.5535,-2.6236,-2.6302,-2.6838,-2.7847,-2.6511,-2.636,-2.7262,-2.6441,-2.6568,-2.7555,-2.8389,-2.8946,-2.9268,-2.8841,-2.8685,-2.8638,-2.8301,-2.8039,-2.794,-2.8764,0.0,0.0,0.0,-3.0601,-3.0885,-3.1218,-3.1507,-3.1896,-3.282,-3.3996,-3.5294,-3.6261,-3.7192,-3.8079,-3.8823,-3.9073,-3.9192,-3.9526,-4.0188,-4.0896,-4.1378,-4.2656,-4.3838,-4.4135,-4.4787,-4.54,0.0,0.0,-4.547,-4.6857,-4.6987,-4.7382,-4.8696,-4.9248,-4.979,0.0,0.0,0.0,0.0,0.0,0.0,-4.9621,0.0,-4.944,-4.9308,-4.9244,-4.9164,-4.9101,-4.8962,-4.8909,-4.8909,-4.8872,-4.8463,-4.7701,-4.7418,-4.687,-4.6131,-4.5419,-4.4493,-4.3388,-4.2988,-4.2107,-4.1012,-4.1,-4.1,-4.0935,-4.0793,-4.0697,-4.0648,-4.0404,-4.0305,-4.0305,0.0,0.0,0.0,0.0,0.0,0.0,0.0,0.0,0.0,0.0,0.0,0.0,0.0,0.0,0.0,0.0,0.0,0.0,-2.5623,-2.5683,-2.5477,-2.4791,-2.5084,0.0,0.0,0.0,0.0,-2.71,-2.6809,-2.5874,-2.4312,-2.5031,-2.4684,-2.3574,-2.5761,-2.7079,-2.7612,-2.8088,-2.8367,-2.8511,0.0,-2.8073,-2.8137,0.0,0.0,0.0,0.0,-3.0452,-3.1173,-3.1559,-3.2056,-3.2707,-3.3831,-3.4615,-3.5404,-3.6943,-3.7673,-3.8167,-3.9051,-3.942,-3.9599,-3.9781,-4.0063,-4.0513,-4.138,-4.2374,-4.335,-4.4114,-4.4974,-4.562,-4.5703,0.0,0.0,-4.6642,-4.7033,0.0,-4.8529,-4.9145,0.0,-5.0598,0.0,-5.0935,-5.1536,-5.1593,0.0,0.0,-4.9828,-4.9509,-4.9459,-4.9327,-4.9244,-4.9164,-4.9083,-4.8996,-4.8909,-4.8314,-4.7906,-4.7683,-4.6289,-4.5503,-4.5281,-4.4325,-4.3761,-4.3506,-4.3996,-4.3529,-4.2391,-4.2654,-4.222,-4.1311,-4.0995,-4.0793,-4.0697,-4.0485,-4.0387,-4.0305,0.0,0.0,0.0,0.0,0.0,0.0,0.0,0.0,0.0,0.0,0.0,0.0,0.0,0.0,0.0,0.0,0.0,0.0,0.0,-2.5812,-2.549,-2.4642,-2.4847,0.0,0.0,0.0,0.0,0.0,0.0,0.0,-2.4126,-2.4489,-2.3988,-2.2872,-2.4694,-2.5827,-2.646,-2.736,0.0,0.0,0.0,0.0,0.0,0.0,0.0,0.0,0.0,-3.0781,-3.1521,-3.1984,-3.247,-3.3082,-3.434,-3.5162,-3.5938,-3.735,-3.8172,-3.873,-3.9287,-3.9564,-3.9739,-3.987,-3.9996,-4.0271,-4.0883,-4.1722,-4.2638,-4.3573,-4.452,-4.5298,-4.5673,-4.5512,-4.5496,0.0,0.0,0.0,-4.795,-4.888,-4.9922,0.0,-5.1236,0.0,-5.2381,-5.2475,-5.2118,0.0,-5.0485,-4.9865,-4.9527,-4.9358,-4.9276,-4.9244,-4.915,-4.8881,-4.8389,-4.7924,-4.7348,-4.6624,-4.5564,-4.4835,-4.445,-4.3836,-4.3444,-4.3251,0.0,-4.3412,-4.2631,-4.2803,-4.2339,-4.149,-4.1237,-4.0995,-4.0793,-4.0631,-4.0485,-4.0387,0.0,0.0,0.0,0.0,0.0,0.0,0.0,0.0,0.0,0.0,0.0,0.0,0.0,0.0,0.0,0.0,0.0,0.0,0.0,0.0,0.0,0.0,0.0,0.0,-2.5847,-2.6032,-2.627,-2.652,-2.64,0.0,0.0,0.0,0.0,0.0,0.0,0.0,0.0,0.0,0.0,0.0,0.0,0.0,0.0,0.0,0.0,0.0,-3.0543,-3.1295,-3.1929,-3.242,-3.2855,-3.3355,-3.4663,-3.5762,-3.6749,-3.7683,-3.8662,-3.9418,-3.9476,-3.9613,-3.9762,-3.9914,-4.0038,-4.0157,-4.0289,-4.105,-4.1982,-4.2912,-4.384,-4.4766,-4.5645,-4.5493,-4.5303,-4.5472,0.0,-4.6986,-4.7269,-4.8465,-4.9922,-5.1555,-5.1837,-5.2231,-5.3113,-5.3282,-5.3001,-5.2137,-5.1311,-5.0504,-4.9696,-4.9465,-4.9308,-4.9308,-4.9071,-4.8546,-4.7701,-4.7497,-4.668,-4.5287,-4.506,-4.455,-4.3804,-4.3667,-4.3375,-4.2995,-4.2995,-4.275,-4.236,-4.232,-4.2032,-4.1604,-4.1516,-4.1237,-4.0888,-4.0745,-4.0583,-4.0436,0.0,0.0,0.0,0.0,0.0,0.0,0.0,0.0,0.0,0.0,-2.764,-2.769,0.0,0.0,0.0,0.0,0.0,0.0,0.0,0.0,0.0,0.0,0.0,0.0,-2.6613,-2.6803,-2.6819,-2.6572,-2.6241,-2.5882,0.0,0.0,0.0,0.0,0.0,0.0,0.0,0.0,0.0,0.0,0.0,0.0,0.0,0.0,0.0,0.0,-3.0828,-3.162,-3.2179,-3.257,-3.3194,-3.4049,-3.5453,-3.6618,-3.7654,-3.86,-3.9136,-3.9425,-3.9564,-3.9712,-3.9911,-4.0098,-4.0215,-4.0289,-4.0432,-4.1152,0.0,-4.2922,-4.3848,-4.4761,-4.5645,-4.5616,-4.5454,-4.549,-4.5916,-4.6512,-4.72,-4.7938,-4.9039,0.0,-5.1499,-5.2231,-5.3113,-5.3789,0.0,0.0,-5.2175,-5.1349,-5.0522,-4.9847,-4.9377,-4.9211,-4.846,-4.7932,-4.7701,-4.6382,-4.5565,-4.5287,-4.4485,-4.4045,-4.3883,-4.3701,-4.3548,-4.3479,-4.341,0.0,-4.325,-4.292,-4.2498,-4.2032,-4.1648,-4.1192,-4.0697,-4.0583,-4.0436,-4.0305,0.0,0.0,0.0,0.0,0.0,0.0,0.0,-2.7335,-2.7284,-2.7284,-2.7488,-2.759,-2.7488,-2.779,0.0,0.0,0.0,0.0,0.0,0.0,0.0,0.0,0.0,0.0,0.0,-2.8109,-2.814,-2.7838,0.0,-2.735,-2.7077,-2.565,-2.4639,-2.408,-2.401,-2.3945,-2.3932,0.0,0.0,-2.6759,-2.7357,-2.776,0.0,0.0,0.0,0.0,0.0,0.0,-3.2404,-3.2603,-3.3648,-3.4979,-3.583,-3.6809,-3.7829,-3.8804,-3.9264,-3.9489,-3.9618,-3.9826,-4.0036,-4.0176,-4.0253,-4.0325,-4.0466,0.0,0.0,-4.2279,-4.3188,-4.41,-4.5017,-4.5391,-4.5526,-4.5455,-4.5867,-4.6472,-4.7245,-4.7909,-4.8945,-5.0711,-5.1198,-5.1889,-5.3188,-5.3658,-5.387,-5.3827,-5.2625,-5.1555,-5.0729,-4.994,-4.9221,-4.8645,-4.817,-4.7457,-4.6504,-4.5709,-4.5064,-4.4618,-4.4178,-4.3929,-4.3851,-4.3753,-4.3634,-4.3566,-4.3513,0.0,-4.3497,-4.3304,-4.2808,-4.2157,-4.1948,-4.1401,-4.0793,-4.0631,-4.0534,-4.0387,0.0,0.0,0.0,0.0,0.0,0.0,0.0,-2.7488,-2.735,-2.7233,-2.7335,-2.7401,-2.7503,-2.784,-2.7989,0.0,0.0,0.0,0.0,0.0,0.0,0.0,0.0,0.0,0.0,0.0,0.0,-2.903,-2.8884,0.0,0.0,0.0,0.0,0.0,-2.4824,-2.4265,-2.3563,-2.5053,-2.5934,0.0,0.0,-2.7423,0.0,0.0,0.0,0.0,0.0,0.0,-3.2456,-3.2831,-3.4106,-3.5616,-3.6248,-3.7095,-3.805,-3.886,-3.9324,-3.9575,-3.9717,-3.9935,-4.0138,-4.0253,-4.0308,-4.036,-4.0499,-4.0527,-4.08,-4.1726,-4.2599,-4.351,-4.4427,-4.5182,-4.5613,0.0,-4.5819,-4.6332,-4.7055,-4.7753,-4.8777,-5.0363,-5.079,0.0,-5.3043,-5.3314,0.0,-5.4382,-5.2865,-5.1461,-5.0485,-4.9847,-4.9084,-4.8147,-4.786,-4.6962,-4.5413,-4.5133,-4.4674,-4.4005,-4.4005,-4.3929,-4.3837,-4.3804,-4.3686,-4.3513,-4.3532,0.0,0.0,-4.3497,-4.305,-4.2338,-4.2257,-4.1692,-4.0901,-4.0728,-4.0534,-4.0387,0.0,0.0,0.0,0.0,0.0,0.0,0.0,-2.7401,-2.735,-2.7233,-2.7335,-2.7488,-2.774,-2.779,-2.784,0.0,0.0,0.0,0.0,0.0,0.0,0.0,0.0,0.0,0.0,0.0,0.0,-2.9175,-2.8921,0.0,0.0,0.0,0.0,0.0,0.0,-2.4334,-2.3657,-2.4523,0.0,0.0,0.0,0.0,0.0,0.0,0.0,0.0,0.0,-3.1785,-3.2214,-3.3385,-3.4438,-3.5477,-3.7,-3.8108,-3.8915,-3.9055,-3.9376,-3.9717,-3.9914,-4.008,-4.0233,-4.0432,-4.0485,-4.0499,-4.0577,-4.0583,-4.0858,-4.1807,-4.2679,-4.3556,-4.4447,-4.5299,-4.58,0.0,0.0,-4.5687,-4.6313,-4.7042,-4.7806,-4.8715,0.0,0.0,-5.2409,-5.3036,-5.3717,-5.4509,-5.293,-5.1236,-4.9696,-4.9546,-4.9084,-4.8147,-4.728,-4.6346,-4.5413,-4.4538,-4.4079,-4.4005,-4.4005,-4.3942,-4.3883,-4.3837,-4.3719,-4.3582,-4.3532,0.0,0.0,-4.3497,-4.3232,-4.2806,-4.2378,-4.176,-4.1047,-4.0645,-4.0387,-4.0138,0.0,0.0,0.0,0.0,0.0,0.0,-2.774,-2.759,-2.7575,-2.7695,-2.7745,-2.7894,-2.8398,-2.8527,-2.8479,0.0,0.0,0.0,0.0,0.0,0.0,0.0,0.0,0.0,0.0,0.0,-3.1215,-3.0761,-3.0408,0.0,0.0,0.0,0.0,0.0,0.0,-2.4414,-2.2457,0.0,0.0,0.0,0.0,0.0,0.0,0.0,0.0,0.0,0.0,0.0,-3.316,-3.3564,-3.5026,-3.6753,-3.7458,-3.852,-3.9528,-3.947,-3.9599,-3.9826,-4.0038,-4.0215,-4.036,-4.046,-4.0523,-4.0569,-4.0646,-4.0681,-4.0817,-4.1197,-4.2395,-4.3465,-4.3807,-4.5013,-4.5887,-4.5642,0.0,0.0,-4.6347,-4.7067,-4.7851,-4.8781,-4.9848,0.0,0.0,0.0,-5.2191,-5.2352,-5.1632,-5.0447,-4.8814,-4.872,-4.8314,-4.7459,-4.6536,-4.5604,-4.4759,-4.4333,-4.4085,-4.4005,-4.4005,-4.3974,-4.3915,-4.3837,-4.3719,-4.3582,-4.3513,0.0,0.0,-4.3497,-4.3268,-4.2882,-4.2673,-4.2056,-4.1168,-4.0972,-4.058,-4.0188,0.0,0.0,0.0,0.0,0.0,-2.8511,-2.7875,-2.781,-2.7894,-2.8076,-2.811,-2.8352,-2.8858,-2.912,-2.9212,-2.8919,0.0,0.0,0.0,0.0,0.0,0.0,0.0,0.0,0.0,0.0,-3.2073,-3.1819,-3.1462,-3.1346,0.0,0.0,-2.936,-2.6415,0.0,0.0,0.0,0.0,0.0,0.0,0.0,0.0,0.0,0.0,0.0,0.0,0.0,0.0,0.0,0.0,0.0,-3.7497,-3.8034,-3.8982,-3.9853,-3.9792,-3.9887,-4.0062,-4.0232,-4.0375,-4.0476,-4.0554,-4.0593,-4.0654,-4.0713,-4.0764,-4.08,-4.0792,-4.2191,-4.3397,-4.3397,-4.4816,-4.5925,-4.5723,-4.5696,-4.5828,-4.6166,-4.707,-4.7918,-4.864,0.0,-5.0481,0.0,-5.1554,-5.1459,-5.0937,-5.0798,-5.0021,-4.8288,-4.7969,-4.7462,-4.6636,-4.5948,-4.5177,-4.4304,-4.4244,-4.4135,-4.4005,-4.4005,-4.4103,-4.4249,-4.4202,-4.4232,-4.4334,-4.4044,0.0,0.0,-4.3589,-4.3339,-4.3069,-4.292,-4.2342,-4.1595,-4.1213,-4.0802,-4.0419,0.0,0.0,0.0,0.0,0.0,0.0,-2.7875,-2.8091,-2.8255,-2.8125,-2.8448,-2.8748,-2.8858,-2.9438,-2.9793,-2.981,0.0,0.0,0.0,0.0,0.0,0.0,0.0,0.0,0.0,0.0,-3.2108,-3.1894,-3.1651,-3.1402,-3.119,-3.0942,-2.9924,-2.8312,0.0,0.0,0.0,0.0,0.0,0.0,0.0,0.0,0.0,0.0,0.0,0.0,0.0,0.0,0.0,0.0,0.0,0.0,0.0,-3.9581,0.0,0.0,-4.0226,-4.0494,-4.0494,-4.0557,-4.0621,-4.0687,-4.07,-4.0713,-4.0776,-4.08,-4.0812,-4.0796,-4.2183,-4.3397,-4.341,-4.4808,-4.598,-4.5917,-4.5786,0.0,-4.5622,-4.6855,-4.7818,0.0,0.0,-5.0646,-5.1525,-5.2203,-5.2123,-5.0975,-5.0889,0.0,-4.8288,-4.7443,-4.6617,-4.5735,-4.5629,-4.5177,-4.4304,-4.4244,-4.4135,-4.4005,-4.4005,-4.44,-4.5101,-4.5101,-4.5445,-4.6027,0.0,0.0,0.0,-4.3828,-4.3497,-4.3444,-4.2902,-4.2598,-4.2364,-4.1366,-4.0896,-4.0707,0.0,0.0,0.0,0.0,0.0,0.0,0.0,-2.9633,-2.9871,-3.0185,-3.0496,-3.0831,-3.1253,-3.1602,-3.1764,-3.1764,0.0,0.0,0.0,0.0,0.0,0.0,0.0,0.0,0.0,0.0,-3.3634,-3.3055,-3.2596,-3.2187,-3.1731,-3.1562,-3.0212,-2.7918,-2.7764,0.0,0.0,0.0,0.0,0.0,0.0,0.0,0.0,0.0,0.0,0.0,0.0,0.0,0.0,0.0,0.0,0.0,0.0,0.0,0.0,-4.0695,-4.0636,-4.0518,-4.0558,-4.0655,-4.0743,-4.0749,-4.0809,-4.084,-4.0859,-4.0888,-4.0917,-4.0888,-4.2285,-4.3517,-4.3471,-4.486,-4.5953,-4.5789,-4.5692,0.0,0.0,0.0,0.0,-4.7862,-4.9312,-5.0417,0.0,0.0,-5.0741,-5.0377,-4.9636,-4.8701,-4.758,-4.6619,-4.5998,-4.5716,-4.5143,-4.4674,-4.4373,-4.4845,-4.5046,-4.4972,-4.5467,-4.5844,-4.6052,-4.5919,-4.5651,0.0,0.0,0.0,0.0,-4.2194,-4.1864,-4.1831,-4.1677,-4.1307,-4.0789,-4.0194,-3.9661,-3.9175,0.0,0.0,0.0,0.0,0.0,0.0,0.0,-3.0587,-3.0892,-3.1339,-3.1726,-3.2057,-3.2397,-3.2607,-3.268,-3.268,0.0,0.0,0.0,0.0,0.0,0.0,0.0,0.0,0.0,-3.4853,-3.4587,-3.4129,-3.3656,-3.3321,-3.309,-3.2837,-3.1716,-2.9826,-2.9349,0.0,0.0,0.0,0.0,0.0,0.0,0.0,-2.7957,0.0,0.0,0.0,0.0,0.0,0.0,0.0,0.0,0.0,0.0,0.0,0.0,0.0,-4.0879,-4.0659,-4.0699,-4.0755,-4.0805,-4.0824,-4.0879,-4.0937,-4.0937,-4.0972,-4.0991,-4.0949,-4.2369,-4.3591,-4.3556,-4.49,-4.5944,-4.5802,-4.5692,0.0,0.0,0.0,0.0,-4.8288,0.0,0.0,0.0,-5.0231,-5.0024,-4.9651,-4.8965,-4.8037,-4.6849,-4.6129,-4.5632,-4.5331,-4.4787,-4.459,-4.4822,-4.5268,-4.5606,-4.5829,-4.6285,-4.6661,-4.694,-4.6157,-4.5648,0.0,0.0,0.0,0.0,-4.1442,-4.1111,-4.1079,-4.1013,-4.0721,-4.0311,-3.9786,-3.9265,-3.8703,0.0,0.0,0.0,0.0,0.0,0.0,0.0,0.0,-3.1498,-3.1887,-3.2283,-3.2561,-3.2665,-3.28,-3.2845,-3.2845,0.0,0.0,0.0,0.0,0.0,0.0,0.0,0.0,0.0,-3.5244,-3.5119,-3.5102,-3.4701,-3.4651,-3.4871,-3.4493,-3.3979,-3.3389,-3.1544,0.0,0.0,0.0,0.0,0.0,0.0,0.0,0.0,0.0,0.0,0.0,0.0,0.0,0.0,0.0,0.0,0.0,0.0,0.0,0.0,0.0,0.0,0.0,0.0,-4.0858,-4.0831,-4.0893,-4.0955,-4.1,-4.1013,-4.1013,0.0,-4.0994,-4.2383,-4.3611,-4.3611,-4.4926,-4.5966,-4.5898,-4.5752,0.0,0.0,-4.6205,0.0,0.0,-4.9877,0.0,-5.0302,-5.0245,-4.9835,-4.8895,-4.8699,-4.7908,-4.6209,-4.5923,-4.5504,-4.4825,-4.4654,-4.489,-4.5511,-4.5611,-4.5998,-4.662,-4.6643,-4.6995,-4.7553,-4.5945,-4.5456,0.0,0.0,0.0,0.0,-4.1277,-4.0946,-4.0914,-4.0711,-4.0643,-4.0557,-3.9872,-3.939,-3.8982,0.0,0.0,0.0,0.0,0.0,0.0,0.0,0.0,0.0,0.0,-3.3762,-3.4037,-3.418,-3.4275,-3.4369,0.0,0.0,0.0,0.0,0.0,0.0,0.0,0.0,0.0,0.0,-3.6859,-3.6538,-3.6061,-3.568,-3.5234,-3.4818,-3.4546,-3.4271,-3.3894,-3.3177,0.0,0.0,0.0,0.0,0.0,0.0,0.0,0.0,0.0,0.0,0.0,-3.499,-3.6043,0.0,0.0,0.0,0.0,0.0,0.0,0.0,0.0,-4.0849,-4.0776,-4.0875,0.0,-4.0973,-4.1035,-4.1055,-4.109,0.0,-4.1072,-4.1052,-4.1019,0.0,-4.366,-4.3617,-4.4954,-4.6035,-4.5922,0.0,-4.5712,-4.5566,0.0,0.0,-4.906,-4.9899,-5.039,-5.039,-4.9771,-4.9289,-4.9033,-4.7738,-4.6796,-4.6349,-4.5564,-4.5268,-4.5598,-4.559,-4.5594,-4.564,-4.6831,-4.7484,-4.7658,-4.8122,-4.7794,-4.6754,-4.6246,-4.5086,0.0,0.0,0.0,-4.0396,-3.9606,-3.9258,-3.9245,-3.9095,-3.9013,-3.8882,-3.8384,-3.7871,-3.7364,0.0,0.0,0.0,0.0,0.0,0.0,0.0,0.0,0.0,0.0,0.0,0.0,0.0,0.0,0.0,0.0,0.0,0.0,0.0,0.0,0.0,0.0,0.0,0.0,-3.7631,-3.754,-3.7326,-3.7094,-3.6716,-3.6468,-3.6414,-3.6096,-3.5738,-3.5438,-3.438,0.0,0.0,0.0,0.0,0.0,-2.5879,0.0,0.0,0.0,0.0,0.0,-3.5223,-3.6453,0.0,-3.8997,-3.9771,-4.0266,0.0,0.0,0.0,0.0,-4.0809,-4.0732,-4.0902,-4.0961,-4.0972,-4.1035,-4.1086,-4.1097,-4.1108,-4.1104,-4.1085,-4.1055,0.0,-4.3673,-4.3565,-4.4915,-4.6017,0.0,-4.5805,0.0,0.0,0.0,-4.8336,-4.9161,-4.9982,-5.0457,0.0,0.0,-4.8911,-4.8525,-4.7217,-4.6279,-4.5916,-4.5707,-4.5697,-4.5987,-4.6682,-4.6986,-4.6802,-4.7629,-4.8189,-4.8497,-4.8062,-4.7363,-4.6457,-4.4819,-4.3365,0.0,0.0,0.0,-3.9357,-3.8872,-3.8707,-3.8658,-3.8528,-3.8446,-3.835,-3.8036,-3.7613,-3.7132,0.0,0.0,0.0,0.0,0.0,0.0,0.0,0.0,0.0,0.0,0.0,0.0,0.0,0.0,0.0,0.0,0.0,0.0,0.0,0.0,0.0,0.0,0.0,-3.7649,-3.7721,-3.7739,-3.781,-3.7899,-3.7631,-3.7721,-3.8241,-3.7846,-3.7468,-3.7054,-3.5472,-3.3563,0.0,0.0,-2.8755,0.0,-2.6728,0.0,0.0,0.0,0.0,0.0,0.0,0.0,0.0,-3.8879,-3.9634,-4.0344,-4.0691,0.0,0.0,0.0,0.0,0.0,-4.0918,-4.0948,-4.0939,-4.0994,-4.1074,-4.1108,-4.1108,-4.1105,-4.1103,-4.1107,0.0,-4.3661,-4.3548,-4.4896,0.0,0.0,0.0,0.0,-4.6605,-4.7511,-4.8356,-4.9028,-4.9873,0.0,-5.0243,-4.9302,-4.8419,-4.7665,-4.6806,-4.6061,-4.5507,-4.6088,-4.6449,-4.6493,-4.7764,-4.8342,-4.8171,-4.8241,-4.8426,-4.8744,-4.7276,-4.6313,-4.5658,-4.2829,-4.1359,-4.1014,0.0,0.0,-3.8792,-3.8719,-3.8707,-3.8676,-3.8496,-3.8415,-3.8382,-3.8274,-3.7915,-3.7414,0.0,0.0,0.0,0.0,0.0,0.0,0.0,0.0,0.0,0.0,0.0,0.0,0.0,0.0,0.0,0.0,0.0,0.0,0.0,0.0,0.0,0.0,-3.7828,-3.7864,-3.7864,-3.7864,-3.7864,-3.7899,-3.7864,-3.7864,-3.7969,-3.7899,-3.7667,-3.7345,-3.6867,-3.5312,-3.3023,-3.2353,-3.1109,-2.9493,-2.8161,0.0,0.0,0.0,0.0,0.0,0.0,0.0,0.0,-3.7826,-3.9034,-4.0713,-4.0785,0.0,0.0,0.0,0.0,0.0,-4.0874,-4.0942,-4.0994,-4.1064,-4.1132,-4.1171,-4.1112,-4.1091,-4.111,-4.1107,0.0,-4.3681,-4.3679,-4.5035,-4.6131,0.0,0.0,-4.5726,0.0,0.0,-4.8219,-4.8279,0.0,-4.9488,-4.9468,-4.7947,-4.6929,-4.6793,0.0,-4.5736,-4.629,-4.6421,-4.706,-4.8351,-4.8503,-4.8493,-4.8352,-4.8858,-4.8434,-4.7068,-4.6749,-4.5121,-4.2333,-4.1832,-4.0741,-3.9261,0.0,-3.8822,-3.8719,-3.8707,-3.8707,-3.8707,-3.8559,-3.8446,-3.8382,-3.8322,-3.7949,-3.7377,0.0,0.0,0.0,0.0,0.0,0.0,0.0,0.0,0.0,0.0,0.0,0.0,0.0,0.0,0.0,0.0,0.0,0.0,0.0,0.0,0.0,-3.8106,-3.8156,-3.8104,-3.8002,-3.8088,-3.8122,-3.8171,-3.8122,-3.8122,-3.8171,-3.807,-3.7915,-3.7774,-3.745,-3.6633,-3.5403,-3.4082,-3.3005,-3.1972,0.0,0.0,0.0,0.0,0.0,0.0,0.0,0.0,0.0,0.0,-3.8877,-4.0713,-4.0813,0.0,0.0,0.0,0.0,0.0,-4.082,-4.0928,-4.1013,-4.1077,-4.1128,-4.1131,-4.1113,-4.1094,-4.1113,-4.1151,0.0,0.0,0.0,0.0,-4.6088,-4.5914,0.0,-4.5838,-4.6287,-4.7022,-4.7659,0.0,0.0,-4.8644,-4.8606,-4.7453,-4.6704,-4.6664,0.0,0.0,-4.6524,-4.742,-4.817,-4.8775,-4.8726,-4.834,-4.7749,-4.7473,-4.6911,-4.6022,-4.4666,-4.3159,-4.1571,-4.0661,-3.9816,-3.8989,0.0,-3.8881,-3.8792,-3.8738,-3.8707,-3.8658,-3.8528,-3.8415,-3.8401,-3.8289,-3.781,-3.7132,0.0,0.0,0.0,0.0,0.0,0.0,0.0,0.0,0.0,0.0,0.0,0.0,0.0,0.0,0.0,0.0,0.0,0.0,0.0,0.0,-3.8354,-3.8405,-3.8465,-3.8382,-3.8168,-3.8271,-3.8354,-3.8382,-3.8368,-3.8387,-3.8465,-3.8318,-3.8234,-3.8183,-3.7911,-3.7702,-3.752,-3.592,-3.5159,-3.4705,0.0,0.0,0.0,0.0,0.0,0.0,0.0,0.0,0.0,0.0,0.0,0.0,0.0,0.0,0.0,-4.0636,-4.0674,-4.0729,-4.082,-4.0935,-4.1037,-4.1085,-4.1099,-4.1108,-4.109,0.0,0.0,0.0,0.0,0.0,0.0,-4.491,0.0,-4.5838,-4.5765,-4.5963,-4.6606,-4.6844,-4.7193,-4.7848,-4.7853,-4.7798,-4.776,-4.6992,-4.6474,0.0,0.0,0.0,-4.6585,-4.7824,-4.8541,-4.8557,-4.8302,-4.7655,-4.6652,-4.5499,-4.4824,-4.4632,-4.2726,-4.1521,-4.0987,-3.9677,-3.9101,-3.9073,-3.8979,-3.891,-3.8881,-3.878,-3.8719,-3.8658,-3.8546,-3.8433,-3.8382,-3.8241,-3.7667,-3.69,0.0,0.0,0.0,0.0,0.0,0.0,0.0,0.0,0.0,0.0,0.0,0.0,0.0,0.0,0.0,0.0,0.0,0.0,0.0,0.0,-3.8528,-3.8676,-3.875,-3.8652,-3.8382,-3.8382,-3.8401,-3.8382,-3.8446,-3.8559,-3.8676,-3.8603,-3.8554,-3.8554,-3.8609,-3.8591,-3.8554,-3.818,-3.7996,-3.7794,-3.5599,0.0,0.0,0.0,0.0,0.0,0.0,0.0,0.0,0.0,0.0,0.0,0.0,0.0,-4.0629,-4.0687,-4.074,-4.082,-4.0948,-4.1033,-4.1088,-4.1108,-4.1099,-4.1107,-4.1107,-4.1108,0.0,-4.1191,0.0,0.0,0.0,-4.502,-4.6035,-4.5819,-4.5791,-4.5791,-4.5793,0.0,-4.7082,-4.7072,-4.7039,-4.6985,-4.6985,-4.6145,0.0,0.0,0.0,0.0,-4.6565,-4.6719,-4.7116,-4.7853,-4.6953,-4.6022,-4.5066,-4.3328,-4.2359,-4.2173,-4.1931,-4.0952,-3.9369,-3.9184,-3.9064,-3.9007,-3.8997,-3.8921,-3.8822,-3.8792,-3.875,-3.8707,-3.8658,-3.8546,-3.8382,-3.8241,-3.7667,-3.69,0.0,0.0,0.0,0.0,0.0,0.0,0.0,0.0,0.0,0.0,0.0,0.0,0.0,0.0,0.0,0.0,0.0,0.0,0.0,0.0,-3.8873,-3.9007,-3.9101,-3.9137,-3.9008,-3.8913,-3.8844,-3.8844,-3.8998,-3.9082,-3.9129,-3.9073,-3.9082,-3.9154,-3.9197,-3.9226,-3.9252,-3.912,-3.9062,-3.8864,-3.6739,-3.6074,0.0,0.0,0.0,0.0,0.0,0.0,0.0,0.0,-3.9301,-4.0835,-4.0807,-4.0752,-4.0732,-4.0801,-4.0863,-4.0935,-4.0987,-4.1057,-4.1108,-4.1108,-4.1094,-4.1099,0.0,-4.1101,-4.1105,-4.1129,-4.2496,0.0,0.0,0.0,-4.5891,-4.588,-4.5833,-4.58,-4.5771,-4.6085,-4.6283,-4.6268,-4.6185,-4.6155,-4.6155,-4.5796,0.0,0.0,0.0,0.0,-4.6645,-4.7141,-4.7269,-4.6997,-4.6066,-4.4848,-4.3365,-4.2106,-4.113,-4.0471,-4.0394,-3.9952,-3.921,-3.9183,-3.9129,-3.9045,-3.9007,-3.8968,-3.8881,-3.8822,-3.878,-3.8707,-3.8546,-3.8419,-3.8274,-3.8207,-3.781,-3.7246,0.0,0.0,0.0,0.0,0.0,0.0,0.0,0.0,0.0,0.0,0.0,0.0,0.0,0.0,0.0,0.0,0.0,0.0,0.0,-3.9163,-3.9261,-3.9364,-3.9483,-3.9556,-3.9556,-3.9464,-3.9338,-3.9227,-3.9414,-3.9556,-3.9556,-3.9534,-3.9561,-3.9671,-3.9724,-3.9773,-3.9814,-3.9809,-3.9816,-3.9692,-3.8199,-3.7609,0.0,0.0,0.0,0.0,0.0,0.0,0.0,0.0,-3.981,-4.0831,-4.0883,-4.0864,-4.0836,-4.0909,-4.0961,-4.1008,-4.1033,-4.1074,-4.1091,-4.1091,-4.1091,0.0,-4.1094,-4.1097,-4.1099,-4.1105,-4.2497,-4.4198,-4.5792,0.0,0.0,0.0,-4.5847,-4.58,-4.58,-4.5805,-4.581,-4.581,-4.577,-4.5722,-4.5706,0.0,0.0,0.0,0.0,0.0,0.0,-4.6568,-4.6431,-4.5757,-4.4584,-4.3352,-4.2063,-4.1113,-4.0316,-3.9631,-3.9552,-3.9451,-3.9256,-3.921,-3.9156,-3.9101,-3.9045,-3.8979,-3.891,-3.8851,-3.878,-3.8676,-3.8465,-3.8336,-3.8274,-3.8225,-3.788,-3.7414,0.0,0.0,0.0,0.0,0.0,0.0,0.0,0.0,0.0,0.0,0.0,0.0,0.0,0.0,0.0,0.0,0.0,0.0,-3.9709,-3.9709,-3.9731,-3.9797,-3.9819,-3.984,-3.9901,-4.0042,-3.9901,-3.9505,-3.9709,-3.984,-3.9901,-3.9986,-4.0022,-4.002,-4.0239,-4.0318,-4.034,-4.047,-4.0537,-4.0505,-4.0455,-4.0535,-4.0683,0.0,0.0,0.0,0.0,0.0,0.0,0.0,-4.0971,-4.09,-4.0902,-4.0903,-4.0903,-4.0969,-4.1003,-4.1012,-4.1082,-4.1103,-4.1099,-4.1099,-4.1094,0.0,-4.1108,-4.1108,-4.1094,-4.1125,-4.2499,-4.4201,-4.5806,-4.6057,0.0,-4.5899,-4.5847,-4.58,-4.58,-4.58,-4.58,-4.58,-4.5791,-4.5765,-4.5715,0.0,0.0,0.0,0.0,0.0,0.0,-4.4671,-4.4173,-4.4077,-4.2393,-4.1437,-4.1277,-4.0352,-3.9826,-3.9693,-3.9631,-3.9527,-3.9391,-3.9256,-3.9156,-3.9101,-3.9101,-3.9017,-3.891,-3.891,-3.8822,-3.8676,-3.8465,-3.8382,-3.8382,-3.8241,-3.7933,-3.7469,0.0,0.0,0.0,0.0,0.0,0.0,0.0,0.0,0.0,0.0,0.0,0.0,0.0,0.0,0.0,0.0,0.0,0.0,-4.0114,-4.0114,-4.0168,-4.029,-4.0342,-4.0373,-4.04,-4.0519,-4.0429,-4.0136,-4.0241,-4.0338,-4.038,-4.0455,-4.081,-4.1415,-4.1519,-4.1933,-4.2558,-4.2631,-4.2351,-4.1835,-4.1755,-4.1381,-4.0836,0.0,0.0,0.0,0.0,0.0,0.0,0.0,0.0,0.0,-4.1033,-4.1032,-4.1048,-4.1064,-4.1062,-4.108,-4.1082,-4.1099,-4.1097,-4.1094,-4.1099,0.0,0.0,-4.1108,0.0,0.0,-4.3748,-4.4829,-4.5961,-4.6052,0.0,-4.5893,-4.5841,-4.58,-4.58,-4.58,-4.58,-4.58,-4.5791,-4.5781,-4.5765,0.0,0.0,0.0,0.0,0.0,0.0,-4.4364,-4.3637,-4.2393,-4.1781,-4.117,-4.0459,-4.0087,-3.9826,-3.9693,-3.9631,-3.9552,-3.9469,-3.9373,-3.9275,-3.9156,-3.9129,-3.9017,-3.891,-3.881,-3.867,-3.8559,-3.8478,-3.8446,-3.8382,-3.8289,-3.8189,-3.7984,0.0,0.0,0.0,0.0,0.0,0.0,0.0,0.0,0.0,0.0,0.0,0.0,0.0,0.0,0.0,0.0,0.0,0.0,0.0,0.0,-4.0533,-4.0609,-4.0653,-4.0676,-4.0721,-4.081,-4.0966,-4.1145,-4.0823,-4.0873,-4.1236,-4.1302,-4.1797,-4.2649,-4.2676,-4.3024,-4.3589,-4.357,-4.3274,-4.2798,-4.2422,-4.1926,-4.1382,0.0,0.0,0.0,0.0,0.0,0.0,0.0,0.0,0.0,-4.1103,-4.1108,-4.1092,-4.1094,-4.1112,-4.113,-4.1147,-4.1126,-4.1105,-4.1101,-4.1103,-4.1101,-4.1091,0.0,0.0,0.0,-4.4267,-4.5089,-4.5997,-4.6017,0.0,-4.5905,-4.5835,-4.58,-4.58,-4.58,-4.58,-4.58,-4.5805,-4.581,0.0,0.0,0.0,0.0,0.0,0.0,0.0,-4.344,-4.2734,-4.1663,-4.1245,-4.075,-4.0196,-4.0057,-3.9911,-3.9781,-3.9684,-3.9607,-3.9546,-3.9469,-3.9354,-3.9183,-3.9101,-3.9007,-3.891,-3.8762,-3.8689,-3.8559,-3.851,-3.8478,-3.8382,-3.8322,-3.8274,-3.8207,0.0,0.0,0.0,0.0,0.0,0.0,0.0,0.0,0.0,0.0,0.0,0.0,0.0,0.0,0.0,0.0,0.0,0.0,0.0,0.0,-4.0904,-4.0837,-4.0818,-4.0863,-4.0921,-4.1052,-4.1515,-4.2299,-4.1442,-4.1485,-4.233,-4.2392,-4.2887,-4.3715,-4.3711,-4.3798,-4.3918,-4.3785,-4.37,-4.3541,-4.2665,-4.2267,-4.2091,-4.1228,0.0,0.0,0.0,0.0,0.0,0.0,0.0,0.0,-4.1099,-4.1105,-4.1091,-4.1112,-4.1152,-4.1191,-4.1191,-4.1152,-4.1091,-4.1091,-4.1105,-4.1097,-4.1094,-4.1774,-4.2597,-4.334,0.0,-4.5039,-4.5845,-4.593,-4.5917,-4.5917,-4.5854,-4.5814,-4.5814,-4.5814,-4.58,-4.58,-4.58,-4.5766,0.0,0.0,0.0,0.0,0.0,0.0,0.0,-4.2165,-4.1671,-4.1577,-4.0743,-4.0307,-4.0307,-4.0177,-4.0036,-3.9889,-3.9762,-3.9665,-3.9596,-3.952,-3.9399,-3.9183,-3.9064,-3.8979,-3.8892,-3.8822,-3.8762,-3.8707,-3.8559,-3.8478,-3.8433,-3.8322,-3.8274,-3.8174,0.0,0.0,0.0,0.0,0.0,0.0,0.0,0.0,0.0,0.0,0.0,0.0,0.0,0.0,0.0,0.0,0.0,0.0,0.0,0.0,-4.1749,-4.1074,-4.1042,-4.1049,-4.1052,-4.175,-4.2184,-4.238,-4.2126,-4.2467,-4.3378,-4.3396,-4.3847,-4.4622,-4.4628,-4.4972,-4.5573,-4.5546,-4.5113,-4.4365,-4.3488,-4.2718,-4.2039,-4.1207,-4.0907,0.0,0.0,0.0,0.0,0.0,0.0,0.0,-4.1103,-4.1107,-4.111,-4.1152,-4.1152,-4.1112,-4.1112,-4.1112,-4.1091,-4.1108,-4.1103,-4.1099,-4.1103,-4.1737,-4.239,-4.2617,-4.3794,-4.4851,-4.5046,-4.558,-4.5991,-4.5991,-4.5912,-4.5893,-4.5893,-4.5827,-4.58,-4.58,-4.58,-4.5548,0.0,0.0,0.0,0.0,0.0,0.0,-4.2206,-4.1928,-4.1456,-4.077,-4.0456,-4.0307,-4.0307,-4.0177,-4.0036,0.0,-3.9762,-3.9665,-3.9596,-3.952,-3.9399,-3.9183,-3.9101,-3.9036,-3.895,-3.8851,-3.8792,-3.8762,-3.8689,-3.8658,-3.8627,-3.8433,-3.8368,-3.8336,0.0,0.0,0.0,0.0,0.0,0.0,0.0,0.0,0.0,0.0,0.0,0.0,0.0,0.0,0.0,0.0,0.0,0.0,0.0,0.0,0.0,-4.236,-4.2343,-4.2344,-4.2343,-4.2789,-4.3214,-4.3598,-4.3567,-4.3807,-4.4316,-4.429,-4.4725,-4.5515,-4.5487,-4.5714,-4.6091,-4.6037,-4.5723,-4.5157,-4.3901,-4.3125,-4.2593,-4.1362,-4.0888,-4.0888,-4.0935,0.0,0.0,0.0,0.0,0.0,0.0,0.0,-4.1108,-4.113,-4.1152,-4.1133,-4.1112,-4.1091,-4.1071,-4.1027,-4.1009,-4.0991,-4.0991,-4.1339,-4.1642,-4.1667,-4.3019,-4.4167,-4.4167,-4.4501,-4.4769,-4.4769,-4.4703,-4.4666,-4.4698,-4.4654,-4.4608,-4.4608,-4.4608,-4.444,0.0,0.0,0.0,0.0,0.0,-4.2227,-4.133,-4.1228,-4.1004,-4.0515,-4.043,-4.0379,-4.0362,-4.0253,-4.0138,-3.9975,-3.9933,-3.9823,-3.9637,-3.9571,-3.9425,-3.9328,-3.9183,-3.9101,-3.9036,-3.8892,-3.8822,-3.8792,-3.8738,-3.8658,-3.8609,-3.8496,-3.8415,-3.8401,0.0,0.0,0.0,0.0,0.0,0.0,0.0,0.0,0.0,0.0,0.0,0.0,0.0,0.0,0.0,0.0,0.0,0.0,0.0,0.0,0.0,-4.3688,-4.3685,-4.3679,-4.3684,-4.3833,-4.4226,-4.4908,-4.5052,-4.5143,-4.5184,-4.5141,-4.5509,-4.6181,-4.6111,-4.6085,-4.6065,-4.596,-4.5893,-4.5757,-4.4226,-4.3618,-4.3416,-4.174,-4.1101,-4.1092,-4.0956,-4.0917,-4.0917,-4.0926,0.0,0.0,0.0,0.0,-4.1107,-4.1108,-4.1131,-4.1171,-4.1121,-4.1114,-4.1062,-4.0944,-4.092,0.0,-4.0896,-4.0902,-4.0909,-4.0909,-4.2157,-4.3277,-4.3277,-4.3354,-4.341,-4.341,-4.3346,-4.333,-4.3393,-4.333,-4.3298,-4.3298,-4.3298,0.0,0.0,0.0,0.0,0.0,0.0,-4.144,-4.0626,-4.0598,-4.0588,-4.0504,-4.0495,-4.0466,-4.0415,-4.0362,-4.0234,-4.0117,-4.0077,-3.9954,-3.9717,-3.9607,-3.952,-3.9469,-3.9301,-3.9183,-3.9101,-3.8979,-3.8881,-3.8822,-3.875,-3.864,-3.8541,-3.851,-3.8446,-3.8382,0.0,0.0,0.0,0.0,0.0,0.0,0.0,0.0,0.0,0.0,0.0,0.0,0.0,0.0,0.0,0.0,0.0,0.0,-4.4793,0.0,0.0,-4.3602,-4.3602,-4.3621,-4.3616,-4.4345,-4.478,-4.489,-4.5657,-4.6008,-4.5942,-4.5988,-4.6064,-4.6104,-4.6105,-4.6044,-4.5919,-4.5906,-4.5874,-4.5717,-4.4808,-4.444,-4.426,-4.2567,-4.1931,-4.1856,-4.1226,-4.0988,-4.0996,-4.0986,-4.1025,0.0,0.0,0.0,-4.1101,-4.111,-4.1112,-4.1112,-4.1171,-4.1144,-4.1081,-4.1011,-4.0947,-4.09,0.0,0.0,-4.0906,0.0,-4.1699,-4.2364,-4.2364,-4.2986,-4.3481,-4.3421,-4.3388,-4.3385,-4.3404,-4.3342,-4.3298,-4.3298,-4.3298,0.0,0.0,0.0,0.0,0.0,-4.0965,-4.0862,-4.0621,-4.0654,-4.0626,-4.0504,-4.0508,-4.0495,-4.0485,-4.0432,-4.0308,-4.0176,-4.0015,-3.9911,-3.9867,-3.9735,-3.9588,-3.9418,-3.9373,-3.9275,-3.9101,-3.9007,-3.8968,-3.8881,-3.8822,-3.8732,-3.8658,-3.8541,-3.8446,-3.8382,0.0,0.0,0.0,0.0,0.0,0.0,0.0,0.0,0.0,0.0,0.0,0.0,0.0,0.0,0.0,-4.6122,-4.6149,-4.6002,-4.565,-4.5267,-4.5053,-4.5053,-4.5053,-4.5046,-4.5005,-4.5387,-4.5557,-4.5522,-4.5891,-4.6056,-4.5988,-4.6017,-4.6047,-4.6037,-4.6003,-4.5956,-4.5893,-4.586,-4.5833,-4.5722,-4.4929,-4.4614,-4.4473,-4.3284,-4.2543,-4.2119,-4.1791,-4.1334,-4.0878,-4.0887,-4.0937,-4.0987,-4.0994,0.0,0.0,0.0,-4.1107,-4.1087,-4.1042,-4.098,-4.0924,0.0,-4.0878,-4.0849,-4.0849,-4.083,-4.084,-4.083,-4.1141,-4.1441,-4.1471,-4.1781,-4.2034,-4.2005,-4.1994,-4.2003,-4.1994,-4.1973,-4.195,-4.1889,-4.1889,0.0,0.0,0.0,0.0,0.0,-4.079,-4.0759,-4.0654,-4.0668,-4.066,-4.0573,-4.0558,-4.0527,-4.0502,-4.0466,-4.0398,-4.0234,-4.0176,-4.0077,-4.0015,-3.9954,-3.9781,-3.9564,-3.9451,-3.9346,-3.9248,-3.9064,-3.8979,-3.8968,-3.8851,-3.8516,-3.807,-3.7961,-3.7589,-3.7095,0.0,0.0,0.0,0.0,0.0,0.0,0.0,0.0,0.0,0.0,0.0,0.0,0.0,0.0,0.0,0.0,-4.6046,-4.6076,-4.6138,-4.6138,-4.6146,-4.6146,-4.6146,-4.6122,-4.6085,-4.6066,-4.6007,-4.596,-4.596,-4.5949,-4.5893,-4.5893,-4.5917,-4.5953,-4.5912,-4.5893,-4.586,-4.5814,-4.58,-4.5742,-4.5142,-4.4904,-4.4815,-4.4032,-4.3358,-4.2798,-4.2607,-4.1937,-4.1158,-4.1179,-4.1063,-4.0902,-4.0933,-4.0972,0.0,0.0,0.0,-4.1052,-4.0915,-4.0849,-4.082,-4.0803,-4.079,-4.079,0.0,0.0,-4.08,0.0,-4.0796,-4.0807,-4.0859,-4.0888,-4.0898,-4.0898,-4.0898,-4.0888,-4.0898,-4.0888,-4.0867,-4.0807,-4.0796,0.0,0.0,0.0,0.0,0.0,-4.079,-4.0778,-4.07,-4.0733,-4.0693,-4.0607,-4.0622,-4.0592,-4.0499,-4.0502,-4.0449,-4.0325,-4.0309,-4.0253,-4.0157,-4.0117,-3.9975,-3.9804,-3.9539,-3.9406,-3.9328,-3.8897,-3.8739,-3.8664,-3.8375,-3.7845,-3.7301,-3.7243,-3.6751,-3.6095,0.0,0.0,0.0,0.0,0.0,0.0,0.0,0.0,0.0,0.0,0.0,0.0,-4.5893,-4.5906,-4.5899,-4.5917,-4.5917,-4.5929,-4.6003,-4.6003,-4.6005,-4.6007,-4.6005,0.0,-4.6003,-4.5929,-4.5917,-4.5917,-4.5917,-4.5893,-4.5906,-4.5906,-4.586,-4.5814,-4.586,-4.586,-4.5814,-4.58,-4.58,-4.58,-4.5742,-4.5742,-4.5659,-4.4911,-4.4606,-4.4482,-4.3703,-4.2869,-4.2141,-4.2205,-4.1624,0.0,0.0,-4.0954,-4.0843,0.0,0.0,0.0,-4.0848,-4.0849,0.0,-4.0827,-4.079,-4.079,0.0,0.0,-4.0803,-4.0788,-4.08,-4.0792,-4.0807,-4.0848,-4.0907,-4.0907,-4.0907,-4.0907,-4.0907,-4.0848,-4.0807,-4.0807,-4.0804,0.0,0.0,0.0,0.0,0.0,-4.079,-4.0778,-4.07,-4.0759,-4.072,-4.0588,-4.066,-4.0626,-4.0489,-4.0499,-4.0449,-4.0379,-4.0325,-4.029,-4.0291,-4.0157,-4.0077,-4.0057,-3.9735,-3.9446,-3.9154,-3.8364,-3.7968,-3.7776,-3.7017,-3.6602,-3.6454,-3.6472,-3.6303,-3.6095,0.0,0.0,0.0,0.0,0.0,0.0,0.0,0.0,0.0,0.0,0.0,0.0,0.0,-4.5847,-4.586,-4.5899,-4.5893,-4.5917,-4.5929,-4.5949,-4.5929,-4.5941,-4.5929,-4.5949,-4.5949,-4.5917,-4.5905,-4.5899,-4.5899,-4.5874,-4.5847,-4.5847,-4.5814,-4.58,-4.5833,-4.5814,-4.58,-4.58,-4.58,-4.58,-4.58,-4.58,-4.5775,-4.5544,-4.5112,-4.4601,0.0,0.0,0.0,0.0,0.0,0.0,0.0,0.0,0.0,0.0,-4.0859,-4.082,0.0,0.0,0.0,-4.0803,-4.079,-4.079,-4.079,-4.079,-4.0803,-4.0788,-4.0808,-4.0808,-4.0796,-4.0818,-4.0848,-4.0877,-4.0907,-4.0907,-4.0907,-4.0877,-4.0856,-4.0823,-4.08,0.0,0.0,0.0,0.0,0.0,0.0,-4.079,-4.0778,-4.079,-4.0765,-4.066,-4.0687,-4.066,-4.0573,-4.0515,-4.0502,-4.0449,-4.0415,-4.0076,-3.9543,-3.9488,-3.9109,-3.8479,-3.836,-3.8452,-3.8608,-3.7629,-3.721,-3.714,-3.6756,-3.6276,-3.5761,-3.5653,-3.522,-3.4614,0.0,0.0,0.0,0.0,0.0,0.0,0.0,0.0,0.0,0.0,0.0,0.0,0.0,0.0,-4.5814,-4.586,-4.5867,-4.588,-4.5893,-4.5893,-4.5893,-4.5905,-4.5905,-4.5893,-4.5893,-4.5609,-4.5596,-4.586,-4.5609,-4.5576,-4.58,-4.58,-4.58,-4.58,-4.58,-4.58,-4.58,-4.58,-4.58,-4.58,-4.58,-4.58,-4.5814,-4.586,-4.5544,0.0,0.0,0.0,0.0,0.0,0.0,0.0,0.0,0.0,0.0,0.0,0.0,0.0,-4.0746,0.0,0.0,0.0,-4.0784,-4.0778,-4.079,0.0,-4.0803,-4.0796,-4.0803,-4.0796,-4.0804,-4.0796,-4.0826,-4.0897,-4.0888,-4.0898,-4.0907,-4.0907,-4.0886,-4.0823,-4.08,-4.0808,0.0,0.0,0.0,0.0,0.0,0.0,-4.079,-4.079,-4.0778,-4.0733,-4.07,-4.066,-4.0631,-4.0562,-4.038,-4.0095,-4.0027,-3.9553,-3.8714,-3.8678,-3.8303,-3.766,-3.7319,-3.7466,-3.7882,-3.6892,-3.6453,-3.636,-3.598,-3.5458,-3.4951,-3.4866,-3.441,-3.3834,0.0,0.0,0.0,0.0,0.0,0.0,0.0,0.0,0.0,-4.58,0.0,0.0,0.0,0.0,0.0,-4.58,-4.58,-4.5814,-4.5893,-4.5893,-4.5887,-4.5905,-4.5899,-4.5893,-4.5893,-4.5059,-4.5026,-4.58,-4.5026,-4.5026,-4.58,-4.58,-4.58,-4.58,-4.58,-4.58,-4.58,-4.58,-4.58,-4.58,-4.58,-4.58,-4.5814,0.0,0.0,0.0,-4.5968,-4.5448,0.0,-4.4812,0.0,0.0,0.0,0.0,0.0,0.0,0.0,0.0,0.0,0.0,0.0,0.0,0.0,0.0,-4.079,0.0,-4.079,-4.079,-4.079,-4.0803,-4.0788,-4.08,-4.0812,-4.0886,-4.0908,-4.0898,-4.0907,-4.0897,-4.0877,-4.0807,-4.0792,-4.08,0.0,0.0,0.0,0.0,-4.079,-4.079,-4.079,-4.079,-4.079,-4.079,-4.0668,-4.0635,-4.0662,-4.0612,-4.013,-3.9258,-3.9192,-3.8719,-3.7865,-3.7797,-3.7742,-3.7685,-3.6687,-3.6557,-3.6979,-3.6171,-3.5758,-3.5491,-3.4628,-3.4221,-3.4099,-3.4099,-3.4023,-3.3895,0.0,0.0,0.0,0.0,0.0,0.0,0.0,0.0,-4.58,0.0,0.0,0.0,-4.58,-4.58,-4.58,-4.58,-4.58,-4.5814,-4.5833,-4.5814,-4.5827,-4.5841,-4.5827,-4.5814,-4.5814,-4.5601,-4.5568,-4.58,-4.5568,-4.5568,-4.58,-4.58,-4.58,-4.58,-4.58,-4.58,-4.58,-4.58,-4.58,-4.58,-4.58,-4.58,0.0,0.0,0.0,0.0,0.0,-4.5738,-4.5498,0.0,-4.4912,-4.3728,0.0,0.0,0.0,0.0,0.0,0.0,-4.082,0.0,0.0,0.0,0.0,0.0,0.0,0.0,-4.079,-4.079,-4.079,-4.0803,-4.0803,-4.0808,-4.08,-4.0823,-4.0826,-4.0828,-4.0837,-4.0837,-4.0815,-4.0808,-4.0788,-4.0808,0.0,0.0,0.0,0.0,-4.079,-4.079,-4.079,-4.079,-4.079,-4.079,-4.0713,-4.0378,-3.9773,-3.9739,-3.9287,-3.8425,-3.8411,-3.7921,-3.7021,-3.7021,-3.6631,-3.5975,-3.5701,-3.5619,-3.5628,-3.5205,-3.5002,-3.4899,-3.4502,-3.4316,-3.4245,-3.4197,-3.4099,-3.3972,0.0,0.0,0.0,0.0,0.0,0.0,-4.57,-4.5757,-4.58,0.0,0.0,0.0,-4.58,-4.58,-4.58,-4.58,-4.58,-4.58,-4.58,-4.58,-4.58,-4.58,-4.58,-4.58,-4.58,-4.5471,-4.5452,-4.58,-4.5452,-4.5471,-4.58,-4.58,-4.58,-4.58,-4.58,-4.58,-4.5805,-4.5805,-4.5786,-4.58,-4.58,0.0,0.0,-4.58,-4.58,0.0,0.0,0.0,-4.5852,-4.5968,-4.528,0.0,0.0,0.0,0.0,0.0,0.0,0.0,0.0,0.0,0.0,0.0,0.0,0.0,-4.0738,-4.0739,-4.0713,0.0,-4.0746,-4.0759,-4.0784,-4.0808,-4.08,-4.0792,-4.0804,-4.0804,-4.0804,-4.0796,-4.0796,-4.0796,-4.0808,-4.0788,0.0,-4.0803,-4.079,-4.079,-4.079,-4.079,-4.079,-4.079,-4.0616,-4.0268,-4.0217,-3.9779,-3.8897,-3.891,-3.846,-3.7591,-3.7578,-3.7109,-3.624,-3.6213,-3.5902,-3.5379,-3.532,-3.5273,-3.5171,-3.4963,-3.483,-3.4687,-3.4561,-3.445,-3.434,-3.4269,-3.4148,-3.4023,0.0,0.0,0.0,-4.5622,-4.5651,-4.57,-4.5715,-4.5757,-4.58,0.0,-4.58,-4.58,-4.58,-4.58,-4.58,-4.58,-4.58,-4.58,-4.58,-4.58,-4.58,-4.58,-4.58,-4.58,-4.58,-4.5104,-4.5084,-4.58,-4.5084,-4.5104,-4.58,-4.58,-4.58,-4.58,0.0,0.0,-4.58,-4.5781,-4.5791,-4.58,-4.58,-4.58,0.0,0.0,-4.58,-4.5814,-4.586,-4.5893,-4.5906,-4.5968,-4.5433,0.0,0.0,0.0,0.0,0.0,-4.1498,0.0,0.0,0.0,0.0,0.0,0.0,0.0,-4.0776,-4.0694,-4.0621,0.0,-4.0687,-4.0713,-4.0776,-4.0788,-4.08,-4.0796,-4.0792,-4.0788,-4.08,-4.0804,-4.0796,-4.08,-4.08,-4.08,-4.0788,-4.0718,-4.0655,-4.0655,-4.0558,-4.05,-4.05,-4.05,-4.0152,-3.9391,-3.9371,-3.8946,-3.8083,-3.8078,-3.7622,-3.6772,-3.6716,-3.6298,-3.5604,-3.5528,-3.552,-3.5488,-3.5379,-3.5315,-3.5315,-3.5239,-3.5019,-3.4749,-3.4728,-3.4583,-3.4409,-3.434,-3.4221,-3.4099,0.0,0.0,0.0,-4.5657,-4.5687,-4.5715,-4.5765,-4.5791,-4.58,-4.58,-4.58,-4.58,-4.58,-4.58,-4.58,-4.58,-4.58,-4.58,-4.58,-4.58,-4.58,-4.58,-4.58,-4.58,-4.58,-4.5645,-4.5645,-4.58,-4.5645,-4.5645,-4.58,-4.58,-4.58,-4.58,0.0,0.0,-4.58,-4.5731,0.0,-4.5795,-4.5795,-4.5791,-4.58,-4.58,-4.58,-4.58,-4.5814,-4.586,-4.5893,-4.5841,-4.5783,-4.56,0.0,0.0,0.0,-4.244,0.0,0.0,0.0,0.0,0.0,0.0,0.0,0.0,-4.0726,-4.0649,-4.0588,0.0,-4.0621,-4.0635,-4.0713,-4.0713,-4.0726,-4.0784,-4.0803,-4.0796,-4.0788,-4.08,-4.08,-4.0803,-4.0808,-4.0808,-4.0803,-4.0164,-3.9758,-3.9758,-3.9108,-3.8721,-3.8721,-3.8721,-3.8636,-3.8465,-3.8446,-3.807,-3.7239,-3.7226,-3.6801,-3.5931,-3.5927,-3.5797,-3.5604,-3.5589,-3.554,-3.5489,-3.5468,-3.5427,-3.5379,-3.53,-3.5171,-3.5,-3.4851,-3.4711,-3.4623,-3.445,-3.4293,-3.4173,0.0,-4.564,-4.5657,-4.5687,-4.5735,-4.5765,-4.5781,-4.5805,-4.58,-4.58,-4.58,-4.58,-4.58,-4.58,-4.58,0.0,0.0,0.0,0.0,-4.58,-4.58,-4.58,-4.58,-4.58,-4.58,-4.58,-4.58,-4.58,-4.58,-4.58,-4.58,-4.58,-4.58,-4.58,-4.581,-4.5781,-4.575,0.0,-4.5719,-4.5765,-4.58,0.0,-4.58,-4.58,-4.58,-4.58,-4.58,-4.5847,-4.5893,-4.586,-4.5912,0.0,0.0,-4.4469,-4.3412,0.0,-4.1996,-4.1013,0.0,0.0,0.0,-4.1013,0.0,0.0,0.0,-4.0662,-4.0554,-4.0598,-4.0598,-4.0612,-4.0654,-4.0654,-4.0668,-4.0681,-4.07,-4.0694,-4.0707,-4.0752,-4.0796,-4.0803,-4.0803,-4.0641,-4.0203,-3.9758,-3.9321,-3.8876,-3.845,-3.8199,-3.8199,-3.8199,-3.8017,-3.7614,-3.7594,-3.7209,-3.6367,-3.6348,-3.6134,-3.5708,-3.5698,-3.5688,-3.5649,-3.5626,-3.5574,-3.5558,-3.5547,-3.5528,-3.5495,-3.5435,-3.536,-3.5273,-3.5053,-3.487,-3.4728,-3.4602,-3.4409,-3.4245,-4.5657,-4.569,-4.5706,-4.5715,-4.5765,-4.5815,-4.5795,-4.5805,-4.58,-4.58,-4.58,-4.58,-4.58,-4.5814,-4.5814,0.0,0.0,0.0,0.0,-4.5814,-4.5814,-4.58,-4.58,-4.58,-4.58,-4.58,-4.58,-4.58,-4.58,-4.58,-4.58,-4.58,-4.58,-4.5786,-4.5795,-4.575,-4.5684,-4.569,0.0,-4.57,0.0,-4.5791,-4.58,-4.58,-4.58,-4.58,-4.58,-4.5827,-4.5893,-4.5893,-4.5932,-4.598,-4.5991,-4.4849,0.0,0.0,0.0,0.0,0.0,0.0,0.0,0.0,0.0,-4.0746,0.0,0.0,0.0,-4.0573,-4.0573,-4.0569,-4.0593,-4.0593,0.0,0.0,0.0,0.0,0.0,-4.0449,0.0,-4.0526,-4.0681,-4.0352,-3.9328,-3.9076,-3.8644,-3.7762,-3.7704,-3.7715,-3.7715,-3.7715,-3.7428,-3.6772,-3.6764,-3.6425,-3.5718,-3.5718,-3.5718,-3.5718,-3.5708,-3.5708,-3.5708,-3.5649,-3.5618,-3.5607,-3.5601,-3.5604,-3.5591,-3.5547,-3.5509,-3.546,-3.5223,-3.5019,-3.483,-3.4728,-3.4539,-3.434,-4.57,-4.57,-4.5715,-4.5781,0.0,0.0,0.0,0.0,-4.58,-4.58,-4.58,-4.58,-4.58,0.0,0.0,0.0,0.0,0.0,-4.5893,0.0,-4.586,-4.58,-4.58,-4.58,-4.58,-4.58,-4.58,-4.58,-4.58,-4.58,-4.58,-4.58,-4.5805,0.0,-4.5731,0.0,-4.5709,0.0,-4.564,0.0,-4.5719,-4.5761,0.0,-4.58,-4.58,-4.58,-4.58,-4.5814,-4.5814,0.0,-4.5906,-4.5919,0.0,-4.4808,-4.3421,-4.3491,0.0,0.0,0.0,0.0,0.0,0.0,-4.0949,0.0,0.0,0.0,-4.0579,-4.0519,0.0,-4.0539,-4.0588,0.0,0.0,0.0,0.0,0.0,-3.9642,-3.956,-3.956,-3.956,-4.0177,-4.0003,-3.8402,-3.7597,-3.6829,-3.596,-3.5944,-3.5974,-3.5974,-3.5977,-3.595,-3.5854,-3.5921,-3.5881,-3.5791,-3.5784,-3.5784,-3.5791,-3.5727,-3.5737,-3.5794,-3.5708,-3.5649,-3.5607,-3.5596,-3.5612,-3.5591,-3.5591,-3.5554,-3.5479,-3.5273,-3.5141,-3.5035,-3.4791,-3.4645,-3.4517,-4.5765,-4.5765,-4.5781,-4.5791,0.0,0.0,0.0,0.0,0.0,0.0,0.0,0.0,0.0,0.0,0.0,0.0,0.0,-4.5899,0.0,0.0,0.0,-4.58,-4.58,-4.58,-4.58,-4.58,-4.58,-4.58,-4.58,-4.58,-4.5791,-4.5791,0.0,0.0,-4.5703,0.0,-4.5693,0.0,-4.564,0.0,0.0,0.0,0.0,-4.58,-4.58,-4.58,-4.58,-4.58,-4.5814,0.0,-4.586,0.0,0.0,0.0,0.0,0.0,0.0,0.0,0.0,0.0,0.0,0.0,0.0,0.0,-4.0807,0.0,-4.064,0.0,0.0,0.0,0.0,0.0,0.0,0.0,-4.0312,0.0,0.0,0.0,-3.9302,0.0,0.0,0.0,-3.7463,0.0,0.0,0.0,-3.5631,-3.5673,-3.5704,-3.5697,-3.5688,-3.5708,-3.5766,-3.5803,-3.5793,-3.5801,-3.5801,-3.5799,-3.5773,-3.5773,-3.5801,-3.5775,-3.5737,-3.5718,-3.5659,-3.5658,-3.5657,-3.5623,-3.5577,-3.5547,-3.5427,-3.5273,-3.5088,-3.4927,-3.479,-3.4623,-4.581,-4.581,-4.5791,-4.58,0.0,0.0,0.0,0.0,0.0,0.0,0.0,0.0,-4.5833,-4.5827,0.0,0.0,-4.5932,-4.5937,0.0,0.0,-4.5893,0.0,0.0,0.0,-4.5848,-4.5827,-4.58,-4.58,-4.58,-4.5805,-4.58,-4.58,0.0,0.0,0.0,-4.5693,-4.5657,0.0,-4.564,-4.5673,-4.5687,-4.5735,-4.5795,-4.5786,-4.58,-4.58,-4.58,-4.58,-4.58,-4.58,-4.5827,0.0,-4.5887,0.0,0.0,0.0,0.0,0.0,-4.0898,0.0,0.0,0.0,0.0,0.0,0.0,0.0,0.0,0.0,0.0,0.0,0.0,0.0,-4.0339,0.0,0.0,-4.0194,0.0,-3.9019,0.0,0.0,0.0,0.0,0.0,0.0,0.0,0.0,0.0,-3.562,-3.5673,-3.5667,-3.5688,-3.5698,-3.5757,-3.5803,-3.5793,-3.581,-3.5799,-3.5799,-3.5799,-3.5791,-3.5801,-3.5793,-3.5784,-3.5775,-3.5737,-3.5728,-3.5689,-3.5658,-3.5615,-3.5608,-3.5541,-3.5364,-3.5138,-3.5037,-3.487,-3.4708,-4.58,-4.58,-4.58,0.0,0.0,0.0,0.0,0.0,0.0,0.0,0.0,0.0,0.0,0.0,0.0,0.0,0.0,-4.6027,-4.6099,0.0,-4.5958,0.0,0.0,-4.5848,0.0,-4.588,-4.58,-4.58,-4.58,-4.5805,-4.58,-4.58,-4.577,0.0,-4.5709,-4.5657,-4.5603,-4.5586,-4.5586,-4.5622,-4.5657,-4.5738,-4.5795,0.0,-4.58,-4.58,-4.58,0.0,0.0,-4.58,-4.58,0.0,0.0,0.0,0.0,0.0,0.0,0.0,0.0,0.0,0.0,-4.0907,0.0,0.0,0.0,0.0,-4.0761,0.0,0.0,0.0,0.0,-4.0398,0.0,0.0,0.0,0.0,0.0,0.0,0.0,0.0,0.0,0.0,0.0,-3.5979,-3.5501,0.0,-3.556,-3.5596,-3.5601,-3.5596,-3.5629,-3.5708,-3.5766,-3.5793,-3.5791,-3.5791,-3.5799,-3.5799,-3.5799,-3.5801,-3.5803,-3.5801,-3.5754,-3.5708,-3.5775,-3.5757,-3.5707,-3.5707,-3.5654,-3.5604,-3.5591,-3.5463,-3.5285,-3.5072,-3.4927,-3.4753,-4.58,-4.58,-4.58,0.0,0.0,0.0,0.0,-4.58,0.0,0.0,-4.5936,0.0,0.0,-4.5959,-4.5988,0.0,0.0,-4.6083,-4.6107,-4.6017,0.0,0.0,0.0,-4.5848,0.0,0.0,0.0,0.0,0.0,-4.5771,-4.5731,-4.5731,-4.5703,0.0,0.0,-4.5622,0.0,0.0,0.0,0.0,0.0,-4.5738,-4.5795,0.0,-4.58,-4.58,-4.58,-4.58,0.0,-4.58,-4.58,-4.5814,-4.5887,-4.4705,-4.3342,-4.34,-4.2237,0.0,0.0,0.0,-4.0907,-4.0907,0.0,0.0,0.0,0.0,0.0,0.0,0.0,0.0,0.0,0.0,0.0,0.0,0.0,0.0,0.0,0.0,0.0,0.0,0.0,0.0,0.0,0.0,0.0,0.0,-3.5515,0.0,-3.5601,-3.5596,-3.5637,-3.5697,-3.5718,-3.5737,-3.5728,-3.5727,-3.5727,-3.5727,-3.5784,-3.5812,-3.5803,-3.5801,-3.5791,-3.5773,-3.5784,-3.5784,-3.5756,-3.5728,-3.5658,-3.5593,-3.5593,-3.5483,-3.53,-3.5174,-3.5019,-3.4831,-4.58,-4.58,0.0,0.0,0.0,0.0,0.0,0.0,0.0,0.0,-4.6008,0.0,-4.6024,0.0,-4.6018,0.0,-4.6091,-4.6091,-4.6092,-4.6059,0.0,-4.6123,-4.5996,0.0,0.0,0.0,0.0,0.0,0.0,-4.5771,-4.57,-4.57,-4.5668,0.0,0.0,-4.5586,-4.5586,-4.5586,-4.5586,0.0,0.0,-4.5742,0.0,0.0,-4.58,-4.58,0.0,-4.58,-4.58,-4.58,-4.58,-4.5814,-4.5893,-4.4724,-4.3342,-4.3388,-4.2207,-4.0908,-4.0898,-4.0907,0.0,-4.0907,-4.0917,0.0,-4.0907,0.0,0.0,0.0,0.0,0.0,0.0,0.0,0.0,0.0,0.0,0.0,0.0,-3.7295,0.0,0.0,0.0,0.0,0.0,0.0,0.0,-3.5495,-3.5509,-3.5534,0.0,0.0,-3.5635,-3.5695,-3.5698,-3.5708,-3.5698,-3.5699,-3.5708,-3.5737,-3.5775,-3.5803,-3.5803,-3.5801,-3.5791,-3.5801,-3.5793,-3.5801,-3.5782,-3.5727,-3.5659,-3.5607,-3.5574,-3.5464,-3.5315,-3.5239,-3.5035,-3.4771,-4.58,-4.58,0.0,0.0,-4.58,0.0,0.0,0.0,-4.5998,0.0,-4.6007,-4.6033,-4.6088,-4.6056,-4.6027,-4.6091,-4.6105,-4.6092,-4.6093,-4.6093,0.0,0.0,-4.6147,-4.6133,-4.6195,0.0,0.0,0.0,0.0,0.0,0.0,0.0,0.0,0.0,-4.5586,0.0,-4.5586,-4.5586,-4.5586,-4.5622,-4.5693,-4.569,-4.5706,-4.5781,-4.5805,-4.5814,-4.58,-4.58,-4.58,-4.58,-4.58,-4.5814,-4.5893,-4.4756,-4.3385,-4.34,-4.2228,-4.0897,-4.0907,-4.0907,-4.0907,-4.0888,0.0,0.0,0.0,0.0,-4.096,0.0,0.0,0.0,0.0,0.0,0.0,0.0,0.0,0.0,0.0,0.0,0.0,0.0,0.0,0.0,0.0,0.0,-3.5364,-3.5493,-3.5493,-3.5534,0.0,0.0,-3.5639,-3.5678,-3.5707,-3.5698,-3.5699,-3.5699,-3.5737,-3.5794,-3.5794,-3.5794,-3.5803,-3.5801,-3.5801,-3.5803,-3.5801,-3.5801,-3.5803,-3.5737,-3.5659,-3.5596,-3.5534,-3.5463,-3.5364,-3.5251,-3.4981,-3.4645,-4.58,-4.58,-4.58,0.0,-4.58,-4.5814,0.0,0.0,0.0,0.0,-4.6073,-4.6072,-4.6098,-4.6125,-4.6131,-4.6105,-4.616,0.0,0.0,0.0,0.0,-4.6265,-4.6167,-4.6133,-4.6195,-4.6076,0.0,-4.5997,0.0,0.0,-4.5765,0.0,0.0,0.0,0.0,-4.5586,-4.5586,-4.5586,-4.5586,-4.5603,-4.5731,-4.5771,-4.5775,0.0,-4.5956,-4.5937,-4.5841,-4.58,-4.58,-4.58,-4.58,-4.5814,-4.5893,-4.4758,-4.3394,-4.3402,-4.2256,-4.0953,-4.0906,-4.0907,-4.0917,-4.0952,-4.0988,-4.1003,0.0,0.0,0.0,0.0,0.0,0.0,0.0,0.0,0.0,0.0,0.0,0.0,0.0,0.0,0.0,-3.5202,0.0,0.0,0.0,-3.5273,-3.5373,-3.5493,-3.546,-3.5488,-3.5591,0.0,0.0,-3.5623,-3.5665,-3.5676,-3.5635,-3.5676,-3.5716,-3.5736,-3.5737,-3.5737,-3.5737,-3.5784,-3.5793,-3.5801,-3.5793,-3.5803,-3.5803,-3.5737,-3.5659,-3.5607,-3.5581,-3.5443,-3.5242,-3.5035,-3.4926,-3.4811,-4.58,-4.5814,0.0,-4.5854,0.0,0.0,-4.5941,-4.5968,0.0,-4.6092,-4.6133,0.0,-4.6147,-4.6191,-4.6183,-4.6156,-4.6186,0.0,-4.6191,0.0,0.0,-4.6267,-4.6208,-4.6204,-4.6249,-4.6138,0.0,-4.6084,0.0,0.0,-4.5841,0.0,0.0,0.0,0.0,-4.564,-4.5603,-4.5651,-4.5684,-4.57,-4.5802,-4.584,0.0,-4.5969,-4.5988,-4.5988,-4.5947,-4.5902,-4.5886,-4.5925,-4.5936,-4.5859,-4.553,-4.4519,-4.3408,-4.3027,-4.202,-4.0989,-4.0955,-4.0942,-4.0961,-4.0986,-4.1026,-4.1039,-4.1013,-4.1013,-4.1031,0.0,0.0,0.0,0.0,0.0,0.0,0.0,0.0,0.0,0.0,0.0,0.0,0.0,-3.5054,0.0,0.0,-3.5242,-3.5358,-3.5493,-3.5446,-3.5455,0.0,0.0,0.0,-3.5643,-3.5673,-3.5684,-3.5643,-3.5673,-3.5695,-3.5706,-3.5697,-3.5728,-3.5747,-3.5775,-3.5793,-3.5791,-3.5801,-3.5793,-3.5803,-3.5737,-3.5659,-3.5596,-3.5457,-3.5311,-3.5141,-3.4927,-3.4869,-3.481,-4.5814,0.0,0.0,0.0,0.0,0.0,0.0,-4.6021,0.0,-4.6104,0.0,-4.6209,-4.6202,-4.6206,-4.62,-4.6191,0.0,-4.6211,-4.6211,-4.628,-4.6276,-4.6211,-4.6264,-4.6295,-4.6301,-4.6228,-4.6192,0.0,0.0,0.0,0.0,0.0,0.0,0.0,0.0,0.0,0.0,-4.5742,-4.5814,-4.5822,-4.5897,-4.594,-4.592,-4.6013,-4.6021,-4.6041,-4.6105,-4.6088,-4.6008,-4.6076,-4.602,-4.5806,-4.5039,-4.4175,-4.3285,-4.252,-4.1679,-4.1016,-4.0994,-4.0991,-4.1003,-4.1003,-4.1066,-4.1081,-4.1026,-4.105,-4.1105,-4.11,-4.1042,-4.1042,0.0,0.0,0.0,0.0,0.0,0.0,0.0,0.0,0.0,0.0,0.0,0.0,0.0,0.0,-3.5358,-3.5479,-3.5427,0.0,0.0,0.0,0.0,-3.5704,-3.5704,-3.5704,-3.5684,0.0,-3.5706,-3.5707,-3.5688,-3.5737,-3.5794,-3.5803,-3.5793,-3.5799,-3.5791,-3.5801,-3.5775,-3.5708,-3.5639,-3.5562,-3.5321,-3.5152,-3.5053,-3.4869,-3.4768,-3.4666,-4.586,0.0,0.0,0.0,0.0,-4.6029,-4.6059,-4.6124,-4.6175,-4.6183,-4.6182,-4.6207,-4.6206,-4.6204,-4.6191,-4.6191,-4.6243,0.0,0.0,0.0,0.0,-4.6273,-4.6293,-4.6295,-4.6301,-4.6228,-4.6192,0.0,0.0,0.0,0.0,0.0,0.0,0.0,0.0,0.0,-4.5771,-4.58,0.0,-4.5878,-4.6024,-4.6064,-4.6072,-4.6201,-4.6216,-4.6164,-4.6248,-4.6182,-4.608,-4.6091,-4.5611,-4.5,-4.4844,-4.3748,-4.25,-4.2334,-4.1716,-4.1072,-4.1019,-4.0991,-4.1013,-4.1077,-4.1086,-4.1107,-4.1099,-4.1082,-4.1103,-4.1108,-4.1081,-4.1097,-4.1105,0.0,0.0,0.0,0.0,0.0,0.0,0.0,0.0,0.0,0.0,-3.5249,0.0,0.0,0.0,0.0,0.0,0.0,0.0,0.0,0.0,0.0,-3.5673,0.0,0.0,0.0,-3.5707,-3.5707,-3.5708,-3.5708,-3.5718,-3.5775,-3.5793,-3.5791,-3.5793,-3.5775,-3.5708,-3.5639,-3.557,-3.5515,-3.5345,-3.5171,-3.5001,-3.4851,-3.4628,-3.4381,-4.5944,0.0,0.0,0.0,0.0,0.0,0.0,-4.6211,-4.6249,-4.6207,-4.619,-4.6191,-4.6205,-4.623,-4.6243,-4.6243,-4.627,-4.63,-4.63,-4.63,-4.63,-4.63,-4.6303,-4.6293,-4.6301,-4.6269,-4.6248,-4.6243,0.0,0.0,0.0,0.0,0.0,-4.594,0.0,-4.5623,0.0,0.0,0.0,-4.5343,-4.5481,-4.5802,-4.6201,-4.627,-4.627,-4.6261,-4.6285,-4.5968,-4.5527,-4.5539,-4.5246,-4.4758,-4.384,-4.2999,-4.2265,-4.1811,-4.1406,-4.1089,-4.1054,-4.1054,-4.1055,-4.1093,-4.1094,-4.1093,-4.1092,-4.1093,-4.1094,-4.1093,-4.1093,-4.111,-4.1108,-4.1042,0.0,0.0,0.0,0.0,0.0,0.0,0.0,0.0,0.0,0.0,0.0,0.0,0.0,0.0,0.0,0.0,0.0,0.0,0.0,0.0,0.0,0.0,0.0,0.0,0.0,-3.5707,-3.5698,-3.5718,-3.5747,-3.5794,-3.5803,-3.5793,-3.5803,-3.5737,-3.5639,-3.5574,-3.5483,-3.5379,-3.5203,-3.5034,-3.487,-3.4751,-3.452,-3.4269,0.0,-4.6037,0.0,0.0,-4.6167,0.0,-4.6191,-4.6261,-4.627,-4.6229,-4.6229,-4.6229,-4.6229,-4.6276,-4.63,-4.63,-4.63,-4.63,-4.63,-4.63,-4.63,-4.63,-4.63,-4.6306,-4.63,-4.63,-4.6305,0.0,0.0,0.0,0.0,0.0,0.0,0.0,0.0,0.0,0.0,0.0,-4.4644,-4.4857,-4.4961,-4.5526,-4.6293,-4.63,-4.6301,-4.6284,-4.6093,-4.5585,-4.494,-4.457,-4.4453,-4.4219,-4.2832,-4.2264,-4.1986,-4.1301,-4.1099,-4.1108,-4.1108,-4.1108,-4.1094,-4.1091,-4.1105,-4.1099,-4.1093,-4.1091,-4.1103,-4.1107,-4.1107,-4.1091,-4.111,-4.1107,0.0,0.0,0.0,0.0,0.0,0.0,0.0,0.0,0.0,0.0,-3.5611,0.0,0.0,0.0,0.0,0.0,-3.5502,0.0,0.0,0.0,0.0,-3.5643,-3.5684,0.0,-3.5676,-3.5707,-3.5707,-3.5728,-3.5785,-3.5775,-3.5775,-3.5775,-3.5785,-3.5708,-3.5585,-3.5496,-3.5388,-3.5285,-3.5051,-3.4889,-3.4792,-3.4604,-3.4427,-3.4179,0.0,0.0,0.0,0.0,0.0,0.0,-4.6191,-4.6261,-4.6303,-4.6287,-4.6287,-4.6287,-4.6287,-4.6303,-4.63,-4.63,-4.63,-4.63,-4.63,-4.63,-4.63,-4.63,-4.63,-4.6306,-4.6293,-4.6293,-4.63,0.0,0.0,-4.5831,0.0,0.0,0.0,0.0,0.0,0.0,0.0,-4.3624,-4.4142,-4.4985,-4.4998,-4.5512,-4.6293,-4.63,-4.6301,-4.6204,-4.5407,-4.5076,-4.4764,-4.3183,-4.2637,-4.2617,-4.244,-4.1852,-4.1205,-4.1121,-4.1094,-4.1108,-4.1108,-4.1108,-4.1111,-4.1094,-4.1097,-4.1109,-4.1097,-4.1091,-4.1104,-4.1105,-4.1107,-4.1108,-4.111,-4.109,-4.1093,0.0,0.0,0.0,0.0,0.0,-3.589,-3.5889,0.0,0.0,0.0,-3.5685,0.0,0.0,-3.5451,0.0,0.0,0.0,0.0,-3.5604,0.0,-3.5593,-3.5607,-3.5607,-3.5637,-3.5707,-3.5707,-3.5688,-3.5718,-3.5718,-3.5708,-3.5708,-3.5708,-3.5665,-3.5591,-3.5388,-3.532,-3.5277,-3.4945,-3.4812,-3.4753,-3.4435,-3.4197,-3.3954,0.0,0.0,0.0,0.0,0.0,0.0,0.0,-4.7364,-4.7081,-4.7081,-4.6612,-4.63,-4.63,-4.63,-4.63,-4.63,-4.63,-4.63,-4.63,-4.63,-4.63,-4.63,-4.63,-4.6303,-4.6293,-4.6293,-4.63,0.0,0.0,0.0,0.0,0.0,0.0,0.0,0.0,-4.3306,-4.2848,-4.2842,-4.3372,-4.4223,-4.4228,-4.5067,-4.6241,-4.5717,-4.5523,-4.5407,-4.453,-4.3886,-4.3339,-4.2637,-4.2402,-4.2304,-4.1776,-4.1383,-4.1107,-4.1101,-4.1094,-4.1108,-4.1108,-4.1108,-4.1108,-4.1108,-4.1094,-4.1096,-4.1094,-4.1096,-4.1106,-4.11,-4.11,-4.1109,-4.1108,-4.1091,-4.1099,0.0,0.0,0.0,0.0,0.0,0.0,-3.596,0.0,-3.594,0.0,0.0,0.0,0.0,0.0,0.0,0.0,0.0,0.0,-3.5604,0.0,-3.5688,-3.5665,-3.6182,-3.6193,-3.5707,-3.619,-3.6162,-3.5689,-3.5699,-3.5669,-3.5639,-3.5635,-3.5596,-3.5534,-3.5364,-3.5242,-3.5088,-3.487,-3.4752,-3.4628,-3.4213,-3.3943,-3.3634,-4.6959,0.0,-4.783,0.0,-4.8395,-4.8801,-4.8802,-4.8115,-4.7608,-4.7608,-4.6846,-4.63,-4.63,-4.63,-4.63,-4.63,-4.63,-4.63,-4.63,-4.63,-4.63,-4.63,-4.63,0.0,-4.6309,-4.6309,-4.6295,-4.6305,-4.6305,0.0,0.0,0.0,0.0,0.0,-4.3162,-4.2595,-4.2029,-4.2026,-4.2669,-4.3685,-4.3411,-4.437,-4.5815,-4.4959,-4.4628,-4.4491,-4.3633,-4.293,-4.2363,-4.2109,-4.2012,-4.1914,-4.1287,-4.1108,-4.1103,-4.1099,-4.1094,-4.1108,-4.1108,-4.1108,-4.1108,-4.1108,-4.1094,-4.1091,-4.1091,-4.1089,-4.111,-4.111,-4.111,-4.1097,-4.1091,-4.1096,-4.1012,-4.0765,0.0,0.0,0.0,0.0,0.0,0.0,-3.5996,-3.5996,-3.6007,-3.591,0.0,0.0,0.0,0.0,0.0,0.0,0.0,0.0,0.0,0.0,-3.5707,-3.6289,-3.6415,-3.6065,-3.6632,-3.674,-3.6434,-3.6182,-3.588,-3.5596,-3.5577,-3.556,-3.5515,-3.5304,-3.5141,-3.4999,-3.4675,-3.4483,-3.4344,-3.3949,-3.3616,-3.3288,-4.8769,-4.878,-4.8779,-4.8779,-4.8798,-4.8798,-4.8798,-4.8115,-4.7608,-4.7608,-4.6846,-4.63,-4.63,-4.63,-4.63,-4.63,-4.63,-4.63,-4.63,-4.63,-4.63,0.0,0.0,-4.63,-4.63,-4.63,-4.6306,-4.6293,0.0,0.0,-4.4979,0.0,-4.289,-4.3613,-4.1892,-4.1128,-4.1111,-4.1128,-4.2122,-4.3626,-4.2751,-4.3455,-4.492,-4.4043,-4.3711,-4.3594,-4.2734,-4.2402,-4.2266,-4.1405,-4.1112,-4.1111,-4.1108,-4.1103,-4.1097,-4.1091,-4.1108,-4.1108,-4.1108,-4.1108,-4.1108,-4.1108,-4.1094,-4.1091,-4.1091,-4.1089,-4.111,-4.111,-4.111,-4.111,-4.111,-4.111,-4.0817,-3.9958,0.0,0.0,0.0,0.0,0.0,-3.5995,-3.5995,-3.5994,-3.5992,-3.6007,0.0,0.0,0.0,0.0,0.0,0.0,0.0,-3.5696,-3.5702,0.0,-3.5697,-3.5637,-3.6049,-3.6884,-3.6887,-3.7351,-3.8141,-3.7274,-3.6412,-3.5601,-3.554,-3.5547,-3.5579,-3.5168,-3.5034,-3.5016,-3.4228,-3.3906,-3.388,-3.3688,-3.3325,-3.2867,-4.8794,-4.9274,-4.9696,-4.9696,-5.0184,-5.0575,-5.0575,-4.9345,-4.8427,-4.8427,-4.7174,-4.6288,-4.6288,-4.6296,-4.6296,0.0,-4.6288,-4.6288,0.0,-4.6288,-4.6292,-4.63,-4.63,-4.63,-4.63,-4.63,-4.6303,-4.6293,0.0,0.0,0.0,-4.4433,-4.4004,-4.3672,-4.3124,-4.2871,-4.2871,-4.2871,-4.3183,-4.3671,-4.3398,-4.3613,-4.4023,-4.3144,-4.2812,-4.2715,-4.1875,-4.1582,-4.1523,-4.121,-4.1091,-4.1108,-4.1103,-4.1101,-4.1097,-4.1091,-4.1108,-4.1108,-4.1108,-4.1108,-4.1108,-4.1108,-4.1094,-4.1091,-4.1091,-4.1089,-4.111,-4.111,-4.111,-4.111,-4.111,-4.0584,-4.0052,-3.9779,-3.8494,0.0,0.0,0.0,0.0,-3.5991,-3.6009,-3.5993,-3.5995,-3.5993,0.0,0.0,0.0,0.0,0.0,0.0,0.0,0.0,-3.5869,0.0,-3.5704,-3.6304,-3.6444,-3.6091,-3.6636,-3.6733,-3.6424,-3.6153,-3.5859,-3.5596,-3.5572,-3.5489,-3.5374,-3.5171,-3.4999,-3.4851,-3.4505,-3.439,-3.4279,-3.3597,-3.2991,-3.237,-4.9774,-5.0204,-5.0594,-5.0594,-5.1043,-5.1394,-5.141,-4.9926,-4.879,-4.8806,-4.7318,-4.626,-4.626,-4.6264,0.0,-4.626,-4.626,-4.626,-4.626,-4.6284,-4.6308,-4.6296,-4.63,-4.63,-4.63,-4.63,0.0,-4.6309,-4.6297,-4.6012,-4.5488,-4.5156,-4.4707,-4.418,-4.3848,-4.3691,-4.3691,-4.3691,-4.3691,-4.3672,-4.334,-4.3203,-4.3125,-4.2266,-4.1953,-4.1875,-4.1346,-4.1147,-4.1105,-4.1049,-4.1019,-4.0988,-4.0994,-4.0989,-4.0998,-4.1081,-4.1108,-4.1108,-4.1108,-4.1108,-4.1108,-4.1108,-4.1094,-4.1091,-4.11,-4.1103,-4.111,-4.111,-4.111,-4.0994,-4.0662,-4.011,-3.9485,-3.8824,-3.7817,-3.6985,-3.6654,0.0,0.0,0.0,0.0,0.0,0.0,-3.5956,-3.5957,0.0,0.0,0.0,0.0,0.0,0.0,-3.5877,-3.5925,0.0,-3.578,-3.6339,-3.6482,-3.6239,-3.7036,-3.6953,-3.6084,-3.6052,-3.5886,-3.5591,-3.556,-3.5476,-3.5315,-3.5155,-3.5,-3.4793,-3.4461,-3.4344,-3.4279,-3.366,-3.2877,-3.1933,-5.1394,-5.1394,-5.139,0.0,-5.139,0.0,-5.1318,-4.9874,-4.8777,-4.8722,-4.724,-4.6206,-4.6206,-4.6206,-4.6206,-4.6206,0.0,0.0,0.0,-4.6255,-4.6303,-4.6303,-4.6296,-4.63,-4.63,-4.63,-4.63,-4.6296,-4.6273,-4.6261,-4.6246,-4.5447,-4.5077,-4.5038,-4.4238,-4.3867,-4.3867,-4.3867,-4.3808,-4.3613,-4.2792,-4.2402,-4.2226,-4.1464,-4.1171,-4.117,-4.1116,-4.1039,-4.0983,-4.0909,-4.0843,-4.0807,-4.08,-4.081,-4.0846,-4.1018,-4.1081,-4.1081,-4.1081,-4.1085,-4.1085,-4.1085,-4.1109,-4.1106,-4.1097,-4.111,-4.111,-4.111,-4.111,-4.0838,-3.9961,-3.9701,-3.905,-3.7377,-3.7047,-3.6723,-3.5907,0.0,0.0,0.0,0.0,0.0,0.0,-3.5868,-3.5882,0.0,0.0,0.0,0.0,0.0,-3.5935,-3.5996,-3.5948,-3.5901,-3.5906,-3.5849,-3.6206,-3.701,-3.777,-3.7667,-3.6822,-3.6748,-3.633,-3.5596,-3.5528,-3.5463,-3.5364,-3.5171,-3.5018,-3.4812,-3.4176,-3.3825,-3.3674,-3.3621,-3.2629,-3.1278,0.0,0.0,-5.1405,-5.1405,-5.1405,-5.1191,-5.0503,-4.9488,-4.8566,-4.7883,-4.6877,-4.6189,-4.6189,-4.6196,-4.619,-4.619,-4.6203,-4.6189,-4.6189,-4.6215,-4.6245,-4.6303,-4.6308,-4.6292,-4.63,-4.63,-4.6249,-4.6142,-4.604,-4.5986,-4.5988,-4.5845,-4.576,-4.576,-4.5596,-4.5518,-4.5518,-4.5518,-4.4763,-4.3534,-4.3319,-4.2481,-4.1306,-4.1111,-4.1028,-4.0959,-4.0947,-4.0909,-4.085,-4.0832,-4.0816,-4.0807,-4.08,-4.081,-4.082,-4.0863,-4.0879,-4.0879,-4.0879,-4.0954,-4.1011,-4.1019,-4.105,-4.1095,-4.1097,-4.111,-4.111,-4.111,-4.111,-4.0838,-3.9961,-3.9194,-3.835,-3.7272,-3.6492,-3.596,-3.5747,-3.5773,0.0,0.0,-3.5807,-3.5801,-3.5791,-3.5807,-3.5812,0.0,0.0,0.0,0.0,-3.5957,-3.5973,-3.5996,-3.5976,-3.5954,-3.5908,-3.5874,-3.5947,-3.6109,-3.6307,-3.628,-3.6064,-3.5989,-3.5853,-3.5679,-3.5604,-3.5424,-3.5165,-3.5133,-3.4925,-3.4647,-3.4498,-3.3154,-3.1257,-3.0903,-2.971,-2.8218,-5.1405,-5.14,-5.1394,-5.1394,-5.1394,-5.1121,-5.0231,-4.9354,-4.8496,-4.7612,-4.6742,-4.619,-4.619,-4.6203,-4.6196,-4.6196,-4.6209,-4.619,-4.619,-4.6203,-4.6215,-4.6255,-4.622,-4.6215,-4.6211,-4.6144,-4.6072,-4.6002,-4.5939,-4.5891,-4.59,-4.5946,-4.5955,-4.5955,-4.599,-4.6037,-4.6045,-4.6018,-4.5044,-4.3493,-4.3467,-4.2427,-4.0909,-4.0909,-4.0882,-4.0855,-4.0816,-4.0781,-4.0752,-4.0729,-4.0696,-4.0665,-4.066,-4.0648,-4.0648,-4.0648,-4.0729,-4.081,-4.081,-4.0846,-4.0898,-4.0866,-4.0885,-4.0932,-4.0926,-4.0917,-4.0917,-4.0917,-4.0917,-4.0528,-3.9265,-3.8627,-3.789,-3.6629,-3.5999,-3.5688,-3.5688,-3.5737,0.0,-3.5754,-3.5754,-3.5743,-3.5749,-3.5748,-3.5755,-3.576,-3.5827,0.0,-3.5856,-3.5918,-3.5974,-3.5996,-3.5996,-3.5976,-3.5956,-3.5955,-3.5906,-3.5845,-3.5845,-3.5831,-3.58,-3.5767,-3.5753,-3.5733,-3.5669,-3.5516,-3.5282,-3.5174,-3.4978,-3.4597,-3.3253,-3.1804,-3.0332,-2.8766,-2.7334,-2.6179,-5.1356,-5.1362,-5.1388,-5.1388,-5.1291,-5.0888,-4.999,-4.9133,-4.8275,-4.7389,-4.6629,-4.6162,-4.6162,-4.6127,-4.6119,-4.6119,-4.6119,-4.6146,-4.6181,-4.6176,-4.617,-4.6138,-4.6088,-4.6052,-4.6057,-4.593,-4.5867,-4.5867,-4.5859,-4.585,-4.585,-4.5881,-4.5872,-4.5872,-4.5872,-4.591,-4.5948,-4.5881,-4.4938,-4.3458,-4.3393,-4.2334,-4.0779,-4.0779,-4.0779,-4.0761,-4.071,-4.0672,-4.0662,-4.0598,-4.0558,-4.0489,-4.0489,-4.0489,-4.0489,-4.0489,-4.0617,-4.0751,-4.0751,-4.0742,-4.0742,-4.071,-4.0696,-4.0711,-4.0706,-4.0694,-4.0694,-4.0694,-4.0694,-4.0152,-3.84,-3.8117,-3.7607,-3.5878,-3.5623,-3.5662,-3.5695,0.0,-3.5673,-3.5704,-3.5704,-3.5704,-3.5704,-3.5689,-3.5678,-3.5679,-3.5741,-3.5762,-3.5768,-3.5827,-3.589,-3.5954,-3.5976,-3.5995,-3.5991,-3.5991,-3.5976,-3.5923,-3.5927,-3.5896,-3.5836,-3.5827,-3.5821,-3.5816,-3.5741,-3.5639,-3.5502,-3.5325,-3.5127,-3.4641,-3.1686,-3.0276,-2.9592,-2.6714,-2.5046,-2.4346,-5.1142,-5.1237,-5.1328,-5.1328,-5.0704,-4.9882,-4.8905,-4.8143,-4.735,-4.6367,-4.6124,-4.6027,-4.6027,-4.5883,-4.577,-4.577,-4.577,-4.584,-4.6017,-4.6027,-4.5988,-4.5871,-4.5859,-4.584,-4.5856,-4.5777,-4.5728,-4.5728,-4.5677,-4.5648,-4.5648,-4.5696,-4.5731,-4.5731,-4.5723,-4.5752,-4.5752,-4.5737,-4.4785,-4.3258,-4.3225,-4.2182,-4.0636,-4.0636,-4.0642,-4.0621,-4.0626,-4.0564,-4.0534,-4.0519,-4.0504,-4.0489,-4.0489,-4.0489,-4.0489,-4.0489,-4.0523,-4.0558,-4.0558,-4.0545,-4.0577,-4.066,-4.0699,-4.0706,-4.0694,-4.0694,-4.0694,-4.0694,-4.0694,-4.014,-3.8356,-3.8016,-3.7495,-3.5861,-3.547,-3.5438,-3.5669,0.0,-3.5565,-3.5693,-3.5704,-3.5704,-3.5704,-3.5646,-3.5623,-3.562,-3.5621,-3.563,-3.5631,-3.5694,-3.5729,-3.5741,-3.5916,-3.5992,-3.5991,-3.5991,-3.5994,-3.5976,-3.5976,-3.5976,-3.5976,-3.5901,-3.588,-3.588,-3.5807,-3.5688,-3.55,-3.547,-3.5341,-3.4867,-3.1909,-2.9308,-2.6841,-2.3906,-2.2191,-2.1315,-5.0953,-5.0979,-5.0899,-5.0452,-5.0045,-4.9314,-4.7915,-4.7427,-4.6907,-4.5963,-4.5847,-4.5847,-4.5847,-4.5764,-4.5703,-4.5703,-4.5703,-4.5703,-4.5728,-4.5796,-4.5835,-4.5796,-4.5728,-4.5654,-4.5587,-4.5541,-4.5563,-4.5596,-4.5566,-4.5568,-4.5586,-4.564,-4.564,-4.564,-4.5654,-4.5671,-4.5706,-4.5671,-4.4688,-4.3142,-4.315,-4.211,-4.0549,-4.0549,-4.0554,-4.0558,-4.0558,-4.0523,-4.0489,-4.0489,-4.0489,-4.0489,-4.0511,-4.0495,-4.0495,-4.0463,-4.0463,-4.0502,-4.0468,-4.0411,-4.0406,-4.0466,-4.0485,-4.0492,-4.0492,-4.0492,-4.0492,-4.0492,-4.0457,-4.0021,-3.8738,-3.8127,-3.7437,-3.6224,-3.5609,0.0,0.0,-3.5424,-3.5416,-3.5489,-3.554,-3.5584,-3.5534,-3.5589,-3.5589,-3.556,-3.5581,-3.5585,-3.5562,-3.5621,-3.5646,-3.5655,-3.5846,-3.5949,-3.5952,-3.5984,-3.5991,-3.5995,-3.5994,-3.5993,-3.5993,-3.5934,-3.5897,-3.5898,-3.5868,-3.574,-3.5542,-3.5435,-3.5346,-3.4956,-3.197,-2.9068,-2.6254,-2.3382,-2.1001,-1.9314,-5.0761,-5.0639,-5.0326,-4.9722,-4.9257,-4.8527,-4.7163,-4.681,-4.6457,-4.5757,-4.5645,-4.5645,-4.5645,-4.5634,-4.5619,-4.5619,-4.5619,-4.5555,-4.5455,-4.5539,-4.5634,-4.5684,-4.5596,-4.5494,-4.5381,-4.5381,-4.5419,-4.5477,-4.5476,-4.5513,-4.5568,-4.5568,-4.5586,-4.5586,-4.5586,-4.564,-4.5657,-4.5622,-4.4622,-4.3096,-4.3102,-4.2066,-4.0489,-4.0489,-4.0489,-4.0489,-4.0489,-4.0489,-4.0489,-4.0489,-4.0508,-4.0492,-4.0499,-4.0502,-4.0485,-4.0415,-4.0432,-4.0449,-4.0379,-4.0344,-4.0308,-4.0308,-4.0291,-4.031,-4.031,-4.031,-4.031,-4.031,-4.0253,-3.9929,-3.9052,-3.8365,-3.7678,-3.6852,0.0,0.0,0.0,-3.586,-3.5844,-3.5875,-3.5777,-3.5685,-3.5638,-3.5507,-3.5438,-3.5443,-3.5476,-3.5509,-3.5489,-3.555,-3.5568,-3.554,-3.5741,-3.5855,-3.5855,-3.5942,-3.5957,-3.5923,-3.596,-3.5979,-3.596,-3.5892,-3.588,-3.5888,-3.5879,-3.5773,-3.5583,-3.5427,-3.5331,-3.4995,-3.1911,-2.9382,-2.7145,-2.4239,-2.1345,-1.9051,-5.0606,-5.0113,-4.9683,-4.9606,-4.8271,-4.7105,-4.6848,-4.6233,-4.5737,-4.5541,-4.5507,-4.5507,-4.5507,-4.54,-4.5339,-4.5339,-4.5339,-4.5319,-4.5338,-4.5319,-4.5339,-4.5339,-4.5319,-4.5317,-4.5317,-4.5359,-4.5399,-4.5418,-4.54,-4.5438,-4.5513,-4.5513,-4.5531,-4.5586,-4.5586,-4.5603,-4.5622,-4.5586,-4.4624,-4.3104,-4.3104,-4.2066,-4.0489,-4.0489,-4.0489,-4.0489,-4.0489,-4.0489,-4.0489,-4.0489,-4.0511,-4.0502,-4.0502,-4.0449,-4.0415,-4.0415,-4.0362,-4.0325,-4.0307,-4.029,-4.031,-4.031,-4.031,-4.031,-4.031,-4.031,-4.031,-4.031,-4.0253,-3.9909,-3.8975,-3.8765,-3.848,-3.7729,0.0,0.0,-3.7648,-3.7553,-3.7484,-3.7587,-3.6865,-3.6334,-3.6317,-3.5488,-3.503,-3.5216,-3.5239,-3.5304,-3.5493,-3.5501,-3.5488,-3.5422,-3.5611,-3.5706,-3.5704,-3.5833,-3.5855,-3.5723,-3.5846,-3.5875,-3.58,-3.5813,-3.5816,-3.581,-3.5802,-3.5728,-3.5591,-3.5578,-3.5474,-3.4986,-3.1694,-3.0294,-2.9755,-2.6689,-2.3796,-2.1457,-4.8867,-4.8642,-4.8298,-4.778,-4.7146,-4.6494,-4.5937,-4.563,-4.5438,-4.5381,-4.538,-4.5361,-4.5321,-4.5319,-4.5297,-4.5235,-4.5275,-4.5297,-4.5235,-4.5254,-4.5275,-4.5297,-4.5297,-4.5297,-4.5297,-4.5317,-4.5359,-4.5398,-4.5399,-4.54,-4.5438,-4.5438,-4.5438,-4.5476,-4.5476,-4.5495,-4.5512,-4.4957,-4.4074,-4.2994,-4.2456,-4.1517,-4.0447,-4.0479,-4.0479,-4.0447,-4.0447,-4.0447,-4.0447,-4.0447,-4.043,-4.0432,-4.0396,-4.0252,-4.0061,-3.9897,-3.9832,-3.981,-3.981,-4.0058,-4.031,-4.031,-4.031,-4.031,-4.031,-4.031,-4.0291,-4.0253,-4.0176,-4.0022,-3.9619,-3.9104,-3.8646,-3.8384,0.0,-3.7451,-3.7566,-3.7509,-3.749,-3.7547,-3.7243,-3.7034,-3.7015,-3.6198,-3.5685,-3.5741,-3.5304,-3.5054,-3.5124,-3.5207,-3.5304,-3.5398,-3.5425,-3.5492,-3.5588,-3.5704,-3.5718,-3.5571,-3.5624,-3.5687,-3.5741,-3.5648,-3.5657,-3.5733,-3.5687,-3.5581,-3.5414,-3.5408,-3.5225,-3.4799,-3.3558,-3.1863,-3.0019,-2.8851,-2.6424,-2.3797,-4.7754,-4.7522,-4.7159,-4.6568,-4.6225,-4.5884,-4.533,-4.5254,-4.5254,-4.5254,-4.5254,-4.5213,-4.517,-4.5213,-4.5213,-4.517,-4.5213,-4.5213,-4.517,-4.517,-4.5192,-4.5275,-4.5275,-4.5275,-4.5297,-4.5297,-4.5256,-4.5216,-4.5216,-4.5197,-4.5118,-4.5118,-4.4987,-4.4741,-4.4741,-4.4628,-4.4401,-4.3806,-4.308,-4.2298,-4.1705,-4.0922,-4.0158,-4.0196,-4.0196,-4.0158,-4.0158,-4.0158,-4.0158,-4.0158,-4.0139,-4.012,-4.0061,-3.992,-3.9747,-3.9556,-3.9483,-3.9439,-3.9439,-3.9698,-3.9977,-4.0017,-4.0098,-4.0137,-4.0137,-4.0176,-4.0234,-4.0176,-4.0117,-4.0057,-3.9996,-3.9499,-3.9077,-3.9077,-3.8584,-3.8186,-3.8186,-3.8186,-3.8165,-3.8126,-3.7858,-3.7686,-3.7618,-3.6581,-3.5939,-3.6,-3.5264,-3.4812,-3.487,-3.4963,-3.5053,-3.5155,-3.5187,-3.5232,-3.5268,-3.5523,-3.557,-3.5446,-3.548,-3.5491,-3.5502,-3.5405,-3.54,-3.5488,-3.55,-3.5372,-3.5174,-3.5273,-3.5095,-3.4736,-3.4557,-3.316,-3.1233,-3.1139,-2.9027,-2.6273,-4.7581,-4.693,-4.6397,-4.6397,-4.5673,-4.5103,-4.5103,-4.5103,-4.5103,-4.5103,-4.5103,-4.5103,-4.5103,-4.5103,-4.5103,-4.5103,-4.5103,-4.5084,-4.5103,-4.5103,-4.5125,-4.5192,-4.5192,-4.5233,-4.5297,-4.5297,-4.5132,-4.48,-4.48,-4.4701,-4.4493,-4.4474,-4.4056,-4.3303,-4.3284,-4.285,-4.21,-4.21,-4.1628,-4.091,-4.0892,-4.0377,-3.9599,-3.9599,-3.9599,-3.9599,-3.9599,-3.9599,-3.9599,-3.9599,-3.9552,-3.9481,-3.95,-3.9494,-3.9483,-3.9483,-3.9414,-3.9282,-3.9282,-3.9231,-3.9249,-3.9458,-3.9647,-3.9804,-3.9804,-3.9954,-4.0077,-4.0096,-4.0057,-3.9996,-3.9996,-3.9933,-3.9889,-3.9889,-3.9889,-3.9889,-3.9889,-3.9889,-3.9848,-3.9717,-3.8884,-3.8276,-3.8128,-3.6547,-3.5602,-3.5799,-3.5052,-3.4668,-3.4773,-3.4812,-3.4733,-3.4593,-3.487,-3.4925,-3.4793,-3.5254,-3.5424,-3.5312,-3.5424,-3.5359,-3.5098,-3.5098,-3.5064,-3.4997,-3.5219,-3.5152,-3.4906,-3.5193,-3.5143,-3.4831,-3.4242,-3.4006,-3.3975,-3.3625,-3.1558,-2.8966,-4.5845,-4.5654,-4.5483,-4.5483,-4.5274,-4.5103,-4.5103,-4.5103,-4.5103,-4.5103,-4.5103,-4.508,-4.5014,-4.5061,-4.508,-4.5014,-4.4857,-4.4624,-4.4337,-4.428,-4.4299,-4.4364,-4.4624,-4.472,-4.4591,-4.461,-4.4565,-4.4519,-4.4519,-4.4493,-4.4438,-4.3856,-4.3442,-4.3205,-4.2648,-4.2278,-4.2065,-4.1412,-4.1017,-4.0783,-4.0174,-3.975,-3.9537,-3.9524,-3.9524,-3.9537,-3.9537,-3.9537,-3.9537,-3.9537,-3.9445,-3.9308,-3.909,-3.8999,-3.899,-3.8778,-3.8718,-3.867,-3.867,-3.864,-3.8741,-3.9171,-3.9327,-3.9377,-3.9377,-3.9445,-3.9519,-3.9717,-3.9735,-3.9758,-3.9911,-3.9911,-3.9889,-3.9889,-3.9889,-3.9867,-3.9762,-3.9762,-3.9717,-3.9575,-3.9227,-3.8995,-3.8943,-3.7862,-3.6954,-3.6479,-3.507,-3.434,-3.4564,-3.4476,-3.4458,-3.4612,-3.4593,-3.4553,-3.4529,-3.5086,-3.5273,-3.5091,-3.5174,-3.5171,-3.5102,-3.4944,-3.4925,-3.4997,-3.4963,-3.4813,-3.4574,-3.4889,-3.4792,-3.439,-3.4227,-3.4005,-3.3743,-3.3481,-3.2565,-3.1554,-4.4662,-4.4833,-4.4991,-4.4833,-4.4924,-4.5014,-4.5014,-4.5014,-4.4967,-4.4833,-4.4833,-4.4758,-4.4565,-4.4591,-4.4591,-4.4584,-4.4411,-4.4223,-4.3986,-4.3924,-4.3849,-4.3767,-4.3998,-4.4146,-4.4213,-4.4213,-4.4213,-4.4154,-4.4125,-4.4065,-4.3992,-4.3174,-4.2616,-4.2273,-4.1491,-4.098,-4.0709,-4.0058,-3.9835,-3.9834,-3.9276,-3.9063,-3.9073,-3.9063,-3.9082,-3.91,-3.9073,-3.9073,-3.91,-3.9073,-3.8999,-3.8915,-3.87,-3.8658,-3.8597,-3.8446,-3.8401,-3.8368,-3.8368,-3.8336,-3.8382,-3.873,-3.8896,-3.9008,-3.9008,-3.9044,-3.9171,-3.9338,-3.9364,-3.9389,-3.9513,-3.9513,-3.9556,-3.9735,-3.958,-3.9489,-3.9537,-3.9421,-3.9294,-3.9154,-3.9173,-3.9165,-3.9129,-3.8358,-3.7429,-3.6296,-3.5217,-3.4494,-3.4311,-3.4173,-3.413,-3.4237,-3.426,-3.426,-3.4189,-3.4675,-3.487,-3.4811,-3.4983,-3.4982,-3.4908,-3.4752,-3.4693,-3.4714,-3.4653,-3.4486,-3.4307,-3.4591,-3.4505,-3.4197,-3.4124,-3.3947,-3.3698,-3.3481,-3.3073,-3.2654,-4.3974,-4.4402,-4.4707,-4.443,-4.461,-4.4802,-4.4802,-4.4802,-4.4707,-4.4402,-4.4355,-4.4242,-4.3943,-4.3912,-4.3912,-4.3912,-4.3881,-4.3849,-4.3818,-4.3818,-4.3689,-4.3371,-4.3371,-4.3557,-4.3979,-4.4009,-4.3924,-4.3758,-4.3693,-4.3508,-4.3266,-4.2461,-4.1586,-4.076,-4.0028,-3.931,-3.8658,-3.8465,-3.8446,-3.8478,-3.8415,-3.8382,-3.8382,-3.8382,-3.8446,-3.8478,-3.8415,-3.8446,-3.8478,-3.8415,-3.8382,-3.8382,-3.8382,-3.8382,-3.8382,-3.8382,-3.8354,-3.8307,-3.8307,-3.8259,-3.8192,-3.8192,-3.8415,-3.864,-3.864,-3.877,-3.8924,-3.8924,-3.8952,-3.8952,-3.898,-3.8924,-3.9008,-3.9383,-3.9082,-3.8877,-3.9197,-3.8962,-3.8741,-3.8579,-3.8796,-3.8902,-3.8792,-3.821,-3.7254,-3.5788,-3.5436,-3.4932,-3.4164,-3.3976,-3.3815,-3.3698,-3.3921,-3.3998,-3.3868,-3.4141,-3.433,-3.4454,-3.4772,-3.4811,-3.4561,-3.4495,-3.4386,-3.4293,-3.426,-3.4165,-3.4074,-3.4284,-3.426,-3.4105,-3.3947,-3.3815,-3.3707,-3.3549,-3.3129,-3.2702,-4.3912,-4.4004,-4.4095,-4.4035,-4.4065,-4.4125,-4.4125,-4.4125,-4.4095,-4.4035,-4.4004,-4.3974,-4.3912,-4.3912,-4.3912,-4.3912,-4.3656,-4.3406,-4.3142,-4.3124,-4.3087,-4.3014,-4.3014,-4.305,-4.3159,-4.3267,-4.3321,-4.3321,-4.3339,-4.2975,-4.2283,-4.1499,-4.0677,-3.9856,-3.9053,-3.8597,-3.8465,-3.8415,-3.8415,-3.8415,-3.8415,-3.8382,-3.8382,-3.8382,-3.8415,-3.8415,-3.8415,-3.8415,-3.8415,-3.8354,-3.8322,-3.8322,-3.8274,-3.8241,-3.8241,-3.8241,-3.8241,-3.8207,-3.8207,-3.8225,-3.8192,-3.8192,-3.8189,-3.8135,-3.8135,-3.8201,-3.8263,-3.8418,-3.8449,-3.8542,-3.8781,-3.8839,-3.8839,-3.8924,-3.8868,-3.8781,-3.877,-3.8681,-3.8579,-3.846,-3.8491,-3.851,-3.8478,-3.79,-3.7364,-3.7014,-3.5901,-3.5155,-3.4971,-3.4119,-3.3671,-3.3698,-3.3643,-3.3633,-3.3577,-3.3868,-3.4037,-3.4099,-3.4242,-3.4307,-3.434,-3.4124,-3.4099,-3.4221,-3.4005,-3.3842,-3.3726,-3.3979,-3.3865,-3.3552,-3.3542,-3.3382,-3.316,-3.319,-3.2975,-3.2734,-4.3456,-4.3689,-4.3849,-4.3689,-4.3786,-4.3912,-4.3912,-4.3912,-4.3849,-4.3689,-4.3656,-4.359,-4.344,-4.3422,-4.3422,-4.3422,-4.3266,-4.3087,-4.292,-4.2882,-4.2882,-4.2882,-4.2882,-4.2882,-4.2882,-4.2936,-4.3012,-4.316,-4.3105,-4.2687,-4.1922,-4.1121,-4.032,-3.9519,-3.87,-3.8368,-3.8382,-3.8336,-3.8322,-3.8354,-3.8322,-3.8322,-3.8322,-3.8322,-3.8303,-3.8354,-3.8322,-3.8322,-3.8289,-3.8274,-3.8241,-3.8259,-3.8225,-3.8192,-3.8192,-3.8192,-3.8192,-3.8192,-3.8192,-3.8192,-3.8174,-3.8122,-3.8036,-3.7984,-3.7984,-3.7967,-3.7967,-3.8068,-3.8101,-3.815,-3.8346,-3.8328,-3.8342,-3.8542,-3.8355,-3.8277,-3.8373,-3.8231,-3.8101,-3.8018,-3.8052,-3.8119,-3.8234,-3.7867,-3.748,-3.713,-3.6272,-3.5574,-3.5205,-3.4212,-3.3749,-3.393,-3.3418,-3.3238,-3.3452,-3.3549,-3.3597,-3.3552,-3.3906,-3.4049,-3.4012,-3.3928,-3.3947,-3.4049,-3.3868,-3.3726,-3.3605,-3.3753,-3.3625,-3.3368,-3.3397,-3.3232,-3.2939,-3.2957,-3.2734,-3.247,-4.292,-4.3336,-4.3623,-4.3371,-4.3523,-4.3721,-4.3721,-4.3721,-4.3623,-4.3336,-4.3301,-4.3213,-4.292,-4.2882,-4.2882,-4.2882,-4.29,-4.29,-4.29,-4.2862,-4.2862,-4.2862,-4.2862,-4.2862,-4.2862,-4.2822,-4.2917,-4.3067,-4.2811,-4.234,-4.1633,-4.0869,-4.0035,-3.9254,-3.8583,-3.8322,-3.8368,-3.8241,-3.8241,-3.8274,-3.8207,-3.8192,-3.8192,-3.8192,-3.8241,-3.8274,-3.8225,-3.814,-3.8054,-3.7985,-3.802,-3.8088,-3.8088,-3.814,-3.8174,-3.8174,-3.814,-3.814,-3.8054,-3.802,-3.7967,-3.7792,-3.7792,-3.7845,-3.7845,-3.7863,-3.7864,-3.7864,-3.7864,-3.7864,-3.7864,-3.7775,-3.7792,-3.8132,-3.7844,-3.7703,-3.8065,-3.7792,-3.7594,-3.754,-3.7577,-3.7667,-3.7897,-3.7826,-3.752,-3.6888,-3.6522,-3.6025,-3.5416,-3.4445,-3.4036,-3.4285,-3.3339,-3.3012,-3.3473,-3.3286,-3.3152,-3.3086,-3.3607,-3.375,-3.3607,-3.3671,-3.3762,-3.3788,-3.3734,-3.3643,-3.352,-3.3559,-3.3433,-3.3262,-3.3304,-3.3104,-3.2802,-3.2734,-3.2519,-3.2283,-4.2822,-4.288,-4.2938,-4.2957,-4.2975,-4.2975,-4.3032,-4.3013,-4.2938,-4.2957,-4.2957,-4.2957,-4.2882,-4.2882,-4.2882,-4.2882,-4.2842,-4.2822,-4.2822,-4.2688,-4.2649,-4.2649,-4.2727,-4.2765,-4.2649,-4.2745,-4.286,-4.2938,-4.2137,-4.1396,-4.0655,-3.9947,-3.915,-3.837,-3.8262,-3.8225,-3.8225,-3.8225,-3.8225,-3.8225,-3.8192,-3.8192,-3.8192,-3.8192,-3.8225,-3.8225,-3.8192,-3.7933,-3.7542,-3.7208,-3.7321,-3.7578,-3.7578,-3.7792,-3.8036,-3.8036,-3.7985,-3.7846,-3.745,-3.734,-3.721,-3.679,-3.696,-3.7206,-3.7206,-3.7468,-3.7721,-3.7649,-3.7631,-3.7631,-3.7631,-3.7631,-3.7613,-3.7685,-3.7649,-3.7613,-3.7667,-3.7649,-3.7558,-3.7372,-3.722,-3.7126,-3.7164,-3.7243,-3.723,-3.7124,-3.6612,-3.6274,-3.6167,-3.5208,-3.4677,-3.4712,-3.3705,-3.3336,-3.3748,-3.3105,-3.2848,-3.3011,-3.3178,-3.325,-3.3262,-3.3117,-3.3129,-3.3302,-3.3291,-3.322,-3.3178,-3.3433,-3.3345,-3.3024,-3.2979,-3.2787,-3.2523,-3.2353,-3.242,-3.257,-4.2706,-4.2688,-4.2688,-4.2709,-4.2727,-4.2688,-4.2709,-4.2727,-4.2688,-4.2709,-4.2747,-4.2747,-4.2747,-4.2747,-4.2747,-4.2747,-4.2688,-4.2688,-4.2688,-4.2649,-4.2609,-4.2609,-4.2235,-4.1983,-4.1944,-4.1513,-4.1317,-4.143,-4.1483,-4.0869,-3.9698,-3.9391,-3.8814,-3.8038,-3.8038,-3.8038,-3.8038,-3.8038,-3.8054,-3.8088,-3.8088,-3.8122,-3.8192,-3.8192,-3.8192,-3.8192,-3.788,-3.7523,-3.7132,-3.6978,-3.696,-3.7058,-3.7058,-3.7097,-3.7155,-3.7155,-3.7135,-3.7058,-3.6886,-3.6808,-3.6768,-3.6528,-3.6586,-3.6701,-3.662,-3.6724,-3.7017,-3.7503,-3.7577,-3.7577,-3.7577,-3.7577,-3.7503,-3.7243,-3.7337,-3.7392,-3.7243,-3.7354,-3.7372,-3.7143,-3.7066,-3.6948,-3.6846,-3.6908,-3.6873,-3.6834,-3.6462,-3.623,-3.6133,-3.5243,-3.4827,-3.5077,-3.4021,-3.3474,-3.3459,-3.3037,-3.2773,-3.2654,-3.2486,-3.2619,-3.3024,-3.293,-3.2961,-3.3037,-3.2988,-3.2925,-3.2816,-3.2961,-3.2943,-3.2816,-3.277,-3.2657,-3.2473,-3.2108,-3.202,-3.202]},{"header":{"parameterUnit":"m.s-1","parameterCategory":1,"la1":30.6,"la2":28.766,"lo1":-90.7593,"lo2":-88.6598,"dy":0.0162,"dx":0.0183,"nx":116,"ny":114,"refTime":"2023-05-26T06:00:00:Z","depth":0,"parameterNumber":3,"parameterNumberName":"V-component_of_WINDS"},"data":[0.0,0.0,0.0,0.0,0.0,0.0,0.0,0.0,0.0,0.0,0.0,0.0,0.0,0.0,0.0,0.0,0.0,0.0,0.0,0.0,0.0,0.0,0.0,0.0,0.0,0.0,0.0,0.0,0.0,0.0,0.0,0.0,0.0,0.0,0.0,0.0,0.0,0.0,0.0,0.0,0.0,0.0,0.0,0.0,0.0,0.0,0.0,0.0,0.0,0.0,0.0,0.0,0.0,0.0,0.0,0.0,0.0,0.0,0.0,0.0,0.0,0.0,0.0,0.0,0.0,0.0,0.0,0.0,0.0,0.0,0.0,0.0,0.0,0.0,0.0,0.0,0.0,0.0,0.0,0.0,0.0,0.0,0.0,0.0,0.0,0.0,0.0,0.0,0.0,0.0,0.0,0.0,0.0,0.0,0.0,0.0,0.0,0.0,0.0,0.0,0.0,0.0,0.0,0.0,0.0,0.0,0.0,0.0,0.0,0.0,0.0,0.0,0.0,0.0,0.0,0.0,0.0,0.0,0.0,0.0,0.0,0.0,0.0,0.0,0.0,0.0,0.0,0.0,0.0,0.0,0.0,0.0,0.0,0.0,0.0,0.0,0.0,0.0,0.0,0.0,0.0,0.0,0.0,0.0,0.0,0.0,0.0,0.0,0.0,0.0,0.0,0.0,0.0,0.0,0.0,0.0,0.0,0.0,0.0,0.0,0.0,0.0,0.0,0.0,0.0,0.0,0.0,0.0,0.0,0.0,0.0,0.0,0.0,0.0,0.0,0.0,0.0,0.0,0.0,0.0,0.0,0.0,0.0,0.0,0.0,0.0,0.0,0.0,0.0,0.0,0.0,0.0,0.0,0.0,0.0,0.0,0.0,0.0,0.0,0.0,0.0,0.0,0.0,0.0,0.0,0.0,0.0,0.0,0.0,0.0,0.0,0.0,0.0,0.0,0.0,0.0,0.0,0.0,0.0,0.0,0.0,0.0,0.0,0.0,0.0,0.0,0.0,0.0,0.0,0.0,0.0,0.0,0.0,0.0,0.0,0.0,0.0,0.0,0.0,0.0,0.0,0.0,0.0,0.0,0.0,0.0,0.0,0.0,0.0,0.0,0.0,0.0,0.0,0.0,0.0,0.0,0.0,0.0,0.0,0.0,0.0,0.0,0.0,0.0,0.0,0.0,0.0,0.0,0.0,0.0,0.0,0.0,0.0,0.0,0.0,0.0,0.0,0.0,0.0,0.0,0.0,0.0,0.0,0.0,0.0,0.0,0.0,0.0,0.0,0.0,0.0,0.0,0.0,0.0,0.0,0.0,0.0,0.0,0.0,0.0,0.0,0.0,0.0,0.0,0.0,0.0,0.0,0.0,0.0,0.0,0.0,0.0,0.0,0.0,0.0,0.0,0.0,0.0,0.0,0.0,0.0,0.0,0.0,0.0,0.0,0.0,0.0,0.0,0.0,0.0,0.0,0.0,0.0,0.0,0.0,0.0,0.0,0.0,0.0,0.0,0.0,0.0,0.0,0.0,0.0,0.0,0.0,0.0,0.0,0.0,0.0,0.0,0.0,0.0,0.0,0.0,0.0,0.0,0.0,0.0,0.0,0.0,0.0,0.0,0.0,0.0,0.0,0.0,0.0,0.0,0.0,0.0,0.0,0.0,0.0,0.0,0.0,0.0,0.0,0.0,0.0,0.0,0.0,0.0,0.0,0.0,0.0,0.0,0.0,0.0,0.0,0.0,0.0,0.0,0.0,0.0,0.0,0.0,0.0,0.0,0.0,0.0,0.0,0.0,0.0,0.0,0.0,0.0,0.0,0.0,0.0,0.0,0.0,0.0,0.0,0.0,0.0,0.0,0.0,0.0,0.0,0.0,0.0,0.0,0.0,0.0,0.0,0.0,0.0,0.0,0.0,0.0,0.0,0.0,0.0,0.0,0.0,0.0,0.0,0.0,0.0,0.0,0.0,0.0,0.0,0.0,0.0,0.0,0.0,0.0,0.0,0.0,0.0,0.0,0.0,0.0,0.0,0.0,0.0,0.0,0.0,0.0,0.0,0.0,0.0,0.0,0.0,0.0,0.0,0.0,0.0,0.0,0.0,0.0,0.0,0.0,0.0,0.0,0.0,0.0,0.0,0.0,0.0,0.0,0.0,0.0,0.0,0.0,0.0,0.0,0.0,0.0,0.0,0.0,0.0,0.0,0.0,0.0,0.0,0.0,0.0,0.0,0.0,0.0,0.0,0.0,0.0,0.0,0.0,0.0,0.0,0.0,0.0,0.0,0.0,0.0,0.0,0.0,0.0,0.0,0.0,0.0,0.0,0.0,0.0,0.0,0.0,0.0,0.0,0.0,0.0,0.0,0.0,0.0,0.0,0.0,0.0,0.0,0.0,0.0,0.0,0.0,0.0,0.0,0.0,0.0,0.0,0.0,0.0,0.0,0.0,0.0,0.0,0.0,0.0,0.0,0.0,0.0,0.0,0.0,0.0,0.0,0.0,0.0,0.0,0.0,0.0,0.0,0.0,0.0,0.0,0.0,0.0,0.0,0.0,0.0,0.0,0.0,0.0,0.0,0.0,0.0,0.0,0.0,0.0,0.0,0.0,0.0,0.0,0.0,0.0,0.0,0.0,0.0,0.0,0.0,0.0,0.0,0.0,0.0,0.0,0.0,0.0,0.0,0.0,0.0,0.0,0.0,0.0,0.0,0.0,0.0,0.0,0.0,0.0,0.0,0.0,0.0,0.0,0.0,0.0,0.0,0.0,0.0,0.0,0.0,0.0,0.0,0.0,0.0,0.0,0.0,0.0,0.0,0.0,0.0,0.0,0.0,0.0,0.0,0.0,0.0,0.0,0.0,0.0,0.0,0.0,0.0,0.0,0.0,0.0,0.0,0.0,0.0,0.0,0.0,0.0,0.0,0.0,0.0,0.0,0.0,0.0,0.0,0.0,0.0,0.0,0.0,0.0,0.0,0.0,0.0,0.0,0.0,0.0,0.0,0.0,0.0,0.0,0.0,0.0,0.0,0.0,0.0,0.0,0.0,0.0,0.0,0.0,0.0,0.0,0.0,0.0,0.0,0.0,0.0,0.0,0.0,0.0,0.0,0.0,0.0,0.0,0.0,0.0,0.0,0.0,0.0,0.0,0.0,0.0,0.0,0.0,0.0,0.0,0.0,0.0,0.0,0.0,0.0,0.0,0.0,0.0,0.0,0.0,0.0,0.0,0.0,0.0,0.0,0.0,0.0,0.0,0.0,0.0,0.0,0.0,0.0,0.0,0.0,0.0,0.0,0.0,0.0,0.0,0.0,0.0,0.0,0.0,0.0,0.0,0.0,0.0,0.0,0.0,0.0,0.0,0.0,0.0,0.0,0.0,0.0,0.0,0.0,0.0,0.0,0.0,0.0,0.0,0.0,0.0,0.0,0.0,0.0,0.0,0.0,0.0,0.0,0.0,0.0,0.0,0.0,0.0,0.0,0.0,0.0,0.0,0.0,0.0,0.0,0.0,0.0,0.0,0.0,0.0,0.0,0.0,0.0,0.0,0.0,0.0,0.0,0.0,0.0,0.0,0.0,0.0,0.0,0.0,0.0,0.0,0.0,0.0,0.0,0.0,0.0,0.0,0.0,0.0,0.0,0.0,0.0,0.0,0.0,0.0,0.0,0.0,0.0,0.0,0.0,0.0,0.0,0.0,0.0,0.0,0.0,0.0,0.0,0.0,0.0,0.0,0.0,0.0,0.0,0.0,0.0,0.0,0.0,0.0,0.0,0.0,0.0,0.0,0.0,0.0,0.0,0.0,0.0,0.0,0.0,0.0,0.0,0.0,0.0,0.0,0.0,0.0,0.0,0.0,0.0,0.0,0.0,0.0,0.0,0.0,0.0,0.0,0.0,0.0,0.0,0.0,0.0,0.0,0.0,0.0,0.0,0.0,0.0,0.0,0.0,0.0,0.0,0.0,0.0,0.0,0.0,0.0,0.0,0.0,0.0,0.0,0.0,0.0,0.0,0.0,0.0,0.0,0.0,0.0,0.0,0.0,0.0,0.0,0.0,0.0,0.0,0.0,0.0,0.0,0.0,0.0,0.0,0.0,0.0,0.0,0.0,0.0,0.0,0.0,0.0,0.0,0.0,0.0,0.0,0.0,0.0,0.0,0.0,0.0,0.0,0.0,0.0,0.0,0.0,0.0,0.0,0.0,0.0,0.0,0.0,0.0,0.0,0.0,0.0,0.0,0.0,0.0,0.0,0.0,0.0,0.0,0.0,0.0,0.0,0.0,0.0,0.0,0.0,0.0,0.0,0.0,0.0,0.0,0.0,0.0,0.0,0.0,0.0,0.0,0.0,0.0,0.0,0.0,0.0,0.0,0.0,0.0,0.0,0.0,0.0,0.0,0.0,0.0,0.0,0.0,0.0,0.0,0.0,0.0,0.0,0.0,0.0,0.0,0.0,0.0,0.0,0.0,0.0,0.0,0.0,0.0,0.0,0.0,0.0,0.0,0.0,0.0,0.0,0.0,0.0,0.0,0.0,0.0,0.0,0.0,0.0,0.0,0.0,0.0,0.0,0.0,0.0,0.0,0.0,0.0,0.0,0.0,0.0,0.0,0.0,0.0,0.0,0.0,0.0,0.0,0.0,0.0,0.0,0.0,0.0,0.0,0.0,0.0,0.0,0.0,0.0,0.0,0.0,0.0,0.0,0.0,0.0,0.0,0.0,0.0,0.0,0.0,0.0,0.0,0.0,0.0,0.0,0.0,0.0,0.0,0.0,0.0,0.0,0.0,0.0,0.0,0.0,0.0,0.0,0.0,0.0,0.0,0.0,0.0,0.0,0.0,0.0,0.0,0.0,0.0,0.0,0.0,0.0,0.0,0.0,0.0,0.0,0.0,0.0,0.0,0.0,0.0,0.0,0.0,0.0,0.0,0.0,0.0,0.0,0.0,0.0,0.0,0.0,0.0,0.0,0.0,0.0,0.0,0.0,0.0,0.0,0.0,0.0,0.0,0.0,0.0,0.0,0.0,0.0,0.0,0.0,0.0,0.0,0.0,0.0,0.0,0.0,0.0,0.0,0.0,0.0,0.0,0.0,0.0,0.0,0.0,0.0,0.0,0.0,0.0,0.0,0.0,0.0,0.0,0.0,0.0,0.0,0.0,0.0,0.0,0.0,0.0,0.0,0.0,0.0,0.0,0.0,0.0,0.0,0.0,0.0,0.0,0.0,0.0,0.0,0.0,0.0,0.0,0.0,0.0,0.0,0.0,0.0,0.0,0.0,0.0,0.0,0.0,0.0,0.0,0.0,0.0,0.0,0.0,0.0,0.0,0.0,0.0,0.0,0.0,0.0,0.0,0.0,0.0,0.0,0.0,0.0,0.0,0.0,0.0,0.0,0.0,0.0,0.0,0.0,0.0,0.0,0.0,0.0,0.0,0.0,0.0,0.0,0.0,0.0,0.0,0.0,0.0,0.0,0.0,0.0,0.0,0.0,0.0,0.0,0.0,0.0,0.0,0.0,0.0,0.0,0.0,0.0,0.0,0.0,0.0,0.0,0.0,0.0,0.0,0.0,0.0,0.0,0.0,0.0,0.0,0.0,0.0,0.0,0.0,0.0,0.0,0.0,0.0,0.0,0.0,0.0,0.0,0.0,0.0,0.0,0.0,0.0,0.0,0.0,0.0,0.0,0.0,0.0,0.0,0.0,0.0,0.0,0.0,0.0,0.0,0.0,0.0,0.0,0.0,0.0,0.0,0.0,0.0,0.0,0.0,0.0,0.0,0.0,0.0,0.0,0.0,0.0,0.0,0.0,0.0,0.0,0.0,0.0,0.0,0.0,0.0,0.0,0.0,0.0,0.0,0.0,0.0,0.0,0.0,0.0,0.0,0.0,0.0,0.0,0.0,0.0,0.0,0.0,0.0,0.0,0.0,0.0,0.0,0.0,0.0,0.0,0.0,0.0,0.0,0.0,0.0,0.0,0.0,0.0,0.0,0.0,0.0,0.0,0.0,0.0,0.0,0.0,0.0,0.0,0.0,0.0,0.0,0.0,0.0,0.0,0.0,0.0,0.0,0.0,0.0,0.0,0.0,0.0,0.0,0.0,0.0,0.0,0.0,0.0,-2.1595,0.0,0.0,0.0,0.0,0.0,0.0,0.0,0.0,0.0,0.0,0.0,0.0,0.0,0.0,0.0,0.0,0.0,0.0,0.0,0.0,0.0,0.0,0.0,0.0,0.0,0.0,0.0,0.0,0.0,0.0,0.0,0.0,0.0,0.0,0.0,0.0,0.0,0.0,0.0,0.0,1.2208,0.764,1.0411,0.8695,0.2994,0.0,0.0,0.0,0.0,0.0,0.0,0.0,0.0,0.0,0.0,0.0,0.0,0.0,0.0,0.0,0.0,0.0,0.0,0.0,0.0,0.0,0.0,0.0,0.0,0.0,0.0,0.0,0.0,0.0,0.0,0.0,0.0,0.0,0.0,0.0,0.0,0.0,0.0,0.0,0.0,0.0,0.0,0.0,0.0,0.0,0.0,0.0,0.0,0.0,0.0,0.0,0.0,0.0,0.0,0.0,0.0,0.0,0.0,0.0,0.0,0.0,0.0,0.0,0.0,0.0,0.0,0.0,0.0,0.0,0.0,0.0,-2.2349,0.0,0.0,0.0,0.0,0.0,0.0,0.0,0.0,0.0,0.0,0.0,0.0,0.0,0.0,0.0,0.0,0.0,0.0,0.0,0.0,0.0,0.0,0.0,0.0,0.0,0.0,0.0,0.0,0.0,0.0,0.0,0.0,0.0,0.0,0.0,0.0,0.0,0.0,0.0,0.9291,0.4453,0.2815,0.0469,-0.2423,-0.3887,0.0,0.0,0.0,0.0,0.0,0.0,0.0,0.0,0.0,0.0,0.0,0.0,0.0,0.0,0.0,0.0,0.0,0.0,0.0,0.0,0.0,0.0,0.0,0.0,0.0,0.0,0.0,0.0,0.0,0.0,0.0,0.0,0.0,0.0,0.0,0.0,0.0,0.0,0.0,0.0,0.0,0.0,0.0,0.0,0.0,0.0,0.0,0.0,0.0,0.0,0.0,0.0,0.0,0.0,0.0,0.0,0.0,0.0,0.0,0.0,0.0,0.0,0.0,-1.5201,-1.5528,-1.6188,-1.6772,-1.7779,-1.9033,-2.0857,-2.1807,-2.2142,-2.2518,0.0,0.0,0.0,0.0,0.0,0.0,0.0,0.0,0.0,0.0,0.0,0.0,0.0,0.0,0.0,0.0,0.0,0.0,0.0,0.0,0.0,0.0,0.0,0.0,0.0,0.0,0.0,0.0,0.0,0.0,0.0,0.0,0.0,0.0,0.0,0.0,0.8036,0.388,0.3593,0.2746,0.047,-0.3046,-0.4884,-0.7382,-1.0473,0.0,0.0,0.0,0.0,0.0,0.0,0.0,0.0,0.0,0.0,0.0,0.0,0.0,0.0,0.0,0.0,0.0,0.0,0.0,0.0,0.0,0.0,0.0,0.0,0.0,0.0,0.0,0.0,0.0,0.0,0.0,0.0,0.0,0.0,0.0,0.0,0.0,0.0,0.0,0.0,0.0,-0.9023,-0.8703,0.0,0.0,0.0,0.0,0.0,0.0,0.0,0.0,0.0,0.0,0.0,0.0,0.0,-1.4865,-1.5213,-1.5265,-1.5464,-1.5712,-1.5718,-1.6501,-1.785,-1.8192,-1.907,-2.0475,-2.0721,0.0,-2.1598,-2.1934,0.0,0.0,0.0,0.0,0.0,0.0,0.0,0.0,0.0,0.0,0.0,0.0,0.0,0.0,0.0,0.0,0.0,0.0,0.0,0.0,0.0,0.0,0.0,0.0,0.0,0.0,0.0,0.0,0.0,0.0,0.0,0.0,0.0,0.0,0.0,0.0,0.6386,0.382,0.2352,0.1253,-0.0391,-0.2577,-0.596,-0.8538,-1.0558,-1.315,0.0,0.0,0.0,0.0,0.0,0.0,0.0,0.0,0.0,0.0,0.0,0.0,0.0,0.0,0.0,0.0,0.0,0.0,0.0,0.0,0.0,0.0,0.0,0.0,0.0,0.0,0.0,0.0,0.0,0.0,0.0,0.0,0.0,0.0,0.0,0.0,0.0,0.0,0.0,-0.8505,-0.8387,-0.8018,-0.8222,-0.8933,0.0,0.0,0.0,0.0,0.0,0.0,0.0,0.0,0.0,-1.4515,-1.4727,-1.4891,-1.5015,-1.5139,-1.5217,-1.5344,-1.5344,-1.5727,-1.64,-1.6482,-1.7186,-1.8329,-1.8948,-1.9649,-2.0382,-2.11,-2.1539,-2.1816,0.0,0.0,0.0,0.0,-2.2685,-2.313,0.0,0.0,0.0,0.0,0.0,0.0,0.0,0.0,0.0,0.0,0.0,0.0,0.0,0.0,0.0,2.632,0.0,0.0,0.0,0.0,0.0,0.0,0.0,0.0,0.0,0.0,0.0,0.6047,0.5535,0.413,0.1728,0.0,-0.1406,-0.265,-0.6569,-0.915,-1.0775,-1.3526,-1.6399,-1.9251,0.0,0.0,0.0,0.0,0.0,0.0,0.0,0.0,0.0,0.0,0.0,0.0,0.0,0.0,0.0,0.0,0.0,0.0,0.0,0.0,0.0,0.0,0.0,0.0,0.0,0.0,0.0,0.0,0.0,0.0,0.0,0.0,0.0,0.0,0.0,0.0,0.0,-0.7728,-0.7829,-0.7734,-0.8055,-0.8711,0.0,0.0,0.0,0.0,0.0,0.0,-1.3698,-1.3994,-1.4179,-1.4383,-1.4558,-1.4759,-1.4916,-1.4995,-1.511,-1.5184,-1.5184,-1.5366,-1.5638,-1.5812,-1.6511,-1.7389,-1.8439,-1.9273,-1.9942,-2.0641,-2.1063,-2.1354,-2.1675,-2.1802,-2.1875,-2.1768,-2.1787,-2.1865,0.0,0.0,0.0,0.0,0.0,0.0,0.0,0.0,0.0,0.0,0.0,0.0,0.0,0.0,2.4932,2.4893,2.4823,2.4745,0.0,0.0,0.0,0.0,0.0,0.0,0.0,0.0,0.0,0.6061,0.396,0.2662,0.2117,-0.0157,-0.2341,-0.4269,-0.6481,-0.8806,-1.1388,-1.4356,-1.6945,-1.909,-2.0193,0.0,0.0,0.0,0.0,0.0,0.0,0.0,0.0,0.0,0.0,0.0,0.0,0.0,0.0,0.0,0.0,0.0,0.0,0.0,0.0,0.0,0.0,0.0,0.0,0.0,0.0,0.0,0.0,0.0,0.0,0.0,0.0,0.0,0.0,0.0,0.0,0.0,0.0,-0.7461,-0.8325,0.0,0.0,0.0,0.0,-1.2021,-1.2113,-1.221,-1.2221,-1.3065,-1.3538,-1.3556,-1.3816,-1.4207,-1.4731,-1.4909,-1.5225,-1.5785,-1.5785,-1.625,-1.7188,-1.8187,-1.919,-2.0172,-2.0712,-2.108,-2.1321,-2.1184,-2.1265,-2.1515,-2.1534,-2.1709,-2.1836,-2.1416,-2.1533,-2.1826,0.0,0.0,0.0,0.0,0.0,0.0,0.0,0.0,0.0,0.0,0.0,0.0,0.0,2.4736,2.4307,2.3903,2.3764,2.355,2.3245,0.0,0.0,0.0,0.0,0.0,0.0,0.0,0.7897,0.5555,0.381,0.227,0.094,-0.1406,-0.335,-0.5052,-0.7656,-1.0129,-1.239,-1.4466,-1.7073,-1.9792,-2.0651,-2.2189,0.0,0.0,0.0,0.0,0.0,0.0,0.0,0.0,0.0,0.0,0.0,0.0,0.0,0.0,0.0,0.0,0.0,0.0,0.0,0.0,0.0,0.0,0.0,0.0,0.0,0.0,0.0,0.0,0.0,0.0,0.0,0.0,0.0,0.0,0.0,0.0,0.0,-0.8257,-0.8683,0.0,-1.0542,-1.1196,-1.1742,-1.2113,-1.2672,-1.3117,-1.3281,-1.3576,-1.3845,-1.4014,-1.4309,-1.454,-1.4728,-1.4924,-1.5259,-1.5635,-1.619,-1.6756,-1.7326,-1.8334,-1.8972,-1.9422,-2.0202,-2.0597,-2.0766,-2.1277,-2.1522,-2.146,-2.146,-2.1627,-2.1865,-2.1709,-2.1572,-2.1445,0.0,0.0,0.0,0.0,0.0,0.0,0.0,0.0,0.0,0.0,0.0,2.4225,2.4184,2.3837,2.3421,2.2965,2.2799,2.2572,2.2156,0.0,0.0,0.0,1.8787,0.0,0.0,0.9484,0.7057,0.4983,0.3446,0.1878,0.0313,-0.2338,-0.4276,-0.5745,-0.8433,-1.0914,-1.3317,-1.4569,-1.6936,-1.9868,-2.0512,-2.1894,-2.3813,0.0,0.0,0.0,0.0,0.0,0.0,0.0,0.0,0.0,0.0,0.0,0.0,0.0,0.0,0.0,0.0,0.0,0.0,0.0,0.0,0.0,0.0,0.0,0.0,0.0,0.0,0.0,0.0,0.0,0.0,0.0,0.0,0.0,0.0,0.0,-0.8162,-0.9328,-0.9799,-1.0309,-1.1094,-1.2097,-1.2704,-1.2704,-1.335,-1.3851,-1.4032,-1.4039,-1.4117,-1.4292,-1.4496,-1.4592,-1.4688,-1.4885,-1.5172,-1.554,-1.6096,-1.6567,-1.6864,-1.7878,-1.8334,-1.8334,-1.9338,-1.9977,-2.0348,-2.0988,-2.1498,-2.1778,-2.1644,-2.1752,-2.1885,-2.1885,-2.1699,-2.1455,0.0,0.0,0.0,0.0,0.0,0.0,0.0,0.0,0.0,0.0,2.3779,2.329,2.3083,2.254,2.2137,2.1983,2.1935,2.1746,2.1361,2.1042,0.0,0.0,0.0,0.0,1.161,0.9053,0.6717,0.4453,0.2781,0.1408,0.047,-0.2882,-0.5049,-0.6343,-0.8666,-1.1304,-1.4099,-1.4665,-1.6618,-1.932,-1.9672,-2.0782,-2.2309,0.0,0.0,0.0,0.0,0.0,0.0,0.0,0.0,0.0,0.0,0.0,0.0,0.0,0.0,0.0,0.0,0.0,0.0,0.0,0.0,0.0,0.0,0.0,0.0,0.0,0.0,0.0,0.0,0.0,0.0,0.0,0.0,0.0,-0.8808,-0.8898,-0.9332,-1.0634,-1.1574,-1.2129,-1.2135,-1.32,-1.3924,-1.393,-1.4165,-1.4316,-1.4322,-1.4322,-1.4322,-1.4322,-1.4322,-1.4424,-1.4712,-1.4712,-1.4994,-1.5458,-1.5553,-1.5642,-1.5927,-1.6951,-1.7419,-1.7419,-1.8427,-1.943,-2.0339,-2.0339,-2.1168,-2.2306,-2.2006,-2.1863,-2.1924,-2.1924,-2.1914,-2.1904,0.0,0.0,0.0,0.0,0.0,0.0,0.0,0.0,0.0,0.0,2.3275,2.2768,2.2601,2.2278,2.1779,2.1077,2.093,2.0458,1.9633,0.0,0.0,0.0,0.0,0.0,1.0477,0.8559,0.6327,0.3768,0.27,0.1015,-0.1096,-0.3891,-0.5899,-0.7206,-0.9678,-1.2138,-1.4459,-1.482,-1.6813,-1.976,-1.9965,-2.0835,-2.2224,0.0,0.0,0.0,0.0,0.0,0.0,0.0,0.0,0.0,0.0,0.0,0.0,0.0,0.0,0.0,0.0,0.0,0.0,0.0,0.0,0.0,0.0,0.0,0.0,0.0,0.0,0.0,0.0,0.0,0.0,0.0,0.0,-0.8627,-0.8894,-0.9009,-0.9811,-1.1796,-1.2202,-1.2736,-1.3578,-1.4046,-1.4274,-1.4479,-1.4564,-1.4684,-1.4871,-1.4883,-1.4883,-1.4883,-1.4883,-1.4883,-1.4989,-1.4989,-1.5183,-1.5473,-1.6216,-1.6675,-1.6951,-1.8696,-1.9521,-1.9521,-2.0447,-2.1087,-2.1365,-2.1365,-2.1642,-2.2176,-2.223,-2.2457,-2.2793,-2.2793,-2.2607,-2.2295,0.0,0.0,0.0,0.0,0.0,0.0,0.0,0.0,0.0,0.0,2.2859,2.237,2.2231,2.1684,2.1077,2.0421,2.0232,1.9761,1.8862,0.0,0.0,0.0,0.0,1.2527,1.1261,0.8959,0.679,0.4906,0.2945,0.0468,-0.2501,-0.4825,-0.6674,-0.8138,-1.0297,-1.249,-1.4613,-1.5186,-1.6931,-1.9465,-2.0108,-2.1039,-2.2101,-2.2834,-2.3374,-2.3806,-2.476,-2.4862,-2.4638,-2.5217,0.0,0.0,0.0,0.0,0.0,0.0,0.0,0.0,0.0,0.0,0.0,0.0,0.0,0.0,0.0,0.0,0.0,0.0,0.0,0.0,0.0,0.0,0.0,0.0,-0.8295,-0.8753,-0.9486,-1.0054,-1.0957,-1.2316,-1.2734,-1.3312,-1.4249,-1.4175,-1.4386,-1.4859,-1.4778,-1.4843,-1.5101,-1.5107,-1.5107,-1.5107,-1.5107,-1.5107,-1.5107,-1.5107,-1.5331,-1.5668,-1.6236,-1.6856,-1.753,-1.8738,-1.9393,-1.9704,-2.0266,-2.0718,-2.1087,-2.1087,-2.1544,0.0,0.0,0.0,0.0,0.0,-2.2901,-2.2744,0.0,0.0,0.0,0.0,0.0,0.0,0.0,0.0,0.0,0.0,0.0,2.1983,2.1888,2.093,2.0181,1.9888,1.9695,1.9267,0.0,0.0,0.0,1.6726,1.4488,1.315,1.2848,0.9801,0.771,0.6917,0.3355,-0.0233,-0.3667,-0.5369,-0.7141,-0.8988,-1.0638,-1.2612,-1.4757,-1.5599,-1.7194,-1.9131,-2.0249,-2.1149,-2.1871,-2.2567,-2.3015,-2.3318,-2.4369,-2.4878,-2.5043,-2.4785,0.0,0.0,0.0,0.0,0.0,0.0,0.0,0.0,0.0,0.0,0.0,0.0,0.0,0.0,0.0,0.0,0.0,0.0,0.0,0.0,0.0,0.0,0.0,0.0,-0.8291,-0.8583,-1.0223,-1.1397,-1.2167,-1.236,-1.3083,-1.378,-1.4231,-1.405,-1.4259,-1.5029,-1.4844,-1.4855,-1.5095,0.0,0.0,0.0,0.0,-1.5197,-1.5197,-1.5197,-1.5478,-1.5954,-1.5954,-1.66,-1.7674,-1.7734,-1.8123,-1.8666,-1.8812,-1.9338,-2.0158,-2.0249,-2.0988,-2.2097,-2.2185,-2.2264,-2.2441,-2.2715,-2.2969,-2.3135,0.0,0.0,0.0,0.0,0.0,0.0,0.0,0.0,0.0,2.1935,2.1396,2.1091,2.1188,2.0346,1.9604,1.9251,1.8655,1.7886,0.0,0.0,1.6197,1.551,1.553,1.4449,1.2087,1.0079,0.8304,0.6891,0.3428,-0.0078,-0.3443,-0.5297,-0.6992,-0.8623,-1.0897,-1.3066,-1.5172,-1.6129,-1.8315,-2.1176,-2.0997,-2.0941,-2.0952,-2.1337,-2.1939,-2.2531,-2.2047,-2.202,-2.2229,-2.2433,-2.2062,-2.1543,-2.182,-2.1489,0.0,0.0,0.0,0.0,0.0,0.0,0.0,0.0,0.0,0.0,0.0,0.0,0.0,0.0,0.0,0.0,0.0,0.0,0.0,-0.797,-0.8626,-0.9196,-0.9437,-1.1067,-1.2277,-1.2307,-1.3226,-1.3933,-1.4179,-1.4202,-1.431,-1.4683,-1.4902,-1.51,-1.5423,-1.5635,-1.5741,-1.5741,-1.5741,-1.5741,-1.5741,-1.5741,-1.5946,-1.624,0.0,0.0,-1.6912,-1.7545,-1.7875,-1.7985,-1.8551,-1.888,-1.9155,-1.9977,-2.0898,-2.183,-2.2441,-2.2715,-2.2706,-2.2969,-2.3057,-2.3135,0.0,0.0,0.0,0.0,0.0,0.0,0.0,0.0,0.0,0.0,2.1153,2.0746,2.0584,1.9722,1.9016,1.859,1.7886,0.0,0.0,1.6638,1.5819,1.4626,1.4878,1.48,1.4356,1.1596,0.9,0.6588,0.3748,0.0778,-0.2336,-0.4339,-0.6809,-0.963,-1.0962,-1.2976,-1.538,-1.6275,-1.8161,-2.0659,-2.1,-2.1052,-2.0997,-2.1637,-2.2223,-2.2604,-2.2149,-2.1877,-2.1726,-2.1731,-2.1102,-2.029,-2.0325,-1.9968,-1.9608,0.0,0.0,0.0,0.0,0.0,0.0,0.0,0.0,0.0,0.0,0.0,0.0,0.0,0.0,-0.8653,0.0,0.0,-0.8663,-0.9307,-0.8933,-0.8852,-0.9809,-1.0724,-1.1496,-1.2089,-1.301,-1.379,-1.4241,-1.4051,-1.4261,-1.473,-1.4959,-1.5229,-1.5476,-1.5791,-1.5891,-1.5891,-1.5891,-1.5891,-1.5891,-1.5891,-1.6037,-1.6323,-1.6422,-1.6788,-1.7507,-1.7795,-1.8148,-1.8537,-1.8668,-1.9063,-1.9613,-2.0628,-2.1275,-2.1731,-2.2264,-2.2539,-2.2618,-2.2882,-2.2969,-2.3135,0.0,0.0,0.0,0.0,0.0,0.0,0.0,0.0,0.0,0.0,2.1023,2.0446,2.0131,1.919,1.8405,0.0,0.0,0.0,0.0,1.6838,1.5916,1.4526,1.4056,1.4506,1.5995,1.2136,0.8593,0.5323,0.3435,0.0855,-0.2327,-0.409,-0.6939,-1.064,-1.1136,-1.281,-1.5413,-1.623,-1.7823,-1.9807,-2.0777,-2.1307,-2.1658,-2.2354,-2.2739,-2.2848,-2.2592,-2.2187,-2.1791,-2.1365,-2.0398,-1.9299,-1.8977,-1.8635,-1.8395,-1.8441,-1.8535,0.0,0.0,0.0,0.0,0.0,0.0,0.0,0.0,0.0,-0.8839,-0.8477,-0.8869,-0.9287,-0.9007,-0.9056,-0.9444,-1.0528,-0.9155,-0.8621,-1.0449,-1.0751,-1.111,-1.1817,-1.2905,-1.374,-1.4195,-1.4001,-1.4188,-1.4815,-1.4934,-1.5148,-1.5369,-1.5684,-1.5891,-1.5891,-1.5891,-1.5891,-1.5891,-1.5891,-1.5998,-1.6324,-1.6524,-1.7128,-1.8016,-1.8024,-1.8287,-1.8716,-1.8598,-1.9063,-2.0068,-2.0997,-2.1553,-2.183,-2.2008,-2.2264,-2.253,-2.2706,-2.2969,-2.3135,0.0,0.0,0.0,0.0,0.0,0.0,0.0,0.0,0.0,0.0,0.0,0.0,0.0,0.0,0.0,0.0,0.0,0.0,1.6806,1.7021,1.69,1.6141,1.4471,1.3355,1.2806,0.8901,0.522,0.1852,0.0854,-0.1713,-0.5792,-0.644,-0.8045,-1.0413,-1.1777,-1.3251,-1.477,-1.6171,-1.8239,-2.0589,-2.0913,-2.1727,-2.2743,-2.2378,-2.2555,-2.2714,-2.1365,-2.0899,-2.0824,-2.0107,-1.9198,-1.8462,-1.8395,-1.838,-1.8323,-1.7732,-1.7438,-1.6951,-1.5352,-1.4461,-1.3893,-1.313,-1.3033,-1.2918,0.0,0.0,-0.9912,-0.9556,-0.8955,-0.8359,-0.8044,-0.799,-0.8333,-0.9551,-0.9538,-0.9661,-1.0479,-1.1606,-1.2264,-1.2049,-1.3131,-1.3879,-1.4132,-1.4153,-1.4164,-1.4299,-1.4719,-1.5041,-1.5041,-1.5571,-1.5891,-1.5891,-1.5891,-1.5891,-1.5891,-1.5891,-1.5998,-1.6324,-1.6524,-1.6929,-1.7325,-1.7338,-1.7238,-1.7018,-1.7304,-1.8064,-1.9063,-2.0068,-2.1078,-2.2097,-2.2097,-2.2362,-2.2803,-2.2803,-2.2969,-2.3135,0.0,0.0,0.0,0.0,0.0,0.0,0.0,0.0,0.0,0.0,0.0,0.0,0.0,0.0,0.0,0.0,0.0,0.0,1.6535,1.7021,1.6367,1.4273,1.3389,1.2983,1.2998,0.9483,0.6271,0.3482,-0.0853,-0.5309,-0.9741,-0.9062,-0.9927,-1.2175,-1.2926,-1.4043,-1.5466,-1.6688,-1.8177,-1.9855,-2.0731,-2.1369,-2.1945,-2.2133,-2.2309,-2.2359,-2.1502,-2.0974,0.0,0.0,-1.9065,-1.8405,-1.8212,-1.7703,-1.714,-1.6998,-1.6421,-1.569,-1.5109,-1.4828,-1.4559,-1.3802,-1.3236,-1.2505,-1.1645,-1.0885,-1.0219,-0.9947,-0.9987,-0.9949,-0.985,-0.9782,-1.004,0.0,-0.9924,-0.9949,-1.1827,-1.1686,-1.1838,-1.3153,-1.3714,-1.4078,-1.4186,-1.4196,-1.4196,-1.4196,-1.4504,-1.4821,-1.5035,-1.547,-1.5791,-1.5891,-1.5891,-1.5891,-1.5891,-1.5891,-1.5998,-1.6105,-1.6318,-1.6636,-1.6942,-1.6873,-1.7096,-1.74,-1.7893,-1.8703,-1.9704,-2.0718,-2.1365,-2.1919,-2.2008,-2.2264,-2.2618,-2.2715,-2.2969,-2.3135,0.0,0.0,0.0,0.0,0.0,0.0,0.0,0.0,0.0,0.0,0.0,0.0,0.0,0.0,0.0,0.0,0.0,0.0,0.0,1.6759,1.5732,1.3479,1.3388,1.3502,1.3754,1.0847,0.8187,0.5708,-0.5813,-1.1652,-1.2106,-1.2452,-1.3162,-1.4233,-1.4279,-1.4919,-1.607,-1.7161,-1.82,-1.9264,-2.0549,-2.1198,-2.1336,-2.1874,-2.1999,-2.1925,-2.1565,-2.1101,0.0,-1.9694,-1.8988,-1.8414,-1.7725,-1.6941,-1.6237,-1.6029,-1.517,-1.4318,-1.4553,-1.4792,-1.4727,-1.3802,-1.3145,-1.2303,-1.1125,-1.0774,-1.0524,-0.9861,-1.0381,-1.0807,-1.0364,-1.0587,-1.0847,-1.0938,-1.0412,-1.0561,-1.2169,-1.1945,-1.2037,-1.3506,-1.397,-1.4196,-1.4196,-1.4196,-1.4196,-1.4196,-1.4396,-1.4713,-1.5035,-1.5369,-1.5583,-1.5891,-1.5891,-1.5891,-1.5891,-1.5891,-1.5891,-1.5891,-1.6217,-1.6424,-1.6717,-1.7067,-1.7465,-1.7925,-1.891,-1.9712,-2.0348,-2.1275,-2.1741,-2.183,-2.2008,-2.2274,-2.253,-2.2715,-2.2969,-2.3135,0.0,0.0,0.0,0.0,0.0,0.0,0.0,0.0,0.0,0.0,0.0,0.0,0.0,0.0,0.0,0.0,0.0,0.0,0.0,1.614,1.54,1.5302,1.535,1.5025,1.45,1.2195,0.9863,0.7425,-1.6183,-2.216,-1.165,-1.6867,-1.8134,-1.5973,-1.5627,-1.5666,-1.607,-1.758,-1.8613,-1.9375,-2.0613,-2.1336,-2.1698,-2.1698,-2.1612,-2.1388,-2.1198,0.0,-2.0398,-1.9222,-1.8654,-1.8269,-1.6793,-1.6306,-1.6026,-1.4653,-1.3526,-1.2762,-1.3037,-1.3385,-1.3561,-1.2613,-1.2978,-1.3063,-1.0963,-1.118,-1.1292,-0.9268,-0.9501,-0.96,-0.8333,-0.892,-0.9561,-0.9532,-1.1239,-1.2166,-1.0894,-1.2719,-1.363,-1.2526,-1.3527,-1.4196,0.0,-1.4196,-1.4196,-1.4196,-1.4396,-1.4713,-1.5035,-1.5369,-1.5583,-1.5891,-1.5891,-1.5891,-1.5891,-1.5891,-1.5891,-1.5891,-1.6217,-1.6424,-1.6723,-1.8079,-1.8577,-1.8255,-2.0033,-2.06,-2.0348,-2.1275,-2.183,-2.2097,-2.2097,-2.2362,-2.2803,-2.2803,-2.2969,-2.3135,0.0,0.0,0.0,0.0,0.0,0.0,0.0,0.0,0.0,0.0,0.0,0.0,0.0,0.0,0.0,0.0,1.9083,1.834,1.6774,1.6311,1.6083,1.606,1.5274,1.4907,1.5087,1.2698,1.1122,1.0522,-0.0069,-0.6619,-0.9203,-1.0693,-1.3691,-1.773,-1.7379,-1.7415,-1.7736,-1.9069,-1.9683,-1.9966,-2.1388,-2.1987,-2.2011,-2.1874,-2.1537,-2.1019,0.0,0.0,-1.9562,-1.8307,-1.7774,-1.751,-1.6585,-1.5807,-1.488,-1.325,-1.2478,-1.2195,-1.2711,-1.2915,-1.296,-1.2443,-1.2192,-1.1725,-1.0697,-1.0632,-1.0546,-0.9972,-0.9809,-0.9509,-0.892,-0.9217,-0.9805,-1.0408,-1.1129,-1.1912,-1.3123,-1.3136,-1.3192,-1.3527,-1.397,0.0,0.0,0.0,0.0,-1.4196,-1.4299,-1.4396,-1.4713,-1.5041,-1.5261,-1.5583,-1.5791,-1.5891,-1.5891,-1.5891,-1.5891,-1.5885,-1.6132,-1.6358,-1.6444,-1.6881,-1.7387,-1.7969,-1.8621,-1.9402,-2.0365,-2.0798,-2.1318,-2.183,-2.2008,-2.2274,-2.253,-2.2706,-2.2969,-2.3135,0.0,0.0,0.0,0.0,0.0,0.0,0.0,0.0,0.0,0.0,0.0,0.0,0.0,0.0,0.0,0.0,0.0,1.8827,1.6579,1.6965,1.7316,1.7342,1.6352,1.5671,1.5432,1.3926,1.2885,1.246,0.7167,0.0512,-0.7284,-0.8897,-1.332,-1.9857,-1.934,-1.9204,-1.9354,-2.0322,-2.0719,-2.0741,-2.1901,-2.242,-2.2371,-2.1851,-2.1411,0.0,0.0,-1.9573,-1.8844,-1.7842,-1.7295,-1.695,-1.5886,-1.4832,-1.3697,-1.2588,-1.2172,-1.2119,-1.2634,-1.2747,-1.2534,-1.2015,-1.1494,-1.099,-1.0058,-1.0019,-1.0053,-0.9795,-0.9571,-0.9316,-0.8726,-0.9312,-0.9801,-0.969,-1.0927,-1.2229,-1.3011,-1.3028,-1.333,-1.4195,-1.4315,-1.4315,0.0,0.0,0.0,-1.4202,-1.4196,-1.4293,-1.4606,-1.4821,-1.5148,-1.5482,-1.5791,-1.5891,-1.5891,-1.5891,-1.5843,-1.5747,-1.6093,-1.6266,-1.6158,-1.6792,-1.7523,-1.8281,-1.8758,-1.9589,-2.0826,-2.0981,-2.1309,-2.1741,-2.2008,-2.2185,-2.2353,-2.2715,-2.2882,-2.2969,0.0,0.0,0.0,0.0,0.0,0.0,0.0,0.0,0.0,0.0,0.0,0.0,0.0,0.0,0.0,0.0,0.0,0.0,1.6796,1.8126,1.9021,1.8995,1.8389,1.7224,1.5531,1.5726,1.4953,1.3208,0.5756,-0.0633,-0.5981,-1.1088,-1.6601,-2.2115,-2.1393,-2.0934,-2.0685,-2.1342,-2.1616,-2.1678,-2.2211,-2.2604,-2.2726,-2.1577,0.0,0.0,0.0,-1.8844,-1.8375,-1.7842,-1.7285,-1.6515,-1.4784,-1.3563,-1.2672,-1.2574,-1.2444,-1.2373,-1.2802,-1.279,-1.2357,-1.1241,-1.1051,-1.0672,-0.9173,-0.9457,-0.9719,-0.8779,-0.8909,-0.8825,0.0,0.0,-0.9561,-0.7421,-1.0848,-1.3029,-1.0907,-1.2622,-1.4277,0.0,0.0,0.0,0.0,0.0,0.0,-1.4229,0.0,-1.4293,-1.4606,-1.4821,-1.5148,-1.5482,-1.5791,-1.5891,-1.5891,-1.5879,-1.5747,-1.5499,-1.5981,-1.6138,-1.5884,-1.7549,-1.8544,-1.9091,-2.016,-2.0994,-2.1463,-2.1571,-2.1571,-2.1651,-2.1919,-2.2097,-2.2185,-2.2627,-2.2803,-2.2803,0.0,0.0,0.0,0.0,0.0,0.0,0.0,0.0,0.0,0.0,0.0,0.0,0.0,0.0,0.0,0.0,0.0,0.0,1.9929,1.953,1.9285,1.9282,1.7975,0.0,0.0,0.0,0.0,1.4638,1.243,0.5559,-0.539,-0.6415,-1.2645,-2.2964,-2.2493,-2.1928,-2.1476,-2.1945,-2.2063,-2.1877,0.0,-2.2531,-2.2482,0.0,0.0,0.0,0.0,-1.9121,-1.7998,-1.7314,-1.6245,-1.5078,-1.4273,-1.3374,-1.2711,-1.2811,-1.2423,-1.2034,-1.2219,-1.1677,-1.0982,-1.0381,-0.9989,-0.954,-0.8796,-0.8717,-0.8623,-0.8375,-0.8133,-0.7839,-0.7341,0.0,0.0,-0.8119,-1.0643,0.0,-1.1875,-1.3168,0.0,-1.4509,0.0,-1.4606,-1.4778,-1.4794,0.0,0.0,-1.4288,-1.4196,-1.4299,-1.4611,-1.4821,-1.5148,-1.5476,-1.5684,-1.5891,-1.5698,-1.5565,-1.5493,-1.5601,-1.5668,-1.5592,-1.6242,-1.658,-1.67,-1.722,-1.7808,-1.8542,-1.9439,-2.0138,-2.0709,-2.1454,-2.1919,-2.2097,-2.2441,-2.2618,-2.2803,0.0,0.0,0.0,0.0,0.0,0.0,0.0,0.0,0.0,0.0,0.0,0.0,0.0,0.0,0.0,0.0,0.0,0.0,0.0,2.0258,1.9559,1.8994,1.8135,0.0,0.0,0.0,0.0,0.0,0.0,0.0,-0.0842,-0.3278,-0.9814,-1.9534,-2.2137,-2.295,-2.24,-2.2755,0.0,0.0,0.0,0.0,0.0,0.0,0.0,0.0,0.0,-1.8586,-1.7382,-1.6473,-1.5401,-1.4385,-1.37,-1.3146,-1.2726,-1.277,-1.2403,-1.1934,-1.1918,-1.1251,-1.0463,-1.0033,-0.9602,-0.9112,-0.8504,-0.8299,-0.8192,-0.7977,-0.755,-0.7276,-0.703,-0.823,-0.8947,0.0,0.0,0.0,-1.2178,-1.3326,-1.4315,0.0,-1.4692,0.0,-1.502,-1.5047,-1.4945,0.0,-1.4476,-1.4299,-1.4202,-1.4504,-1.4713,-1.4821,-1.5261,-1.553,-1.5722,-1.5572,-1.5384,-1.5149,-1.5245,-1.5329,-1.5305,-1.5523,-1.592,-1.6494,0.0,-1.721,-1.7986,-1.8722,-1.9518,-2.0348,-2.0898,-2.1454,-2.1919,-2.2176,-2.2441,-2.2618,0.0,0.0,0.0,0.0,0.0,0.0,0.0,0.0,0.0,0.0,0.0,0.0,0.0,0.0,0.0,0.0,0.0,0.0,0.0,0.0,0.0,0.0,0.0,0.0,1.7108,1.6825,1.6415,1.5856,1.5941,0.0,0.0,0.0,0.0,0.0,0.0,0.0,0.0,0.0,0.0,0.0,0.0,0.0,0.0,0.0,0.0,0.0,-1.89,-1.7706,-1.6621,-1.5551,-1.48,-1.4244,-1.3306,-1.2928,-1.2833,-1.27,-1.2283,-1.1957,-1.1693,-1.1079,-1.0376,-0.9859,-0.9428,-0.8995,-0.8288,-0.8072,-0.7876,-0.7567,-0.7238,-0.689,-0.6822,-0.8226,-0.9114,-0.812,0.0,-1.292,-1.2005,-1.3213,-1.4315,-1.4783,-1.4864,-1.4977,-1.523,-1.5278,-1.5198,-1.495,-1.4713,-1.4482,-1.425,-1.4418,-1.4606,-1.4606,-1.512,-1.5423,-1.5499,-1.5433,-1.5167,-1.4714,-1.4967,-1.5014,-1.5083,-1.5356,-1.6109,-1.7044,-1.7044,-1.7598,-1.8419,-1.8511,-1.9155,-2.0068,-2.0249,-2.0898,-2.1741,-2.2008,-2.2264,-2.253,0.0,0.0,0.0,0.0,0.0,0.0,0.0,0.0,0.0,0.0,2.309,2.303,0.0,0.0,0.0,0.0,0.0,0.0,0.0,0.0,0.0,0.0,0.0,0.0,1.7615,1.7323,1.6677,1.573,1.6239,1.3046,0.0,0.0,0.0,0.0,0.0,0.0,0.0,0.0,0.0,0.0,0.0,0.0,0.0,0.0,0.0,0.0,-1.8432,-1.7079,-1.6044,-1.5188,-1.4953,-1.4805,-1.3698,-1.3147,-1.2965,-1.2728,-1.2339,-1.1866,-1.1251,-1.0641,-0.9951,-0.9257,-0.8732,-0.8288,-0.7768,-0.7534,0.0,-0.7279,-0.6945,-0.6789,-0.6822,-0.7633,-0.8219,-0.8021,-1.0179,-1.1812,-1.1878,-1.3069,-1.4062,0.0,-1.4767,-1.4977,-1.523,-1.5424,0.0,0.0,-1.4961,-1.4724,-1.4487,-1.4293,-1.4509,-1.4928,-1.5047,-1.5228,-1.5499,-1.5071,-1.4805,-1.4714,-1.4777,-1.4737,-1.479,-1.5261,-1.5635,-1.5825,-1.6015,0.0,-1.6386,-1.7232,-1.8149,-1.9155,-1.9977,-2.0988,-2.2097,-2.2264,-2.253,-2.2803,0.0,0.0,0.0,0.0,0.0,0.0,0.0,2.345,2.3509,2.3509,2.3271,2.315,2.3271,2.2909,0.0,0.0,0.0,0.0,0.0,0.0,0.0,0.0,0.0,0.0,0.0,1.689,1.6493,1.6235,0.0,1.5238,1.2126,0.5102,-0.1831,-0.8705,-1.6271,-2.1655,-2.5109,0.0,0.0,-2.3989,-2.3365,-2.2884,0.0,0.0,0.0,0.0,0.0,0.0,-1.563,-1.5117,-1.4893,-1.4668,-1.3754,-1.3307,-1.3118,-1.2796,-1.2192,-1.151,-1.0987,-1.0207,-0.9519,-0.8999,-0.8556,-0.8113,-0.7591,0.0,0.0,-0.698,-0.6744,-0.6591,-0.6527,-0.7189,-0.7925,-0.8322,-0.9854,-1.1157,-1.1779,-1.2725,-1.3459,-1.3588,-1.3958,-1.439,-1.475,-1.4881,-1.5066,-1.5435,-1.509,-1.4783,-1.4546,-1.432,-1.4347,-1.4641,-1.4727,-1.485,-1.4886,-1.4742,-1.4642,-1.4497,-1.4461,-1.4592,-1.4885,-1.5172,-1.5452,-1.5642,-1.573,0.0,-1.5832,-1.6298,-1.7404,-1.888,-1.9338,-2.0529,-2.1919,-2.2176,-2.2353,-2.2618,0.0,0.0,0.0,0.0,0.0,0.0,0.0,2.3271,2.3463,2.3569,2.345,2.3403,2.3283,2.2848,2.2665,0.0,0.0,0.0,0.0,0.0,0.0,0.0,0.0,0.0,0.0,0.0,0.0,1.6592,1.6845,0.0,0.0,0.0,0.0,0.0,-1.1182,-1.8619,-2.5827,-2.5383,-2.4935,0.0,0.0,-2.3318,0.0,0.0,0.0,0.0,0.0,0.0,-1.5568,-1.5135,-1.4918,-1.4662,-1.3643,-1.3319,-1.3195,-1.2814,-1.1929,-1.1068,-1.0549,-0.9772,-0.9082,-0.8648,-0.8292,-0.7937,-0.7415,-0.7146,-0.6828,-0.6609,-0.6461,-0.6309,-0.6244,-0.6752,-0.7531,0.0,-0.9322,-1.0378,-1.1406,-1.2239,-1.2728,-1.2674,-1.3135,0.0,-1.4089,-1.4286,0.0,-1.5337,-1.5034,-1.4756,-1.4476,-1.4293,-1.419,-1.4262,-1.4404,-1.447,-1.4319,-1.4556,-1.4515,-1.4298,-1.4298,-1.4592,-1.4987,-1.5083,-1.5363,-1.573,-1.5737,0.0,0.0,-1.5832,-1.685,-1.8519,-1.8703,-1.9886,-2.1633,-2.1998,-2.2353,-2.2618,0.0,0.0,0.0,0.0,0.0,0.0,0.0,2.3403,2.3463,2.3569,2.345,2.3271,2.2969,2.2909,2.2848,0.0,0.0,0.0,0.0,0.0,0.0,0.0,0.0,0.0,0.0,0.0,0.0,1.6256,1.6782,0.0,0.0,0.0,0.0,0.0,0.0,-1.9793,-2.6975,-2.6297,0.0,0.0,0.0,0.0,0.0,0.0,0.0,0.0,0.0,-1.6811,-1.6149,-1.5568,-1.5423,-1.5242,-1.3467,-1.3029,-1.3021,-1.2784,-1.1757,-1.0549,-0.9859,-0.9161,-0.846,-0.7768,-0.7595,-0.7415,-0.6972,-0.67,-0.6471,-0.6341,-0.6188,-0.6121,-0.595,-0.6064,-0.6437,0.0,0.0,-0.9088,-1.0373,-1.1294,-1.203,-1.2259,0.0,0.0,-1.3189,-1.3963,-1.4519,-1.4733,-1.4803,-1.4692,-1.425,-1.4207,-1.419,-1.4262,-1.423,-1.428,-1.4319,-1.4364,-1.4322,-1.4298,-1.4298,-1.449,-1.479,-1.4987,-1.5267,-1.554,-1.5737,0.0,0.0,-1.5832,-1.6487,-1.7512,-1.8427,-1.9695,-2.1141,-2.2069,-2.2618,-2.3057,0.0,0.0,0.0,0.0,0.0,0.0,2.2969,2.315,2.3138,2.2932,2.2871,2.2689,2.2087,2.1889,2.1951,0.0,0.0,0.0,0.0,0.0,0.0,0.0,0.0,0.0,0.0,0.0,1.651,1.6615,1.7292,0.0,0.0,0.0,0.0,0.0,0.0,-1.6545,-2.7981,0.0,0.0,0.0,0.0,0.0,0.0,0.0,0.0,0.0,0.0,0.0,-1.5905,-1.583,-1.4958,-1.3742,-1.2261,-1.1136,-1.0499,-1.1225,-1.0982,-1.0207,-0.9428,-0.864,-0.7937,-0.7408,-0.7054,-0.6789,-0.6438,-0.608,-0.5827,-0.579,-0.5676,-0.5626,-0.5573,-0.5527,-0.5939,-0.7229,0.0,0.0,-0.9851,-1.0758,-1.1268,-1.115,-1.1738,0.0,0.0,0.0,-1.3255,-1.4028,-1.444,-1.4466,-1.3997,-1.397,-1.3968,-1.3833,-1.3785,-1.3834,-1.3791,-1.3978,-1.4112,-1.4298,-1.4298,-1.4394,-1.4694,-1.4987,-1.5267,-1.554,-1.573,0.0,0.0,-1.5832,-1.6393,-1.7326,-1.7785,-1.9055,-2.0863,-2.1329,-2.2148,-2.2969,0.0,0.0,0.0,0.0,0.0,2.1877,2.2775,2.2823,2.2689,2.2433,2.2359,2.2051,2.1451,2.106,2.0933,2.1302,0.0,0.0,0.0,0.0,0.0,0.0,0.0,0.0,0.0,0.0,1.6342,1.683,1.7529,1.7735,0.0,0.0,1.0759,-0.2602,0.0,0.0,0.0,0.0,0.0,0.0,0.0,0.0,0.0,0.0,0.0,0.0,0.0,0.0,0.0,0.0,0.0,-1.3003,-1.1266,-0.9719,-0.8744,-0.9278,-0.93,-0.8882,-0.8277,-0.7757,-0.7319,-0.6877,-0.652,-0.6257,-0.5994,-0.5638,-0.5371,-0.528,-0.5274,-0.5232,-0.5232,-0.5205,-0.5639,-0.6833,-0.7135,-0.7669,-0.9183,-1.0113,-1.0623,-1.0339,0.0,-1.1423,0.0,-1.1902,-1.2473,-1.3649,-1.4087,-1.4107,-1.3846,-1.3755,-1.361,-1.3373,-1.3501,-1.3489,-1.3545,-1.3738,-1.4022,-1.4298,-1.4298,-1.4437,-1.4805,-1.5005,-1.5338,-1.5699,-1.5813,0.0,0.0,-1.5865,-1.6204,-1.6857,-1.7232,-1.8411,-1.9951,-2.0773,-2.1695,-2.252,0.0,0.0,0.0,0.0,0.0,0.0,2.2775,2.2445,2.2175,2.2372,2.1928,2.1565,2.1451,2.0613,2.0096,2.0107,0.0,0.0,0.0,0.0,0.0,0.0,0.0,0.0,0.0,0.0,1.6272,1.6603,1.7185,1.7676,1.8008,1.8317,1.4433,0.6732,0.0,0.0,0.0,0.0,0.0,0.0,0.0,0.0,0.0,0.0,0.0,0.0,0.0,0.0,0.0,0.0,0.0,0.0,0.0,-0.932,0.0,0.0,-0.6461,-0.6142,-0.6142,-0.6242,-0.6343,-0.6171,-0.6083,-0.5994,-0.5549,-0.5371,-0.5282,-0.5099,-0.5179,-0.5232,-0.4946,-0.5105,-0.534,-0.5536,-0.6537,0.0,-0.7942,-0.932,-1.0164,0.0,0.0,-1.0765,-1.0952,-1.1693,-1.2634,-1.3659,-1.3755,0.0,-1.3846,-1.3604,-1.3367,-1.3114,-1.3408,-1.3489,-1.3545,-1.3738,-1.4022,-1.4298,-1.4298,-1.4534,-1.5091,-1.5091,-1.5537,-1.6299,0.0,0.0,0.0,-1.5952,-1.5832,-1.592,-1.7225,-1.7863,-1.8311,-2.0512,-2.1516,-2.1872,0.0,0.0,0.0,0.0,0.0,0.0,0.0,2.3361,2.3025,2.2643,2.2157,2.1688,2.118,2.0621,2.0333,2.0333,0.0,0.0,0.0,0.0,0.0,0.0,0.0,0.0,0.0,0.0,1.6495,1.6211,1.7241,1.7385,1.6872,1.7226,1.3294,0.5807,0.3532,0.0,0.0,0.0,0.0,0.0,0.0,0.0,0.0,0.0,0.0,0.0,0.0,0.0,0.0,0.0,0.0,0.0,0.0,0.0,0.0,-0.1955,-0.3198,-0.4796,-0.4442,-0.4273,-0.4372,-0.5003,-0.483,-0.4563,-0.4385,-0.4297,-0.421,-0.4478,-0.4072,-0.3903,-0.4569,-0.4814,-0.5236,-0.6232,-0.7033,0.0,0.0,0.0,0.0,-0.9955,-1.0369,-1.0716,0.0,0.0,-1.1948,-1.2211,-1.2837,-1.3163,-1.2972,-1.3148,-1.319,-1.3109,-1.3051,-1.3127,-1.3249,-1.3711,-1.3987,-1.4288,-1.4664,-1.4896,-1.5075,-1.5476,-1.5719,0.0,0.0,0.0,0.0,-1.5357,-1.5237,-1.5329,-1.5686,-1.648,-1.7524,-1.885,-1.9991,-2.105,0.0,0.0,0.0,0.0,0.0,0.0,0.0,2.3471,2.3068,2.2457,2.1907,2.142,2.0938,2.0573,2.042,2.042,0.0,0.0,0.0,0.0,0.0,0.0,0.0,0.0,0.0,1.6531,1.6497,1.6096,1.7149,1.7161,1.6229,1.6821,1.4287,0.9261,0.6843,0.0,0.0,0.0,0.0,0.0,0.0,0.0,-2.2238,0.0,0.0,0.0,0.0,0.0,0.0,0.0,0.0,0.0,0.0,0.0,0.0,0.0,0.0,-0.142,-0.1866,-0.2314,-0.2764,-0.3303,-0.3576,-0.3582,-0.3582,-0.3405,-0.3406,-0.3673,-0.3335,-0.3239,-0.3906,-0.4422,-0.5133,-0.6132,-0.7033,0.0,0.0,0.0,0.0,-0.9824,0.0,0.0,0.0,-1.1021,-1.1319,-1.1463,-1.1982,-1.2312,-1.2225,-1.2576,-1.2762,-1.2678,-1.2737,-1.2997,-1.3383,-1.3732,-1.4161,-1.456,-1.4927,-1.5161,-1.5252,-1.5444,-1.5607,0.0,0.0,0.0,0.0,-1.5084,-1.4963,-1.5053,-1.5232,-1.5835,-1.6698,-1.7818,-1.8939,-2.0147,0.0,0.0,0.0,0.0,0.0,0.0,0.0,0.0,2.2571,2.2018,2.1469,2.1044,2.081,2.0596,2.0524,2.0524,0.0,0.0,0.0,0.0,0.0,0.0,0.0,0.0,0.0,1.6154,1.6376,1.6275,1.7113,1.6994,1.6168,1.6917,1.6942,1.5926,0.9719,0.0,0.0,0.0,0.0,0.0,0.0,0.0,0.0,0.0,0.0,0.0,0.0,0.0,0.0,0.0,0.0,0.0,0.0,0.0,0.0,0.0,0.0,0.0,0.0,-0.0267,-0.1515,-0.1428,-0.2236,-0.3047,-0.2868,-0.2868,0.0,-0.2867,-0.2871,-0.2954,-0.2954,-0.3931,-0.4933,-0.5534,-0.6634,0.0,0.0,-0.8981,0.0,0.0,-1.0147,0.0,-1.0692,-1.068,-1.082,-1.1176,-1.1243,-1.1281,-1.1414,-1.1983,-1.2193,-1.2011,-1.2489,-1.3084,-1.3805,-1.3945,-1.4283,-1.5035,-1.5155,-1.527,-1.5451,-1.515,-1.532,0.0,0.0,0.0,0.0,-1.5023,-1.4903,-1.4993,-1.5424,-1.5602,-1.5772,-1.7234,-1.8263,-1.9118,0.0,0.0,0.0,0.0,0.0,0.0,0.0,0.0,0.0,0.0,2.2453,2.1999,2.1775,2.1626,2.1476,0.0,0.0,0.0,0.0,0.0,0.0,0.0,0.0,0.0,0.0,1.6895,1.6844,1.6244,1.7019,1.709,1.6421,1.6942,1.7274,1.7456,1.6361,0.0,0.0,0.0,0.0,0.0,0.0,0.0,0.0,0.0,0.0,0.0,-1.7541,-1.6236,0.0,0.0,0.0,0.0,0.0,0.0,0.0,0.0,0.4293,0.5097,0.3396,0.0,0.0536,-0.1254,-0.1792,-0.1884,0.0,-0.2242,-0.2241,-0.2778,0.0,-0.2097,-0.2859,-0.3341,-0.4028,-0.5334,0.0,-0.7036,-0.8035,0.0,0.0,-0.9647,-1.0039,-1.0366,-1.0366,-1.0466,-1.0477,-1.0646,-1.0802,-1.0804,-1.0914,-1.1255,-1.1707,-1.2218,-1.2323,-1.2752,-1.3303,-1.4095,-1.4631,-1.4798,-1.5404,-1.5529,-1.5191,-1.5362,-1.5195,0.0,0.0,0.0,-1.4703,-1.4416,-1.4289,-1.4381,-1.4617,-1.4781,-1.512,-1.6293,-1.7359,-1.8426,0.0,0.0,0.0,0.0,0.0,0.0,0.0,0.0,0.0,0.0,0.0,0.0,0.0,0.0,0.0,0.0,0.0,0.0,0.0,0.0,0.0,0.0,0.0,0.0,1.6558,1.6812,1.6716,1.6129,1.6926,1.6812,1.5833,1.6545,1.676,1.6431,1.7707,0.0,0.0,0.0,0.0,0.0,-2.4991,0.0,0.0,0.0,0.0,0.0,-1.7947,-1.623,0.0,-1.0815,-0.8092,-0.539,0.0,0.0,0.0,0.0,0.483,0.5725,0.3758,0.2774,0.1878,0.0,-0.0807,-0.1166,-0.1436,-0.1525,-0.1524,-0.1792,0.0,-0.1811,-0.276,-0.3338,-0.4228,0.0,-0.6539,0.0,0.0,0.0,-0.9068,-0.9333,-0.9716,-1.0036,0.0,0.0,-1.0285,-1.0314,-1.036,-1.026,-1.0179,-1.0657,-1.1288,-1.1893,-1.2399,-1.292,-1.3642,-1.4221,-1.4733,-1.5059,-1.5269,-1.5275,-1.5095,-1.4887,-1.4615,0.0,0.0,0.0,-1.413,-1.4148,-1.4088,-1.4166,-1.4405,-1.4566,-1.4817,-1.5658,-1.655,-1.7513,0.0,0.0,0.0,0.0,0.0,0.0,0.0,0.0,0.0,0.0,0.0,0.0,0.0,0.0,0.0,0.0,0.0,0.0,0.0,0.0,0.0,0.0,0.0,1.6566,1.6402,1.6312,1.6245,1.6087,1.6656,1.6402,1.5257,1.6162,1.6001,1.5065,1.6729,1.3645,0.0,0.0,-0.7303,0.0,-2.2929,0.0,0.0,0.0,0.0,0.0,0.0,0.0,0.0,-0.9065,-0.6455,-0.4597,-0.0977,0.0,0.0,0.0,0.0,0.0,0.358,0.2953,0.2504,0.1342,0.0179,-0.0628,-0.0628,-0.0807,-0.0897,-0.0718,0.0,-0.162,-0.2378,-0.3336,0.0,0.0,0.0,0.0,-0.8218,-0.8591,-0.8853,-0.9087,-0.9243,0.0,-1.0108,-1.0031,-0.9961,-1.0132,-0.9949,-0.9791,-0.9673,-1.0217,-1.083,-1.1484,-1.2353,-1.3293,-1.4041,-1.4289,-1.469,-1.5252,-1.4906,-1.4713,-1.4835,-1.4123,-1.3839,-1.3823,0.0,0.0,-1.3737,-1.3997,-1.4088,-1.4173,-1.4489,-1.465,-1.4734,-1.5173,-1.5899,-1.6854,0.0,0.0,0.0,0.0,0.0,0.0,0.0,0.0,0.0,0.0,0.0,0.0,0.0,0.0,0.0,0.0,0.0,0.0,0.0,0.0,0.0,0.0,1.6252,1.617,1.617,1.617,1.617,1.6087,1.617,1.617,1.5922,1.6087,1.6378,1.6627,1.7388,1.3467,0.627,0.5923,0.1222,-0.6741,-1.4426,0.0,0.0,0.0,0.0,0.0,0.0,0.0,0.0,-0.066,0.0852,-0.0888,0.2763,0.0,0.0,0.0,0.0,0.0,0.3846,0.3042,0.2238,0.0896,0.0179,-0.018,-0.0359,-0.0448,-0.0538,-0.0718,0.0,-0.0953,-0.1048,-0.1966,-0.3024,0.0,0.0,-0.7447,0.0,0.0,-0.8286,-0.8622,0.0,-0.9284,-0.9392,-0.9537,-0.9548,-0.9627,0.0,-0.9721,-0.9839,-0.9973,-1.0433,-1.1274,-1.1981,-1.2654,-1.3182,-1.4125,-1.4462,-1.439,-1.4628,-1.4335,-1.3755,-1.3592,-1.3533,-1.3519,0.0,-1.3652,-1.3997,-1.4088,-1.4088,-1.4088,-1.4321,-1.4566,-1.4734,-1.4999,-1.5816,-1.6935,0.0,0.0,0.0,0.0,0.0,0.0,0.0,0.0,0.0,0.0,0.0,0.0,0.0,0.0,0.0,0.0,0.0,0.0,0.0,0.0,0.0,1.559,1.5416,1.5492,1.5741,1.5582,1.5499,1.5325,1.5499,1.5499,1.5325,1.5575,1.5899,1.6131,1.687,1.5268,1.176,0.779,0.4126,-0.014,0.0,0.0,0.0,0.0,0.0,0.0,0.0,0.0,0.0,0.0,0.2889,0.0888,0.366,0.0,0.0,0.0,0.0,0.0,0.42,0.3221,0.2239,0.1165,0.0628,0.0359,0.009,-0.009,-0.0179,-0.0269,0.0,0.0,0.0,0.0,-0.3627,-0.5231,0.0,-0.7363,-0.7642,-0.7869,-0.8082,0.0,0.0,-0.8906,-0.9009,-0.9009,-0.9078,-0.9282,0.0,0.0,-0.9677,-0.9971,-1.0569,-1.1261,-1.181,-1.2389,-1.2794,-1.3501,-1.3896,-1.407,-1.3762,-1.3608,-1.3507,-1.3212,-1.3033,-1.3045,0.0,-1.3483,-1.3737,-1.4004,-1.4088,-1.4166,-1.4405,-1.465,-1.4741,-1.5082,-1.6147,-1.7513,0.0,0.0,0.0,0.0,0.0,0.0,0.0,0.0,0.0,0.0,0.0,0.0,0.0,0.0,0.0,0.0,0.0,0.0,0.0,0.0,1.4915,1.4838,1.4573,1.4734,1.5228,1.5075,1.4915,1.4734,1.4824,1.4831,1.4573,1.4901,1.5061,1.5137,1.5703,1.6101,1.583,0.9625,0.7153,0.6197,0.0,0.0,0.0,0.0,0.0,0.0,0.0,0.0,0.0,0.0,0.0,0.0,0.0,0.0,0.0,0.5983,0.5716,0.5001,0.42,0.3132,0.2151,0.1524,0.1076,0.0628,0.0538,0.0,0.0,0.0,0.0,0.0,0.0,-0.314,0.0,-0.6442,-0.6942,-0.7074,-0.7382,-0.7629,-0.7792,-0.79,-0.8223,-0.8428,-0.8636,-0.8603,-0.8718,0.0,0.0,0.0,-0.9478,-0.9947,-1.0428,-1.0987,-1.1485,-1.1992,-1.2283,-1.2511,-1.2959,-1.3539,-1.2961,-1.2893,-1.3219,-1.2892,-1.2705,-1.279,-1.3137,-1.3398,-1.3483,-1.3828,-1.3997,-1.4166,-1.4412,-1.4657,-1.4734,-1.5257,-1.6476,-1.7997,0.0,0.0,0.0,0.0,0.0,0.0,0.0,0.0,0.0,0.0,0.0,0.0,0.0,0.0,0.0,0.0,0.0,0.0,0.0,0.0,1.4405,1.4173,1.3913,1.4068,1.4734,1.4734,1.4741,1.4734,1.4566,1.4321,1.4173,1.4146,1.4223,1.4223,1.3957,1.3951,1.3937,1.3708,1.3642,1.2921,0.3977,0.0,0.0,0.0,0.0,0.0,0.0,0.0,0.0,0.0,0.0,0.0,0.0,0.0,0.6163,0.5628,0.4912,0.42,0.3223,0.224,0.1435,0.1436,0.1076,0.0718,0.0718,0.0628,0.0,0.009,0.0,0.0,0.0,-0.1867,-0.4028,-0.6439,-0.6639,-0.6639,-0.715,0.0,-0.7247,-0.7561,-0.7766,-0.7968,-0.7968,-0.824,0.0,0.0,0.0,0.0,-0.9474,-0.9505,-0.98,-1.0281,-1.0732,-1.0943,-1.1236,-1.1407,-1.1847,-1.2492,-1.262,-1.2618,-1.2508,-1.2637,-1.2881,-1.3052,-1.3143,-1.3307,-1.3652,-1.3737,-1.3913,-1.4088,-1.4166,-1.4412,-1.4734,-1.5257,-1.6476,-1.7997,0.0,0.0,0.0,0.0,0.0,0.0,0.0,0.0,0.0,0.0,0.0,0.0,0.0,0.0,0.0,0.0,0.0,0.0,0.0,0.0,1.3385,1.3052,1.2705,1.2528,1.2863,1.3209,1.347,1.347,1.2954,1.2699,1.2619,1.2601,1.251,1.2345,1.2077,1.1712,1.1348,1.131,1.1017,0.987,0.1684,-0.0079,0.0,0.0,0.0,0.0,0.0,0.0,0.0,0.0,0.6313,0.3842,0.3929,0.4283,0.4641,0.4378,0.3755,0.3132,0.2956,0.2152,0.1436,0.1436,0.1256,0.1076,0.0,0.0987,0.0807,0.0538,0.0556,0.0,0.0,0.0,-0.5432,-0.6142,-0.6339,-0.6437,-0.6637,-0.6785,-0.6917,-0.7018,-0.7418,-0.7724,-0.7724,-0.7972,0.0,0.0,0.0,0.0,-0.9278,-0.9484,-0.9832,-0.9989,-1.0318,-1.056,-1.0712,-1.0987,-1.131,-1.1701,-1.1965,-1.2214,-1.2363,-1.2448,-1.2619,-1.2875,-1.3052,-1.3228,-1.3483,-1.3652,-1.3828,-1.4088,-1.4412,-1.4748,-1.5173,-1.534,-1.6147,-1.7269,0.0,0.0,0.0,0.0,0.0,0.0,0.0,0.0,0.0,0.0,0.0,0.0,0.0,0.0,0.0,0.0,0.0,0.0,0.0,1.2254,1.2003,1.166,1.1322,1.1063,1.1063,1.1316,1.1746,1.218,1.1488,1.1063,1.1063,1.0778,1.06,1.026,0.9812,0.9274,0.8645,0.8099,0.7559,0.6464,0.0583,-0.2547,0.0,0.0,0.0,0.0,0.0,0.0,0.0,0.0,0.4272,0.3213,0.2769,0.3037,0.3393,0.322,0.2774,0.2329,0.224,0.1793,0.1345,0.1345,0.1345,0.0,0.1256,0.1166,0.1076,0.0807,0.0464,-0.0289,-0.2099,0.0,0.0,0.0,-0.6239,-0.6437,-0.6437,-0.6539,-0.6642,-0.6642,-0.7045,-0.7344,-0.7444,0.0,0.0,0.0,0.0,0.0,0.0,-0.9263,-0.9447,-0.9622,-0.9782,-1.0009,-1.0196,-1.0537,-1.0803,-1.1084,-1.1435,-1.178,-1.2283,-1.2363,-1.2534,-1.2705,-1.2875,-1.3137,-1.3398,-1.3568,-1.3828,-1.4173,-1.4573,-1.4908,-1.5173,-1.5347,-1.5982,-1.6854,0.0,0.0,0.0,0.0,0.0,0.0,0.0,0.0,0.0,0.0,0.0,0.0,0.0,0.0,0.0,0.0,0.0,0.0,1.0269,1.0269,1.0183,0.9923,0.9836,0.9749,0.9579,0.9061,0.9579,1.0956,1.0269,0.9749,0.9579,0.8773,0.8325,0.8142,0.7095,0.6386,0.5849,0.47,0.4082,0.3811,0.3006,0.1593,-0.0089,0.0,0.0,0.0,0.0,0.0,0.0,0.0,0.1431,0.2502,0.2771,0.304,0.304,0.2326,0.2059,0.188,0.0986,0.0897,0.1076,0.1076,0.1256,0.0,0.1436,0.1436,0.1256,0.0808,-0.0185,-0.1254,-0.22,-0.3524,0.0,-0.5839,-0.6239,-0.6437,-0.6437,-0.6437,-0.6437,-0.6437,-0.6639,-0.6942,-0.7138,0.0,0.0,0.0,0.0,0.0,0.0,-0.8481,-0.8687,-0.8968,-0.8914,-0.8997,-0.953,-0.9874,-1.0207,-1.0636,-1.1084,-1.1521,-1.2043,-1.2283,-1.2534,-1.2705,-1.2705,-1.296,-1.3398,-1.3398,-1.3652,-1.4173,-1.4573,-1.4734,-1.4734,-1.5257,-1.5906,-1.678,0.0,0.0,0.0,0.0,0.0,0.0,0.0,0.0,0.0,0.0,0.0,0.0,0.0,0.0,0.0,0.0,0.0,0.0,0.807,0.807,0.7899,0.7467,0.7295,0.7119,0.6851,0.6236,0.6675,0.8257,0.7731,0.7204,0.6848,0.6136,0.5735,0.5636,0.4639,0.3853,0.3163,0.1954,0.1017,0.0274,-0.0455,-0.1445,-0.2587,0.0,0.0,0.0,0.0,0.0,0.0,0.0,0.0,0.0,0.0358,0.0537,0.0717,0.0896,0.0986,0.1076,0.0986,0.1076,0.1166,0.1256,0.1076,0.0,0.0,0.1436,0.0,0.0,-0.0382,-0.1761,-0.1806,-0.3827,0.0,-0.5737,-0.6137,-0.6437,-0.6437,-0.6437,-0.6437,-0.6437,-0.6639,-0.6842,-0.6942,0.0,0.0,0.0,0.0,0.0,0.0,-0.8523,-0.8581,-0.8625,-0.8786,-0.8939,-0.9341,-0.9809,-1.0207,-1.0636,-1.1084,-1.1435,-1.1785,-1.2037,-1.2289,-1.2534,-1.2619,-1.296,-1.3398,-1.3743,-1.4075,-1.4321,-1.4482,-1.4566,-1.4734,-1.5082,-1.5333,-1.5733,0.0,0.0,0.0,0.0,0.0,0.0,0.0,0.0,0.0,0.0,0.0,0.0,0.0,0.0,0.0,0.0,0.0,0.0,0.0,0.0,0.5877,0.5617,0.5442,0.5265,0.491,0.4289,0.4306,0.5143,0.5193,0.5109,0.4881,0.3886,0.3381,0.3263,0.2237,0.1408,0.0666,-0.057,-0.1511,-0.2149,-0.2873,-0.3484,-0.4076,0.0,0.0,0.0,0.0,0.0,0.0,0.0,0.0,0.0,-0.0897,-0.0628,-0.0359,0.0,0.0269,0.0449,0.0628,0.0718,0.0807,0.0987,0.0897,0.0987,0.1345,0.0,0.0,0.0,-0.0966,-0.2462,-0.231,-0.4228,0.0,-0.5636,-0.6034,-0.6437,-0.6437,-0.6437,-0.6437,-0.6437,-0.6539,-0.6642,0.0,0.0,0.0,0.0,0.0,0.0,0.0,-0.8051,-0.821,-0.8193,-0.8391,-0.8662,-0.8819,-0.9432,-0.9951,-1.0381,-1.0819,-1.117,-1.1527,-1.1785,-1.2032,-1.2448,-1.2705,-1.3052,-1.3398,-1.3822,-1.4082,-1.4321,-1.4398,-1.4482,-1.4734,-1.4999,-1.5173,-1.534,0.0,0.0,0.0,0.0,0.0,0.0,0.0,0.0,0.0,0.0,0.0,0.0,0.0,0.0,0.0,0.0,0.0,0.0,0.0,0.0,0.3939,0.4022,0.402,0.3755,0.331,0.2871,0.2357,0.1939,0.2898,0.3356,0.3331,0.2036,0.1404,0.1145,-0.0095,-0.0956,-0.1534,-0.2678,-0.3343,-0.3618,-0.4202,-0.4629,-0.4796,-0.4424,0.0,0.0,0.0,0.0,0.0,0.0,0.0,0.0,-0.1076,-0.0807,-0.0448,-0.0359,-0.018,0.0,0.0,0.018,0.0448,0.0448,0.0807,0.1166,0.1256,0.0547,-0.0186,-0.0095,0.0,-0.3248,-0.3206,-0.4524,-0.5536,-0.5536,-0.6037,-0.6337,-0.6337,-0.6337,-0.6437,-0.6437,-0.6437,-0.6534,0.0,0.0,0.0,0.0,0.0,0.0,0.0,-0.753,-0.7629,-0.7706,-0.8012,-0.8201,-0.8201,-0.8907,-0.9519,-1.0038,-1.0376,-1.0814,-1.1354,-1.1613,-1.1952,-1.2448,-1.2881,-1.3137,-1.3392,-1.3652,-1.3822,-1.4088,-1.4321,-1.4482,-1.4657,-1.4999,-1.5173,-1.5423,0.0,0.0,0.0,0.0,0.0,0.0,0.0,0.0,0.0,0.0,0.0,0.0,0.0,0.0,0.0,0.0,0.0,0.0,0.0,0.0,0.1549,0.1793,0.1613,0.1433,0.1344,0.082,0.0552,0.0462,0.1379,0.1669,0.1325,0.0473,-0.0191,-0.0779,-0.1363,-0.2062,-0.2887,-0.3785,-0.4245,-0.4467,-0.4955,-0.5151,-0.5069,-0.4786,-0.4661,0.0,0.0,0.0,0.0,0.0,0.0,0.0,-0.0897,-0.0718,-0.0538,-0.018,0.009,0.0269,0.0269,0.0359,0.0448,0.0628,0.0897,0.1076,0.0897,-0.0273,-0.1017,-0.0186,-0.1721,-0.3136,-0.315,-0.4288,-0.524,-0.524,-0.5739,-0.6042,-0.6042,-0.6237,-0.6437,-0.6437,-0.6437,-0.6401,0.0,0.0,0.0,0.0,0.0,0.0,-0.7063,-0.7299,-0.7497,-0.7556,-0.7955,-0.8201,-0.8201,-0.8907,-0.9519,0.0,-1.0376,-1.0814,-1.1354,-1.1613,-1.1952,-1.2448,-1.2705,-1.2966,-1.3222,-1.3568,-1.3737,-1.3822,-1.4082,-1.4166,-1.425,-1.4657,-1.4824,-1.4908,0.0,0.0,0.0,0.0,0.0,0.0,0.0,0.0,0.0,0.0,0.0,0.0,0.0,0.0,0.0,0.0,0.0,0.0,0.0,0.0,0.0,0.0555,0.0277,0.0,-0.0277,-0.056,-0.0849,-0.1142,-0.076,-0.0382,0.0193,-0.0773,-0.1366,-0.1689,-0.2683,-0.3397,-0.383,-0.4636,-0.5007,-0.5145,-0.5293,-0.52,-0.5041,-0.4804,-0.4659,-0.4478,-0.4032,0.0,0.0,0.0,0.0,0.0,0.0,0.0,-0.0628,-0.0449,-0.009,0.009,-0.0359,-0.0448,-0.0538,-0.0806,-0.0716,-0.0626,-0.0626,-0.1534,-0.2182,-0.1637,-0.2725,-0.3864,-0.3864,-0.4481,-0.5101,-0.5101,-0.5489,-0.5781,-0.5686,-0.5879,-0.6071,-0.6071,-0.6071,-0.6147,0.0,0.0,0.0,0.0,0.0,-0.6688,-0.6731,-0.6992,-0.7138,-0.7326,-0.7676,-0.794,-0.8028,-0.8556,-0.9082,-0.9689,-0.9864,-1.0299,-1.0992,-1.144,-1.1866,-1.2118,-1.2448,-1.2705,-1.2966,-1.3392,-1.3652,-1.3737,-1.4004,-1.4166,-1.4243,-1.4489,-1.465,-1.4741,0.0,0.0,0.0,0.0,0.0,0.0,0.0,0.0,0.0,0.0,0.0,0.0,0.0,0.0,0.0,0.0,0.0,0.0,0.0,0.0,0.0,-0.0572,-0.0763,-0.1048,-0.1525,-0.1722,-0.2124,-0.255,-0.2756,-0.2168,-0.0986,-0.1774,-0.2285,-0.2521,-0.3831,-0.4539,-0.474,-0.5338,-0.5737,-0.572,-0.5528,-0.5356,-0.5235,-0.494,-0.4683,-0.441,-0.4214,-0.421,-0.421,-0.4121,0.0,0.0,0.0,0.0,-0.0718,-0.0628,-0.0359,-0.0269,-0.0987,-0.1256,-0.1613,-0.2415,-0.2503,0.0,-0.2233,-0.2771,-0.322,-0.322,-0.3966,-0.4549,-0.4549,-0.4748,-0.4946,-0.4946,-0.5322,-0.5608,-0.5424,-0.5608,-0.57,-0.57,-0.57,0.0,0.0,0.0,0.0,0.0,0.0,-0.6286,-0.6435,-0.6612,-0.6792,-0.7051,-0.7323,-0.7591,-0.7856,-0.8028,-0.8552,-0.9262,-0.9345,-0.9777,-1.0549,-1.117,-1.1613,-1.1785,-1.2203,-1.2448,-1.2705,-1.3137,-1.3483,-1.3652,-1.3913,-1.4159,-1.4314,-1.4398,-1.4566,-1.4734,0.0,0.0,0.0,0.0,0.0,0.0,0.0,0.0,0.0,0.0,0.0,0.0,0.0,0.0,0.0,0.0,0.0,0.0,-0.2838,0.0,0.0,-0.2476,-0.2476,-0.2477,-0.2572,-0.2809,-0.3033,-0.3139,-0.3093,-0.3116,-0.3213,-0.3115,-0.3423,-0.4135,-0.4338,-0.4941,-0.5842,-0.5942,-0.6039,-0.6323,-0.6198,-0.6147,-0.6024,-0.5415,-0.5148,-0.4954,-0.406,-0.3676,-0.3587,-0.3226,-0.2689,0.0,0.0,0.0,-0.0987,-0.0538,-0.0359,-0.0359,-0.018,-0.0808,-0.1614,-0.2598,-0.2684,-0.2502,0.0,0.0,-0.3489,0.0,-0.3832,-0.4453,-0.4453,-0.4518,-0.4666,-0.4851,-0.5135,-0.5327,-0.5329,-0.5514,-0.57,-0.57,-0.57,0.0,0.0,0.0,0.0,0.0,-0.5757,-0.5925,-0.6343,-0.6257,-0.6435,-0.7051,-0.7143,-0.7323,-0.7595,-0.7768,-0.8292,-0.8999,-0.9607,-0.9951,-1.0125,-1.0554,-1.1165,-1.1957,-1.2037,-1.2289,-1.2705,-1.3052,-1.3228,-1.3483,-1.3652,-1.3906,-1.4166,-1.4314,-1.4566,-1.4734,0.0,0.0,0.0,0.0,0.0,0.0,0.0,0.0,0.0,0.0,0.0,0.0,0.0,0.0,0.0,-0.3934,-0.3835,-0.3721,-0.3192,-0.3066,-0.3052,-0.3052,-0.3052,-0.315,-0.3443,-0.3572,-0.3886,-0.4283,-0.4318,-0.4435,-0.4732,-0.4634,-0.4535,-0.4636,-0.514,-0.5541,-0.6042,-0.6139,-0.6339,-0.6426,-0.6314,-0.6171,-0.6052,-0.5506,-0.5129,-0.4892,-0.43,-0.4162,-0.4387,-0.4117,-0.3582,-0.2956,-0.2867,0.0,0.0,0.0,-0.0718,-0.0717,-0.1613,-0.2776,-0.3941,0.0,-0.4387,-0.4293,-0.4293,-0.4472,-0.4563,-0.4291,-0.4506,-0.463,-0.4359,-0.4391,-0.4418,-0.4508,-0.4785,-0.4878,-0.4785,-0.4968,-0.5151,-0.5329,-0.5329,0.0,0.0,0.0,0.0,0.0,-0.5733,-0.5819,-0.6257,-0.6169,-0.6349,-0.6881,-0.6969,-0.7146,-0.7507,-0.7591,-0.7944,-0.8552,-0.8999,-0.9345,-0.9607,-0.9777,-1.0381,-1.1251,-1.178,-1.2123,-1.2375,-1.2881,-1.3137,-1.3228,-1.3568,-1.3639,-1.3668,-1.3911,-1.396,-1.4054,0.0,0.0,0.0,0.0,0.0,0.0,0.0,0.0,0.0,0.0,0.0,0.0,0.0,0.0,0.0,0.0,-0.4738,-0.4437,-0.3732,-0.3732,-0.3632,-0.3632,-0.3632,-0.3934,-0.4336,-0.4334,-0.4734,-0.5338,-0.5338,-0.5438,-0.5737,-0.5737,-0.5536,-0.5236,-0.5739,-0.6042,-0.6139,-0.6337,-0.6437,-0.6429,-0.6344,-0.6211,-0.5999,-0.5504,-0.5228,-0.4971,-0.4572,-0.4593,-0.4871,-0.4692,-0.4316,-0.3758,-0.3401,-0.2596,0.0,0.0,0.0,-0.1344,-0.313,-0.4474,-0.5374,-0.5644,-0.5733,-0.5733,0.0,0.0,-0.5371,0.0,-0.5099,-0.501,-0.4565,-0.4478,-0.4389,-0.4389,-0.4569,-0.4659,-0.4389,-0.4659,-0.4837,-0.501,-0.5099,0.0,0.0,0.0,0.0,0.0,-0.5733,-0.5822,-0.6083,-0.5997,-0.6263,-0.6795,-0.6707,-0.6884,-0.7415,-0.7507,-0.768,-0.8113,-0.8384,-0.874,-0.9087,-0.9262,-0.9689,-1.0294,-1.1338,-1.186,-1.2118,-1.2638,-1.2868,-1.3031,-1.3213,-1.3309,-1.3209,-1.3371,-1.3467,-1.3495,0.0,0.0,0.0,0.0,0.0,0.0,0.0,0.0,0.0,0.0,0.0,0.0,-0.6042,-0.5942,-0.5839,-0.5536,-0.5536,-0.5436,-0.514,-0.514,-0.4937,-0.4734,-0.4937,0.0,-0.514,-0.5436,-0.5536,-0.5536,-0.5536,-0.5737,-0.5942,-0.5942,-0.6139,-0.6337,-0.6139,-0.6139,-0.6337,-0.6437,-0.6437,-0.6437,-0.6429,-0.6429,-0.6315,-0.5713,-0.5477,-0.5363,-0.4786,-0.4506,-0.4336,-0.3878,-0.4008,0.0,0.0,-0.3133,-0.3753,0.0,0.0,0.0,-0.4113,-0.4474,0.0,-0.5466,-0.5733,-0.5733,0.0,0.0,-0.5644,-0.546,-0.5371,-0.528,-0.501,-0.4835,-0.4661,-0.4661,-0.4661,-0.4661,-0.4661,-0.4835,-0.501,-0.501,-0.5191,0.0,0.0,0.0,0.0,0.0,-0.5733,-0.5822,-0.6083,-0.5819,-0.6086,-0.6792,-0.6349,-0.6435,-0.7139,-0.7415,-0.768,-0.794,-0.8113,-0.838,-0.8656,-0.9087,-0.9345,-0.9432,-1.0554,-1.1591,-1.2345,-1.2188,-1.2337,-1.2731,-1.2475,-1.2603,-1.2909,-1.2915,-1.3213,-1.3495,0.0,0.0,0.0,0.0,0.0,0.0,0.0,0.0,0.0,0.0,0.0,0.0,0.0,-0.6239,-0.6139,-0.5839,-0.5737,-0.5536,-0.5436,-0.5438,-0.5436,-0.5336,-0.5436,-0.5438,-0.5438,-0.5536,-0.5636,-0.5839,-0.5839,-0.6039,-0.6239,-0.6239,-0.6337,-0.6437,-0.6339,-0.6337,-0.6437,-0.6437,-0.6437,-0.6437,-0.6437,-0.6437,-0.6331,-0.5996,-0.5839,-0.5674,0.0,0.0,0.0,0.0,0.0,0.0,0.0,0.0,0.0,0.0,-0.3575,-0.42,0.0,0.0,0.0,-0.5644,-0.5733,-0.5733,-0.5733,-0.5733,-0.5644,-0.546,-0.5463,-0.5463,-0.5099,-0.4921,-0.4835,-0.4748,-0.4661,-0.4661,-0.4661,-0.4748,-0.4926,-0.5193,-0.5371,0.0,0.0,0.0,0.0,0.0,0.0,-0.5733,-0.5822,-0.5733,-0.5911,-0.6349,-0.6171,-0.6349,-0.6881,-0.7326,-0.7507,-0.768,-0.7856,-0.8063,-0.8135,-0.8303,-0.8581,-0.8972,-0.9387,-1.0213,-1.1253,-1.1594,-1.1822,-1.1978,-1.2209,-1.2226,-1.2226,-1.2538,-1.2645,-1.277,0.0,0.0,0.0,0.0,0.0,0.0,0.0,0.0,0.0,0.0,0.0,0.0,0.0,0.0,-0.6337,-0.6139,-0.5937,-0.5837,-0.5737,-0.5737,-0.5737,-0.5636,-0.5636,-0.5737,-0.5737,-0.5802,-0.5902,-0.6139,-0.6106,-0.6203,-0.6437,-0.6437,-0.6437,-0.6437,-0.6437,-0.6437,-0.6437,-0.6437,-0.6437,-0.6437,-0.6437,-0.6437,-0.6337,-0.6139,-0.5996,0.0,0.0,0.0,0.0,0.0,0.0,0.0,0.0,0.0,0.0,0.0,0.0,0.0,-0.5184,0.0,0.0,0.0,-0.5641,-0.5822,-0.5733,0.0,-0.5644,-0.5552,-0.5644,-0.5552,-0.5191,-0.5099,-0.5013,-0.475,-0.4659,-0.4569,-0.4661,-0.4661,-0.4839,-0.5193,-0.5371,-0.5463,0.0,0.0,0.0,0.0,0.0,0.0,-0.5733,-0.5733,-0.5822,-0.5997,-0.6083,-0.6349,-0.6526,-0.7061,-0.7302,-0.7341,-0.7599,-0.7688,-0.7701,-0.7781,-0.8054,-0.8349,-0.853,-0.9341,-1.0595,-1.0928,-1.1232,-1.1464,-1.1691,-1.1778,-1.1694,-1.2005,-1.2185,-1.2231,0.0,0.0,0.0,0.0,0.0,0.0,0.0,0.0,0.0,-0.6437,0.0,0.0,0.0,0.0,0.0,-0.6437,-0.6437,-0.6337,-0.6042,-0.6042,-0.5939,-0.5636,-0.5839,-0.6042,-0.6042,-0.6232,-0.6328,-0.6437,-0.6328,-0.6328,-0.6437,-0.6437,-0.6437,-0.6437,-0.6437,-0.6437,-0.6437,-0.6437,-0.6437,-0.6437,-0.6437,-0.6437,-0.6337,0.0,0.0,0.0,-0.5441,-0.5178,0.0,-0.4315,0.0,0.0,0.0,0.0,0.0,0.0,0.0,0.0,0.0,0.0,0.0,0.0,0.0,0.0,-0.5733,0.0,-0.5733,-0.5733,-0.5733,-0.5644,-0.546,-0.5371,-0.5282,-0.4839,-0.448,-0.4389,-0.4661,-0.475,-0.4748,-0.501,-0.528,-0.5371,0.0,0.0,0.0,0.0,-0.5733,-0.5733,-0.5733,-0.5733,-0.5733,-0.5733,-0.6169,-0.6254,-0.6077,-0.6523,-0.6806,-0.6922,-0.7175,-0.7264,-0.736,-0.7604,-0.7679,-0.7667,-0.8133,-0.9115,-1.0342,-1.0116,-1.0423,-1.1105,-1.0918,-1.1037,-1.1409,-1.1409,-1.1632,-1.2003,0.0,0.0,0.0,0.0,0.0,0.0,0.0,0.0,-0.6437,0.0,0.0,0.0,-0.6437,-0.6437,-0.6437,-0.6437,-0.6437,-0.6337,-0.6339,-0.6337,-0.6237,-0.6137,-0.6237,-0.6337,-0.6337,-0.6307,-0.6404,-0.6437,-0.6404,-0.6404,-0.6437,-0.6437,-0.6437,-0.6437,-0.6437,-0.6437,-0.6437,-0.6437,-0.6437,-0.6437,-0.6437,-0.6437,0.0,0.0,0.0,0.0,0.0,-0.6022,-0.6192,0.0,-0.6012,-0.7318,0.0,0.0,0.0,0.0,0.0,0.0,-0.438,0.0,0.0,0.0,0.0,0.0,0.0,0.0,-0.5733,-0.5733,-0.5733,-0.5644,-0.5644,-0.5463,-0.5371,-0.5193,-0.5013,-0.4832,-0.4924,-0.4924,-0.5102,-0.5463,-0.546,-0.5463,0.0,0.0,0.0,0.0,-0.5733,-0.5733,-0.5733,-0.5733,-0.5733,-0.5733,-0.5994,-0.6125,-0.5944,-0.6294,-0.6398,-0.6344,-0.6428,-0.6516,-0.6778,-0.6778,-0.6955,-0.7156,-0.7426,-0.7897,-0.8554,-0.9351,-0.9872,-1.009,-1.0466,-1.0738,-1.0962,-1.1111,-1.1409,-1.1781,0.0,0.0,0.0,0.0,0.0,0.0,-0.7238,-0.6736,-0.6437,0.0,0.0,0.0,-0.6437,-0.6437,-0.6437,-0.6437,-0.6437,-0.6437,-0.6437,-0.6437,-0.6437,-0.6437,-0.6437,-0.6437,-0.6437,-0.6391,-0.6388,-0.6437,-0.6388,-0.6391,-0.6437,-0.6437,-0.6437,-0.6437,-0.6437,-0.6437,-0.6539,-0.6539,-0.6537,-0.6437,-0.6437,0.0,0.0,-0.6437,-0.6437,0.0,0.0,0.0,-0.6342,-0.5441,-0.6062,0.0,0.0,0.0,0.0,0.0,0.0,0.0,0.0,0.0,0.0,0.0,0.0,0.0,-0.5544,-0.5816,-0.5994,0.0,-0.5908,-0.5819,-0.5641,-0.5463,-0.5371,-0.528,-0.5191,-0.5191,-0.5191,-0.5099,-0.5099,-0.5552,-0.5463,-0.546,0.0,-0.5644,-0.5733,-0.5733,-0.5733,-0.5733,-0.5733,-0.5733,-0.5708,-0.5659,-0.5742,-0.5768,-0.5726,-0.5902,-0.6005,-0.587,-0.5952,-0.6044,-0.6146,-0.6304,-0.6492,-0.6637,-0.6945,-0.7176,-0.7476,-0.8394,-0.9089,-0.962,-0.9992,-1.0368,-1.0663,-1.0887,-1.126,-1.1632,0.0,0.0,0.0,-0.7942,-0.7537,-0.7238,-0.7138,-0.6736,-0.6437,0.0,-0.6437,-0.6437,-0.6437,-0.6437,-0.6437,-0.6437,-0.6437,-0.6437,-0.6437,-0.6437,-0.6437,-0.6437,-0.6437,-0.6437,-0.6437,-0.6339,-0.6336,-0.6437,-0.6336,-0.6339,-0.6437,-0.6437,-0.6437,-0.6437,0.0,0.0,-0.6845,-0.6842,-0.6639,-0.6437,-0.6437,-0.6437,0.0,0.0,-0.6437,-0.6337,-0.6139,-0.6042,-0.5942,-0.5441,-0.5478,0.0,0.0,0.0,0.0,0.0,-0.482,0.0,0.0,0.0,0.0,0.0,0.0,0.0,-0.5097,-0.5719,-0.6343,0.0,-0.6171,-0.5994,-0.5549,-0.546,-0.5371,-0.5099,-0.528,-0.546,-0.5371,-0.5191,-0.5099,-0.5371,-0.5371,-0.5371,-0.546,-0.5542,-0.5714,-0.5714,-0.57,-0.5692,-0.5692,-0.5692,-0.5643,-0.5448,-0.5446,-0.5387,-0.5352,-0.5521,-0.5539,-0.5414,-0.5651,-0.5668,-0.5559,-0.6025,-0.6183,-0.6257,-0.6637,-0.6865,-0.6865,-0.7249,-0.8246,-0.9392,-0.9468,-0.9916,-1.0438,-1.0663,-1.1037,-1.1409,0.0,0.0,0.0,-0.7743,-0.7441,-0.7138,-0.6942,-0.6639,-0.6437,-0.6437,-0.6437,-0.6437,-0.6437,-0.6437,-0.6437,-0.6437,-0.6437,-0.6437,-0.6437,-0.6437,-0.6437,-0.6437,-0.6437,-0.6437,-0.6437,-0.6415,-0.6415,-0.6437,-0.6415,-0.6415,-0.6437,-0.6437,-0.6437,-0.6437,0.0,0.0,-0.6845,-0.7039,0.0,-0.6742,-0.6742,-0.6639,-0.6437,-0.6437,-0.6437,-0.6437,-0.6337,-0.6139,-0.6042,-0.6137,-0.5824,-0.5397,0.0,0.0,0.0,-0.4087,0.0,0.0,0.0,0.0,0.0,0.0,0.0,0.0,-0.5181,-0.5894,-0.6428,0.0,-0.6343,-0.6254,-0.5994,-0.5994,-0.5905,-0.5641,-0.5644,-0.5552,-0.546,-0.5371,-0.5371,-0.5644,-0.5463,-0.5463,-0.5644,-0.5555,-0.5499,-0.5499,-0.5496,-0.5442,-0.5442,-0.5442,-0.5344,-0.5149,-0.5147,-0.5012,-0.4737,-0.4984,-0.4927,-0.4651,-0.4969,-0.519,-0.5162,-0.5398,-0.5709,-0.6018,-0.6254,-0.6486,-0.6637,-0.6942,-0.7476,-0.8241,-0.8851,-0.9382,-0.9846,-1.0368,-1.0812,-1.1186,0.0,-0.7842,-0.7743,-0.7441,-0.7141,-0.6942,-0.6842,-0.6539,-0.6437,-0.6437,-0.6437,-0.6437,-0.6437,-0.6437,-0.6437,0.0,0.0,0.0,0.0,-0.6437,-0.6437,-0.6437,-0.6437,-0.6437,-0.6437,-0.6437,-0.6437,-0.6437,-0.6437,-0.6437,-0.6437,-0.6437,-0.6437,-0.6437,-0.6642,-0.6842,-0.7042,0.0,-0.7241,-0.6942,-0.6845,0.0,-0.6437,-0.6437,-0.6437,-0.6437,-0.6437,-0.6239,-0.6042,-0.6139,-0.5739,0.0,0.0,-0.4968,-0.418,0.0,-0.3582,-0.3138,0.0,0.0,0.0,-0.2868,0.0,0.0,0.0,-0.6077,-0.6877,-0.6612,-0.6612,-0.6523,-0.6257,-0.6257,-0.6169,-0.608,-0.6083,-0.5991,-0.5902,-0.5727,-0.5552,-0.5644,-0.5644,-0.5531,-0.5561,-0.5499,-0.5526,-0.5464,-0.5404,-0.5368,-0.5368,-0.5368,-0.5258,-0.5035,-0.5033,-0.4816,-0.4465,-0.4624,-0.4597,-0.4384,-0.4621,-0.4698,-0.4693,-0.5007,-0.5237,-0.5473,-0.5789,-0.6025,-0.6099,-0.6328,-0.6633,-0.7176,-0.8012,-0.8856,-0.9468,-0.9922,-1.0438,-1.0962,-0.7743,-0.7543,-0.7444,-0.7138,-0.6942,-0.6745,-0.6742,-0.6539,-0.6437,-0.6437,-0.6437,-0.6437,-0.6437,-0.6337,-0.6337,0.0,0.0,0.0,0.0,-0.6337,-0.6337,-0.6437,-0.6437,-0.6437,-0.6437,-0.6437,-0.6437,-0.6437,-0.6437,-0.6437,-0.6437,-0.6437,-0.6437,-0.6537,-0.6742,-0.7042,-0.7338,-0.7543,0.0,-0.7238,0.0,-0.6639,-0.6437,-0.6437,-0.6437,-0.6437,-0.6437,-0.6237,-0.6042,-0.6042,-0.5741,-0.534,-0.524,-0.4912,0.0,0.0,0.0,0.0,0.0,0.0,0.0,0.0,0.0,-0.5184,0.0,0.0,0.0,-0.6881,-0.6881,-0.6789,-0.652,-0.652,0.0,0.0,0.0,0.0,0.0,-0.6045,0.0,-0.5786,-0.5808,-0.5761,-0.5615,-0.5579,-0.5431,-0.5391,-0.5383,-0.5301,-0.5301,-0.5301,-0.5094,-0.4841,-0.4758,-0.4634,-0.4307,-0.4307,-0.4307,-0.4307,-0.4384,-0.4384,-0.4384,-0.4693,-0.4927,-0.5004,-0.5321,-0.5559,-0.5637,-0.5789,-0.6022,-0.6412,-0.7326,-0.8246,-0.9089,-0.9468,-1.0067,-1.0663,-0.7238,-0.7238,-0.7138,-0.6842,0.0,0.0,0.0,0.0,-0.6437,-0.6437,-0.6437,-0.6437,-0.6437,0.0,0.0,0.0,0.0,0.0,-0.6042,0.0,-0.6139,-0.6437,-0.6437,-0.6437,-0.6437,-0.6437,-0.6437,-0.6437,-0.6437,-0.6437,-0.6437,-0.6437,-0.6539,0.0,-0.7039,0.0,-0.7547,0.0,-0.7842,0.0,-0.7241,-0.6839,0.0,-0.6437,-0.6437,-0.6437,-0.6437,-0.6337,-0.6337,0.0,-0.5942,-0.5842,0.0,-0.5105,-0.4851,-0.4571,0.0,0.0,0.0,0.0,0.0,0.0,-0.3673,0.0,0.0,0.0,-0.6609,-0.6962,0.0,-0.6966,-0.6792,0.0,0.0,0.0,0.0,0.0,-0.6279,-0.6177,-0.6177,-0.6177,-0.6274,-0.6246,-0.5996,-0.5703,-0.5422,-0.5294,-0.5132,-0.5056,-0.5056,-0.4896,-0.4653,-0.4482,-0.4252,-0.4088,-0.3841,-0.4077,-0.4077,-0.3841,-0.4229,-0.4309,-0.4157,-0.4384,-0.4693,-0.5004,-0.5082,-0.5243,-0.5637,-0.5637,-0.587,-0.6416,-0.7176,-0.771,-0.8089,-0.916,-0.9771,-1.0143,-0.6942,-0.6942,-0.6842,-0.6639,0.0,0.0,0.0,0.0,0.0,0.0,0.0,0.0,0.0,0.0,0.0,0.0,0.0,-0.5839,0.0,0.0,0.0,-0.6437,-0.6437,-0.6437,-0.6437,-0.6437,-0.6437,-0.6437,-0.6437,-0.6437,-0.6639,-0.6639,0.0,0.0,-0.7341,0.0,-0.7646,0.0,-0.7842,0.0,0.0,0.0,0.0,-0.6437,-0.6437,-0.6437,-0.6437,-0.6437,-0.6337,0.0,-0.6139,0.0,0.0,0.0,0.0,0.0,0.0,0.0,0.0,0.0,0.0,0.0,0.0,0.0,-0.501,0.0,-0.6346,0.0,0.0,0.0,0.0,0.0,0.0,0.0,-0.7017,0.0,0.0,0.0,-0.6665,0.0,0.0,0.0,-0.5933,0.0,0.0,0.0,-0.5246,-0.5093,-0.5018,-0.4779,-0.4698,-0.4543,-0.4233,-0.4079,-0.3999,-0.3921,-0.3921,-0.3763,-0.3997,-0.3997,-0.3921,-0.4155,-0.4309,-0.4465,-0.4616,-0.4774,-0.4932,-0.5165,-0.5476,-0.5789,-0.6486,-0.7176,-0.7859,-0.8627,-0.9241,-0.9846,-0.6642,-0.6642,-0.6639,-0.6437,0.0,0.0,0.0,0.0,0.0,0.0,0.0,0.0,-0.6339,-0.6237,0.0,0.0,-0.5741,-0.5539,0.0,0.0,-0.5737,0.0,0.0,0.0,-0.5934,-0.6237,-0.6437,-0.6437,-0.6437,-0.6539,-0.6845,-0.6845,0.0,0.0,0.0,-0.7646,-0.7743,0.0,-0.7842,-0.7643,-0.7441,-0.7141,-0.6742,-0.6537,-0.6437,-0.6437,-0.6437,-0.6437,-0.6437,-0.6437,-0.6237,0.0,-0.5939,0.0,0.0,0.0,0.0,0.0,-0.4389,0.0,0.0,0.0,0.0,0.0,0.0,0.0,0.0,0.0,0.0,0.0,0.0,0.0,-0.7841,0.0,0.0,-0.745,0.0,-0.7144,0.0,0.0,0.0,0.0,0.0,0.0,0.0,0.0,0.0,-0.5323,-0.5093,-0.4854,-0.4698,-0.4621,-0.4311,-0.4079,-0.3999,-0.3843,-0.3763,-0.3763,-0.3763,-0.3841,-0.3921,-0.3999,-0.4077,-0.4155,-0.4309,-0.4387,-0.454,-0.4774,-0.5085,-0.5401,-0.5948,-0.6714,-0.7629,-0.8169,-0.8856,-0.9544,-0.6437,-0.6437,-0.6437,0.0,0.0,0.0,0.0,0.0,0.0,0.0,0.0,0.0,0.0,0.0,0.0,0.0,0.0,-0.4533,-0.3729,0.0,-0.483,0.0,0.0,-0.5934,0.0,-0.5837,-0.6437,-0.6437,-0.6437,-0.6539,-0.6845,-0.6845,-0.7045,0.0,-0.7547,-0.7743,-0.7939,-0.8038,-0.8038,-0.7942,-0.7743,-0.7244,-0.6742,0.0,-0.6437,-0.6437,-0.6437,0.0,0.0,-0.6437,-0.6437,0.0,0.0,0.0,0.0,0.0,0.0,0.0,0.0,0.0,0.0,-0.43,0.0,0.0,0.0,0.0,-0.5366,0.0,0.0,0.0,0.0,-0.7944,0.0,0.0,0.0,0.0,0.0,0.0,0.0,0.0,0.0,0.0,0.0,-0.6506,-0.618,0.0,-0.5712,-0.5479,-0.5321,-0.5082,-0.4849,-0.4384,-0.4233,-0.3999,-0.3841,-0.3841,-0.3763,-0.3763,-0.3763,-0.3921,-0.4079,-0.3921,-0.3995,-0.4384,-0.4155,-0.4311,-0.4701,-0.4701,-0.509,-0.5559,-0.5637,-0.6173,-0.7019,-0.8016,-0.8627,-0.915,-0.6437,-0.6437,-0.6437,0.0,0.0,0.0,0.0,-0.6437,0.0,0.0,-0.5031,0.0,0.0,-0.4628,-0.4732,0.0,0.0,-0.393,-0.3629,-0.4228,0.0,0.0,0.0,-0.5934,0.0,0.0,0.0,0.0,0.0,-0.6637,-0.7039,-0.7039,-0.7341,0.0,0.0,-0.7942,0.0,0.0,0.0,0.0,0.0,-0.7244,-0.6742,0.0,-0.6437,-0.6437,-0.6437,-0.6437,0.0,-0.6437,-0.6437,-0.6337,-0.5939,-0.5786,-0.5514,-0.5041,-0.4719,0.0,0.0,0.0,-0.43,-0.43,0.0,0.0,0.0,0.0,0.0,0.0,0.0,0.0,0.0,0.0,0.0,0.0,0.0,0.0,0.0,0.0,0.0,0.0,0.0,0.0,0.0,0.0,0.0,0.0,-0.5864,0.0,-0.5321,-0.5082,-0.4929,-0.4779,-0.4465,-0.4309,-0.4387,-0.4229,-0.4229,-0.4229,-0.4077,-0.4001,-0.4079,-0.3921,-0.3841,-0.3997,-0.4077,-0.4077,-0.4153,-0.4387,-0.4774,-0.524,-0.524,-0.5938,-0.6942,-0.7557,-0.8246,-0.8927,-0.6437,-0.6437,0.0,0.0,0.0,0.0,0.0,0.0,0.0,0.0,-0.4329,0.0,-0.3925,0.0,-0.4431,0.0,-0.383,-0.3324,-0.3021,-0.3221,0.0,-0.2115,-0.4024,0.0,0.0,0.0,0.0,0.0,0.0,-0.6637,-0.7238,-0.7238,-0.7437,0.0,0.0,-0.8038,-0.8038,-0.8038,-0.8038,0.0,0.0,-0.7347,0.0,0.0,-0.6437,-0.6437,0.0,-0.6437,-0.6437,-0.6437,-0.6437,-0.6337,-0.6042,-0.5789,-0.5514,-0.5135,-0.4809,-0.448,-0.4389,-0.43,0.0,-0.43,-0.421,0.0,-0.43,0.0,0.0,0.0,0.0,0.0,0.0,0.0,0.0,0.0,0.0,0.0,0.0,-0.8098,0.0,0.0,0.0,0.0,0.0,0.0,0.0,-0.6099,-0.6022,-0.5867,0.0,0.0,-0.5087,-0.4937,-0.4621,-0.4543,-0.4621,-0.4462,-0.4384,-0.4309,-0.4155,-0.4079,-0.4079,-0.3921,-0.3841,-0.3921,-0.3999,-0.3921,-0.3919,-0.4229,-0.4616,-0.5004,-0.5237,-0.5935,-0.6865,-0.7249,-0.8089,-0.9236,-0.6437,-0.6437,0.0,0.0,-0.6437,0.0,0.0,0.0,-0.4429,0.0,-0.4126,-0.3825,-0.3627,-0.4435,-0.4533,-0.3324,-0.3123,-0.2718,-0.1912,-0.1912,0.0,0.0,-0.2015,-0.2317,-0.121,0.0,0.0,0.0,0.0,0.0,0.0,0.0,0.0,0.0,-0.8038,0.0,-0.8038,-0.8038,-0.8038,-0.7942,-0.7646,-0.7543,-0.7444,-0.6842,-0.6539,-0.6337,-0.6437,-0.6437,-0.6437,-0.6437,-0.6437,-0.6337,-0.6042,-0.5694,-0.5327,-0.5041,-0.4625,-0.4208,-0.43,-0.43,-0.43,-0.4297,0.0,0.0,0.0,0.0,-0.3764,0.0,0.0,0.0,0.0,0.0,0.0,0.0,0.0,0.0,0.0,0.0,0.0,0.0,0.0,0.0,0.0,0.0,-0.6714,-0.6338,-0.6338,-0.6106,0.0,0.0,-0.5326,-0.4776,-0.4701,-0.4621,-0.4462,-0.4462,-0.4309,-0.4157,-0.4157,-0.4157,-0.4079,-0.3921,-0.3921,-0.4079,-0.3921,-0.3921,-0.4079,-0.4309,-0.4616,-0.5082,-0.5628,-0.6173,-0.6714,-0.7092,-0.8237,-0.9771,-0.6437,-0.6437,-0.6437,0.0,-0.6437,-0.6337,0.0,0.0,0.0,0.0,-0.302,-0.2717,-0.3224,-0.2821,-0.272,-0.3123,-0.1713,0.0,0.0,0.0,0.0,0.0606,-0.1511,-0.2317,-0.121,-0.3525,0.0,-0.4834,0.0,0.0,-0.6942,0.0,0.0,0.0,0.0,-0.8038,-0.8038,-0.8038,-0.8038,-0.7939,-0.7039,-0.6637,-0.6331,0.0,-0.5033,-0.5539,-0.6137,-0.6437,-0.6437,-0.6437,-0.6437,-0.6337,-0.6042,-0.5198,-0.437,-0.4849,-0.4162,-0.3403,-0.4119,-0.43,-0.421,-0.3853,-0.3676,-0.3497,0.0,0.0,0.0,0.0,0.0,0.0,0.0,0.0,0.0,0.0,0.0,0.0,0.0,0.0,0.0,-0.7885,0.0,0.0,0.0,-0.7176,-0.6876,-0.6338,-0.6412,-0.6257,-0.5637,0.0,0.0,-0.5165,-0.5012,-0.4935,-0.5087,-0.4935,-0.4781,-0.4784,-0.4626,-0.4467,-0.4309,-0.4077,-0.3999,-0.3921,-0.3999,-0.4079,-0.4079,-0.4309,-0.4616,-0.5004,-0.5318,-0.617,-0.733,-0.8089,-0.8546,-0.9084,-0.6437,-0.6337,0.0,-0.6037,0.0,0.0,-0.5336,-0.473,0.0,-0.3021,-0.2317,0.0,-0.2418,-0.1916,-0.1613,-0.1813,-0.0705,0.0,-0.0202,0.0,0.0,0.0505,-0.0504,-0.0806,-0.0303,-0.2216,0.0,-0.3425,0.0,0.0,-0.6137,0.0,0.0,0.0,0.0,-0.7842,-0.7939,-0.7537,-0.7338,-0.7238,-0.6132,-0.5527,0.0,-0.4325,-0.4327,-0.4732,-0.4931,-0.5331,-0.5634,-0.5131,-0.5031,-0.5022,-0.4785,-0.4091,-0.3321,-0.367,-0.303,-0.2327,-0.2864,-0.3042,-0.3044,-0.3226,-0.2959,-0.278,-0.3138,-0.2868,-0.2599,0.0,0.0,0.0,0.0,0.0,0.0,0.0,0.0,0.0,0.0,0.0,0.0,0.0,-0.8093,0.0,0.0,-0.733,-0.6953,-0.6338,-0.649,-0.6331,0.0,0.0,0.0,-0.5168,-0.5093,-0.5015,-0.5168,-0.5093,-0.4937,-0.4859,-0.4779,-0.4545,-0.4231,-0.4155,-0.3999,-0.3841,-0.3921,-0.3999,-0.4079,-0.4309,-0.4616,-0.5082,-0.5854,-0.6784,-0.771,-0.8627,-0.8937,-0.9165,-0.6337,0.0,0.0,0.0,0.0,0.0,0.0,-0.3723,0.0,-0.2114,0.0,-0.1412,-0.1613,-0.1513,-0.1008,-0.0101,0.0,0.0101,-0.0101,0.0909,0.1111,-0.0101,0.0707,0.1111,0.0808,-0.0504,-0.131,0.0,0.0,0.0,0.0,0.0,0.0,0.0,0.0,0.0,0.0,-0.6836,-0.6337,-0.6134,-0.5027,-0.4423,-0.4219,-0.3823,-0.3723,-0.3725,-0.3123,-0.3627,-0.4531,-0.3525,-0.3218,-0.3203,-0.3248,-0.2702,-0.2174,-0.2228,-0.182,-0.1253,-0.1342,-0.1431,-0.1611,-0.2418,-0.1973,-0.1614,-0.2959,-0.2601,-0.1974,-0.2064,-0.242,-0.242,0.0,0.0,0.0,0.0,0.0,0.0,0.0,0.0,0.0,0.0,0.0,0.0,0.0,0.0,-0.6953,-0.6416,-0.6486,0.0,0.0,0.0,0.0,-0.5018,-0.5018,-0.5018,-0.5015,0.0,-0.4859,-0.4701,-0.4698,-0.4467,-0.4157,-0.4079,-0.3999,-0.3763,-0.3841,-0.3921,-0.4155,-0.4384,-0.4771,-0.5315,-0.6626,-0.7472,-0.8012,-0.8937,-0.9397,-0.9695,-0.6139,0.0,0.0,0.0,0.0,-0.3623,-0.2615,-0.1611,-0.1209,-0.1613,-0.0907,-0.0605,-0.1513,-0.0806,-0.0202,0.0,0.0807,0.0,0.0,0.0,0.0,0.1212,0.1212,0.1111,0.0808,-0.0504,-0.131,0.0,0.0,0.0,0.0,0.0,0.0,0.0,0.0,0.0,-0.6637,-0.6437,0.0,-0.5024,-0.3925,-0.3423,-0.3323,-0.2118,-0.222,-0.2823,-0.1413,-0.2117,-0.3728,-0.3324,-0.3189,-0.3245,-0.3234,-0.2293,-0.1298,-0.2033,-0.1366,-0.0448,-0.1164,-0.1431,-0.1343,-0.1165,-0.0807,-0.0718,-0.1076,-0.0986,-0.0897,-0.1436,-0.1614,-0.1705,-0.1974,0.0,0.0,0.0,0.0,0.0,0.0,0.0,0.0,0.0,0.0,-0.6692,0.0,0.0,0.0,0.0,0.0,0.0,0.0,0.0,0.0,0.0,-0.5093,0.0,0.0,0.0,-0.4701,-0.4701,-0.4543,-0.4384,-0.4307,-0.4155,-0.3999,-0.3841,-0.3999,-0.4155,-0.4384,-0.4771,-0.5395,-0.6103,-0.671,-0.7476,-0.8322,-0.8851,-0.9685,-1.0594,-0.5641,0.0,0.0,0.0,0.0,0.0,0.0,-0.0101,0.0303,-0.0605,-0.0302,-0.0202,-0.0706,0.0202,0.0807,0.0807,0.1313,0.1617,0.1617,0.1617,0.1617,0.1617,0.1516,0.1212,0.0808,0.0202,-0.0404,-0.0807,0.0,0.0,0.0,0.0,0.0,-0.4423,0.0,-0.5198,0.0,0.0,0.0,-0.3867,-0.2782,-0.23,-0.2118,-0.1313,-0.1313,-0.1615,-0.0606,-0.0903,-0.1888,-0.159,-0.158,-0.1563,-0.1531,-0.0844,-0.0184,-0.0639,-0.009,0.0628,0.0179,0.009,0.0,-0.0269,0.0,0.0179,-0.0359,-0.0179,0.009,-0.0269,-0.0269,-0.0538,-0.1436,-0.2061,0.0,0.0,0.0,0.0,0.0,0.0,0.0,0.0,0.0,0.0,0.0,0.0,0.0,0.0,0.0,0.0,0.0,0.0,0.0,0.0,0.0,0.0,0.0,0.0,0.0,-0.4701,-0.4621,-0.4465,-0.4231,-0.4157,-0.4079,-0.3999,-0.4079,-0.4309,-0.4771,-0.5237,-0.5938,-0.6637,-0.7322,-0.8008,-0.8775,-0.9311,-1.0062,-1.0887,0.0,-0.4636,0.0,0.0,-0.2016,0.0,-0.0101,0.0908,0.1313,0.0403,0.0303,0.0303,0.0303,0.1111,0.1617,0.1617,0.1617,0.1617,0.1617,0.1617,0.1617,0.1617,0.1617,0.1415,0.0909,0.0909,0.0606,0.0,0.0,0.0,0.0,0.0,0.0,0.0,0.0,0.0,0.0,0.0,-0.3024,-0.2744,-0.1865,-0.1391,-0.1212,-0.0909,-0.0808,-0.0707,-0.0302,-0.0199,-0.0392,-0.0097,0.0,0.0,0.0093,0.0369,0.0733,0.0811,0.1076,0.1436,0.1436,0.1436,0.1256,0.0448,0.0807,0.1076,0.0179,0.0448,0.0897,0.0718,0.0718,0.0448,-0.0538,-0.0718,0.0,0.0,0.0,0.0,0.0,0.0,0.0,0.0,0.0,0.0,-0.4215,0.0,0.0,0.0,0.0,0.0,-0.5941,0.0,0.0,0.0,0.0,-0.5168,-0.5015,0.0,-0.4935,-0.4701,-0.4701,-0.4545,-0.4235,-0.4155,-0.4155,-0.4155,-0.4235,-0.4543,-0.516,-0.586,-0.6479,-0.7019,-0.7931,-0.8618,-0.9079,-0.9841,-1.0443,-1.1105,0.0,0.0,0.0,0.0,0.0,0.0,0.0,0.0908,0.1516,0.1414,0.1414,0.1414,0.1414,0.1516,0.1617,0.1617,0.1617,0.1617,0.1617,0.1617,0.1617,0.1617,0.1617,0.1415,0.1212,0.1212,0.0909,0.0,0.0,-0.09,0.0,0.0,0.0,0.0,0.0,0.0,0.0,-0.305,-0.2603,-0.1767,-0.1375,-0.1192,-0.1212,-0.0909,-0.0808,-0.0806,-0.0495,-0.0393,-0.0391,-0.0094,0.0,0.0,0.0278,0.0548,0.0719,0.0987,0.1256,0.1436,0.1436,0.1436,0.1346,0.1256,0.1705,0.1885,0.1166,0.1345,0.1525,0.0807,0.0718,0.0628,0.0538,0.0538,0.0269,0.0,0.0,0.0,0.0,0.0,-0.2195,-0.251,0.0,0.0,0.0,-0.3908,0.0,0.0,-0.6012,0.0,0.0,0.0,0.0,-0.5559,0.0,-0.524,-0.5004,-0.5004,-0.4929,-0.4701,-0.4701,-0.4698,-0.4623,-0.4465,-0.4384,-0.4384,-0.4543,-0.5012,-0.5637,-0.6479,-0.6945,-0.7257,-0.847,-0.8922,-0.915,-1.0282,-1.1111,-1.1774,0.0,0.0,0.0,0.0,0.0,0.0,0.0,0.1344,0.1644,0.1644,0.1628,0.1617,0.1617,0.1617,0.1617,0.1617,0.1617,0.1617,0.1617,0.1617,0.1617,0.1617,0.1617,0.1516,0.1212,0.1212,0.0909,0.0,0.0,0.0,0.0,0.0,0.0,0.0,0.0,-0.1702,-0.1403,-0.159,-0.1515,-0.1158,-0.0965,-0.0983,-0.0908,-0.0698,-0.0596,-0.0495,-0.0291,-0.0191,-0.0189,0.0,0.0,0.0092,0.0273,0.0542,0.0718,0.0987,0.1256,0.1436,0.1436,0.1436,0.1436,0.1436,0.1794,0.2154,0.1794,0.2154,0.2334,0.2064,0.2064,0.1885,0.1436,0.1345,0.1076,0.0,0.0,0.0,0.0,0.0,0.0,-0.1099,0.0,-0.1098,0.0,0.0,0.0,0.0,0.0,0.0,0.0,0.0,0.0,-0.5559,0.0,-0.4224,-0.5012,-0.4683,-0.4604,-0.4701,-0.4925,-0.4841,-0.454,-0.4462,-0.4538,-0.4771,-0.5087,-0.5479,-0.5867,-0.6714,-0.733,-0.7859,-0.8694,-0.9231,-0.9685,-1.087,-1.1687,-1.2492,-0.1127,0.0,-0.0417,0.0,0.0528,0.0852,0.1598,0.168,0.1662,0.1662,0.1636,0.1617,0.1617,0.1617,0.1617,0.1617,0.1617,0.1617,0.1617,0.1617,0.1617,0.1617,0.1617,0.0,0.1314,0.1314,0.1111,0.0606,0.0606,0.0,0.0,0.0,0.0,0.0,-0.0377,-0.0465,-0.0458,-0.0642,-0.0745,-0.0763,-0.0758,-0.0678,-0.07,-0.0392,-0.0292,-0.0291,-0.0095,0.0,0.0,0.0092,0.0092,0.0183,0.045,0.0628,0.0897,0.1076,0.1256,0.1436,0.1436,0.1436,0.1436,0.1436,0.1794,0.2243,0.2243,0.2603,0.2875,0.2875,0.2875,0.2784,0.2243,0.2154,0.188,0.1156,0.0,0.0,0.0,0.0,0.0,0.0,-0.0079,-0.0157,-0.0786,-0.1411,0.0,0.0,0.0,0.0,0.0,0.0,0.0,0.0,0.0,0.0,-0.4701,-0.4617,-0.4713,-0.4828,-0.5148,-0.5082,-0.4716,-0.4683,-0.4883,-0.5082,-0.5476,-0.5712,-0.5864,-0.7022,-0.771,-0.8161,-0.9291,-1.0051,-1.0582,-1.1607,-1.2485,-1.3281,0.0106,0.0958,0.1703,0.1703,0.1704,0.1704,0.1704,0.168,0.1662,0.1662,0.1636,0.1617,0.1617,0.1617,0.1617,0.1617,0.1617,0.1617,0.1617,0.1617,0.1617,0.0,0.0,0.1617,0.1617,0.1617,0.1415,0.1212,0.0,0.0,0.0393,0.0,-0.0281,0.0,-0.0457,-0.0628,-0.0448,-0.0628,-0.0735,-0.0761,-0.0466,-0.0379,-0.0392,-0.0096,0.0,0.0,0.0,0.0,0.0,0.0271,0.0359,0.0448,0.0628,0.0897,0.1166,0.1345,0.1436,0.1436,0.1436,0.1436,0.1436,0.1436,0.1794,0.2243,0.2243,0.2603,0.2875,0.2875,0.2875,0.2875,0.2875,0.2875,0.2586,0.1832,0.0,0.0,0.0,0.0,0.0,-0.0236,-0.0314,-0.0393,-0.055,-0.0786,0.0,0.0,0.0,0.0,0.0,0.0,0.0,-0.3202,-0.3752,0.0,-0.4146,-0.4929,-0.5227,-0.5184,-0.5431,-0.5499,-0.536,-0.5488,-0.5442,-0.5321,-0.5709,-0.5789,-0.5715,-0.7395,-0.8008,-0.8084,-1.0628,-1.1675,-1.1749,-1.2345,-1.3295,-1.4291,0.1171,0.1505,0.1735,0.1735,0.1752,0.1766,0.1766,0.1723,0.1691,0.1691,0.175,0.192,0.192,0.1718,0.1718,0.0,0.192,0.192,0.0,0.192,0.1819,0.1617,0.1617,0.1617,0.1617,0.1617,0.1516,0.1212,0.0,0.0,0.0,0.0,-0.0096,0.0,-0.0188,-0.0187,-0.0094,-0.0187,-0.0188,-0.0286,-0.0189,-0.0095,-0.0096,0.0,0.0,0.0,0.0,0.0,0.0,0.027,0.0448,0.0628,0.0897,0.0987,0.1166,0.1345,0.1436,0.1436,0.1436,0.1436,0.1436,0.1436,0.1794,0.2243,0.2243,0.2603,0.2875,0.2875,0.2875,0.2875,0.2875,0.3105,0.3152,0.2869,0.2776,0.0,0.0,0.0,0.0,0.0628,0.0707,0.0471,-0.0314,-0.0471,0.0,0.0,0.0,0.0,0.0,0.0,0.0,0.0,-0.188,0.0,-0.391,-0.3816,-0.4152,-0.5072,-0.5394,-0.5408,-0.5362,-0.5323,-0.5439,-0.5479,-0.5634,-0.6018,-0.6556,-0.7476,-0.8161,-0.877,-0.9976,-1.0432,-1.0726,-1.2478,-1.375,-1.4923,0.1738,0.1753,0.1767,0.1767,0.1782,0.1795,0.1908,0.1853,0.1917,0.2024,0.2066,0.2121,0.2121,0.202,0.0,0.2121,0.2121,0.2121,0.2121,0.2021,0.1921,0.1718,0.1617,0.1617,0.1617,0.1617,0.0,0.1314,0.101,0.0602,0.0099,0.0,0.0,0.0,0.0,0.0,0.0,0.0,0.0,0.0,0.0,0.0,0.0,0.0,0.0,0.0091,0.0361,0.0628,0.0807,0.1433,0.1701,0.1969,0.2238,0.2327,0.2149,0.1614,0.1436,0.1436,0.1436,0.1436,0.1436,0.1436,0.1794,0.2243,0.2424,0.2694,0.2875,0.2875,0.2875,0.2867,0.2843,0.3157,0.3368,0.3311,0.3392,0.348,0.3449,0.0,0.0,0.0,0.0,0.0,0.0,0.0314,0.0,0.0,0.0,0.0,0.0,0.0,0.0,-0.1723,-0.0941,0.0,-0.2659,-0.278,-0.3192,-0.4049,-0.4629,-0.5111,-0.5393,-0.5469,-0.5523,-0.5637,-0.5712,-0.6096,-0.6865,-0.7553,-0.8241,-0.8998,-1.0126,-1.0582,-1.0726,-1.2251,-1.3871,-1.5661,0.1795,0.1795,0.1907,0.0,0.1907,0.0,0.2241,0.2178,0.2236,0.2553,0.2476,0.2422,0.2422,0.2422,0.2422,0.2422,0.0,0.0,0.0,0.2222,0.2022,0.2022,0.1718,0.1617,0.1617,0.1617,0.1617,0.1718,0.1212,0.0908,0.0605,0.0397,0.0295,0.0295,0.0193,0.0191,0.0191,0.0191,0.0191,0.019,0.0187,0.0185,0.0184,0.0181,0.018,0.0359,0.1166,0.1702,0.2058,0.322,0.3753,0.3929,0.4198,0.4289,0.3933,0.215,0.1614,0.1614,0.1614,0.1524,0.1524,0.1524,0.1885,0.2334,0.2784,0.2875,0.2875,0.2875,0.2875,0.2856,0.2794,0.3125,0.3416,0.327,0.3649,0.3941,0.3853,0.0,0.0,0.0,0.0,0.0,0.0,0.1488,0.1096,0.0,0.0,0.0,0.0,0.0,-0.1255,0.0,-0.0784,-0.1097,-0.094,-0.1879,-0.2452,-0.2426,-0.3471,-0.4458,-0.5339,-0.5574,-0.5592,-0.5479,-0.5786,-0.6173,-0.6714,-0.7476,-0.8165,-0.9003,-1.0858,-1.1729,-1.1924,-1.2071,-1.4103,-1.6807,0.0,0.0,0.2469,0.2469,0.2469,0.2459,0.2536,0.2485,0.2545,0.2509,0.2662,0.2724,0.2724,0.2927,0.3027,0.3027,0.2826,0.2724,0.2724,0.2624,0.2424,0.2022,0.1921,0.1819,0.1617,0.1617,0.1918,0.2519,0.3219,0.3417,0.3115,0.2904,0.2699,0.2699,0.2489,0.2485,0.2485,0.2485,0.2346,0.2282,0.227,0.2226,0.2255,0.2244,0.233,0.2505,0.2684,0.295,0.3215,0.3662,0.384,0.3929,0.4198,0.4289,0.42,0.3755,0.3576,0.3576,0.3576,0.3133,0.2598,0.2778,0.2601,0.2513,0.2784,0.2875,0.2875,0.2875,0.2875,0.2856,0.2794,0.3343,0.3777,0.3753,0.4077,0.4256,0.4231,0.3997,0.0,0.0,0.3054,0.2896,0.2503,0.2268,0.219,0.0,0.0,0.0,0.0,0.0,-0.0471,0.0,-0.0235,-0.0471,-0.0862,-0.1331,-0.1884,-0.2446,-0.2937,-0.3254,-0.3473,-0.4339,-0.4641,-0.446,-0.5162,-0.6167,-0.7314,-0.7468,-0.8385,-0.969,-1.0137,-1.1985,-1.4492,-1.5408,-1.7676,-2.0408,0.2469,0.2581,0.2693,0.2693,0.2693,0.2679,0.2852,0.2803,0.2754,0.2808,0.2961,0.3027,0.3027,0.313,0.323,0.323,0.3029,0.3027,0.3027,0.2826,0.2624,0.2222,0.2523,0.2624,0.2321,0.2822,0.3323,0.3721,0.4221,0.4318,0.4218,0.3919,0.3819,0.3819,0.362,0.3522,0.3422,0.3521,0.3446,0.3232,0.3325,0.3339,0.322,0.322,0.3307,0.3395,0.384,0.4196,0.4463,0.5001,0.5267,0.5354,0.5534,0.5622,0.5622,0.5622,0.5001,0.4289,0.4289,0.3933,0.3578,0.3935,0.3937,0.3851,0.4121,0.421,0.421,0.421,0.421,0.417,0.404,0.4316,0.4568,0.4416,0.458,0.4698,0.4698,0.4467,0.0,0.3995,0.3995,0.3915,0.3679,0.3285,0.3207,0.3365,0.227,0.0,0.2115,0.1176,0.0392,0.0,0.0,-0.0078,-0.0235,-0.0392,-0.094,-0.1957,-0.1957,-0.2192,-0.266,-0.3287,-0.3443,-0.3441,-0.4222,-0.5229,-0.63,-0.7076,-0.8075,-0.9432,-1.1531,-1.35,-1.5455,-1.7801,-2.0226,-2.2458,0.3029,0.2917,0.2806,0.2806,0.28,0.3001,0.3277,0.322,0.3164,0.3522,0.3465,0.343,0.343,0.363,0.3731,0.3731,0.3731,0.3632,0.3432,0.3229,0.3026,0.2923,0.3627,0.3827,0.3524,0.4524,0.5125,0.5125,0.5022,0.492,0.492,0.462,0.4518,0.4518,0.4518,0.432,0.4121,0.4418,0.4228,0.3898,0.4178,0.417,0.4016,0.4016,0.4016,0.4194,0.4999,0.5445,0.5805,0.6612,0.6969,0.7139,0.7139,0.7139,0.7139,0.7139,0.598,0.4823,0.4823,0.4732,0.4732,0.4999,0.5267,0.545,0.563,0.5719,0.5719,0.5719,0.5719,0.5643,0.5482,0.5527,0.5369,0.5042,0.5165,0.5171,0.4937,0.0,0.5093,0.5018,0.5018,0.5018,0.5018,0.4382,0.4144,0.4302,0.3363,0.2893,0.3051,0.227,0.141,0.0471,0.0235,0.0236,0.0628,0.0628,0.0078,-0.1019,-0.0862,-0.1254,-0.2113,-0.227,-0.2348,-0.2426,-0.3363,-0.4139,-0.491,-0.6388,-0.7306,-0.8316,-1.3125,-1.5178,-1.5901,-1.9948,-2.2651,-2.424,0.4587,0.392,0.3477,0.3477,0.3434,0.3707,0.4601,0.3895,0.3519,0.4465,0.4543,0.4533,0.4533,0.5329,0.5924,0.5924,0.5924,0.5527,0.4634,0.4533,0.4732,0.5429,0.5529,0.5527,0.5225,0.6027,0.6528,0.6528,0.7132,0.7434,0.7434,0.7135,0.7039,0.7039,0.6833,0.6634,0.6634,0.6734,0.6494,0.6272,0.6364,0.621,0.5983,0.5983,0.6074,0.6343,0.6435,0.6697,0.6874,0.6962,0.7051,0.7139,0.7139,0.7139,0.7139,0.7139,0.7054,0.6969,0.6969,0.6694,0.6245,0.5534,0.5539,0.563,0.5719,0.5719,0.5719,0.5719,0.5719,0.5731,0.5647,0.5936,0.5855,0.488,0.5777,0.6089,0.4696,0.0,0.5553,0.5096,0.5018,0.5018,0.5018,0.501,0.5165,0.5323,0.4611,0.4217,0.4375,0.3437,0.2812,0.2656,0.1254,0.055,0.0628,0.0628,0.0393,0.0078,-0.0078,-0.0157,-0.0157,-0.1097,-0.1645,-0.2037,-0.3054,-0.4224,-0.5464,-0.5777,-0.5597,-0.5835,-1.1693,-1.5014,-1.7265,-2.2986,-2.6329,-2.8031,0.6031,0.5808,0.5462,0.5414,0.537,0.5401,0.5777,0.5404,0.5137,0.5644,0.5629,0.5629,0.5629,0.6126,0.6423,0.6423,0.6423,0.6423,0.6528,0.6029,0.5729,0.6029,0.6528,0.7027,0.7322,0.7723,0.7829,0.763,0.8035,0.8137,0.8038,0.7842,0.7842,0.7842,0.764,0.754,0.7444,0.754,0.7378,0.7026,0.7221,0.7047,0.6786,0.6786,0.6877,0.6969,0.6969,0.7054,0.7139,0.7139,0.7139,0.7139,0.7234,0.7323,0.7323,0.7499,0.7499,0.7507,0.7683,0.7672,0.7489,0.7044,0.7048,0.7231,0.7231,0.7231,0.7231,0.7231,0.7316,0.7418,0.7267,0.7239,0.7108,0.6469,0.668,0.0,0.0,0.6167,0.6325,0.6018,0.5709,0.5556,0.5628,0.5398,0.5398,0.5712,0.5318,0.516,0.5315,0.4453,0.3904,0.3826,0.2271,0.1412,0.1334,0.0942,0.0628,0.0314,0.0393,0.0471,0.0471,0.047,0.0313,0.0078,-0.0861,-0.1248,-0.1319,-0.2556,-0.2704,-0.2674,-0.7971,-1.279,-1.7377,-2.2092,-2.652,-3.0028,0.7473,0.723,0.7073,0.6877,0.6813,0.682,0.6838,0.6683,0.6529,0.6736,0.6822,0.6822,0.6822,0.7024,0.7123,0.7123,0.7123,0.7521,0.8322,0.7621,0.7024,0.6828,0.763,0.8329,0.8924,0.8924,0.8829,0.8634,0.8531,0.8333,0.8137,0.8137,0.8038,0.8038,0.8038,0.7842,0.7743,0.7942,0.7768,0.7308,0.7503,0.7417,0.7139,0.7139,0.7139,0.7139,0.7139,0.7139,0.7139,0.7139,0.7143,0.7231,0.7415,0.7507,0.7595,0.7856,0.7768,0.768,0.794,0.8116,0.8292,0.8292,0.8472,0.8568,0.8568,0.8568,0.8568,0.8568,0.874,0.8852,0.8658,0.8505,0.8267,0.7833,0.0,0.0,0.0,0.7133,0.7211,0.7055,0.6631,0.6373,0.6525,0.6261,0.6089,0.617,0.6096,0.6022,0.6018,0.5392,0.4999,0.4916,0.3363,0.2429,0.2429,0.1569,0.1177,0.1019,0.1099,0.1099,0.1099,0.1803,0.2037,0.1881,0.1175,0.1406,0.2098,0.0386,0.0231,0.0611,-0.406,-0.8843,-1.3534,-1.7611,-2.3091,-2.8378,0.8809,0.7713,0.6872,0.6861,0.6677,0.683,0.784,0.7116,0.6734,0.7723,0.7922,0.7922,0.7922,0.8722,0.9327,0.9327,0.9327,0.9426,0.943,0.9426,0.9327,0.9327,0.9426,0.9529,0.9529,0.9331,0.9133,0.9137,0.8928,0.8627,0.8333,0.8333,0.8233,0.8038,0.8038,0.7939,0.7942,0.8038,0.7868,0.76,0.76,0.7417,0.7139,0.7139,0.7139,0.7139,0.7139,0.7139,0.7139,0.7139,0.7234,0.7507,0.7507,0.768,0.7856,0.7856,0.8028,0.8113,0.8201,0.838,0.8568,0.8568,0.8568,0.8568,0.8568,0.8568,0.8568,0.8568,0.874,0.8939,0.8909,0.9039,0.8884,0.7934,0.0,0.0,0.7148,0.7726,0.8053,0.7562,0.7584,0.764,0.772,0.7949,0.7846,0.7165,0.7249,0.7022,0.6338,0.618,0.6257,0.6405,0.4373,0.3517,0.391,0.2741,0.2429,0.3125,0.2271,0.2116,0.266,0.274,0.2426,0.1877,0.1641,0.156,0.1554,0.1398,0.2558,0.3832,-0.1245,-0.265,-0.2538,-0.8032,-1.4511,-2.063,0.972,0.9345,0.8952,0.8748,0.8632,0.8722,0.9033,0.8663,0.8524,0.8924,0.9027,0.9023,0.9221,0.9426,0.9628,0.9821,0.9727,0.9628,0.9821,0.9826,0.9727,0.9628,0.9628,0.9628,0.9628,0.9529,0.9331,0.9236,0.9133,0.8928,0.8627,0.8627,0.8627,0.8531,0.8531,0.8432,0.823,0.8332,0.8169,0.7775,0.7677,0.7601,0.7588,0.7411,0.7411,0.7588,0.7588,0.7588,0.7588,0.7588,0.7676,0.7768,0.7852,0.8372,0.9065,0.9763,1.0024,1.0111,1.0111,0.934,0.8568,0.8568,0.8568,0.8568,0.8568,0.8568,0.8656,0.874,0.8999,0.9148,0.9329,0.9388,0.9367,0.895,0.0,0.9078,0.85,0.8746,0.8914,0.8669,0.8598,0.8635,0.8801,0.869,0.8567,0.8416,0.8313,0.8093,0.7787,0.7403,0.7022,0.6641,0.5928,0.5384,0.5002,0.391,0.3597,0.4053,0.3744,0.3515,0.3363,0.4062,0.3984,0.3441,0.3515,0.4133,0.4977,0.4583,0.5579,0.7159,0.524,0.2648,-0.0196,-0.2334,-0.6957,-1.2191,1.0369,1.0427,1.0347,1.0217,1.0142,0.9962,0.9842,0.9826,0.9826,0.9826,0.9826,0.992,1.0117,0.992,0.992,1.0117,0.992,0.992,1.0117,1.0117,1.0019,0.9727,0.9727,0.9727,0.9628,0.9628,0.9723,0.9817,0.9817,0.9813,0.9899,0.9899,0.9768,0.9612,0.9612,0.9486,0.9235,0.9311,0.9157,0.8798,0.8675,0.8698,0.8719,0.8544,0.8544,0.8719,0.8719,0.8719,0.8719,0.8719,0.8807,0.8894,0.9065,0.9584,1.0279,1.1063,1.1322,1.1402,1.1402,1.0544,0.9598,0.9515,0.9257,0.9174,0.9174,0.8999,0.8828,0.8999,0.9262,0.9432,0.9602,0.9665,0.9743,0.9743,0.962,0.9521,0.9521,0.9521,0.9604,0.9683,0.9703,0.9746,1.008,0.9802,0.963,0.9478,0.9202,0.9003,0.8775,0.8394,0.8012,0.7553,0.7399,0.7088,0.6696,0.5309,0.4841,0.5297,0.5065,0.4988,0.491,0.5687,0.5844,0.5541,0.5464,0.6237,0.7557,0.6777,0.746,0.8983,0.9502,0.7351,0.3973,0.4376,0.095,-0.4044,1.0876,1.0835,1.0712,1.0712,1.0545,1.0413,1.0413,1.0413,1.0413,1.0413,1.0413,1.0413,1.0413,1.0413,1.0413,1.0413,1.0413,1.0408,1.0413,1.0413,1.0314,1.0019,1.0019,0.9924,0.9628,0.9628,1.0109,1.117,1.117,1.156,1.2339,1.2334,1.2011,1.1502,1.1497,1.1381,1.1084,1.1084,1.096,1.0771,1.0766,1.0725,1.0611,1.0611,1.0611,1.0611,1.0611,1.0611,1.0611,1.0611,1.0783,1.1042,1.1047,1.1139,1.1322,1.1322,1.1488,1.1729,1.1729,1.1901,1.1906,1.1408,1.0809,1.0294,1.0294,0.9777,0.9345,0.9349,0.9432,0.9602,0.9602,0.9864,1.0038,1.0038,1.0038,1.0038,1.0038,1.0038,1.012,1.0549,1.0783,1.1066,1.1566,1.1523,1.114,1.035,1.0051,0.9614,0.9074,0.9003,0.9226,0.9593,0.8613,0.8385,0.8998,0.6773,0.6167,0.7184,0.6167,0.6314,0.754,0.754,0.7693,0.808,0.7246,0.7472,0.838,0.7561,0.7791,0.8927,1.0714,1.1378,1.1533,1.2739,0.9198,0.3685,1.0584,1.054,1.0501,1.0501,1.0452,1.0413,1.0413,1.0413,1.0413,1.0413,1.0413,1.0511,1.0703,1.0507,1.0511,1.0703,1.1184,1.1853,1.2818,1.3011,1.3017,1.2721,1.1853,1.1565,1.2052,1.2058,1.215,1.2242,1.2242,1.2339,1.2533,1.2369,1.2252,1.2083,1.1827,1.1626,1.137,1.1387,1.1279,1.1023,1.0953,1.1024,1.1058,1.0961,1.0961,1.1058,1.1058,1.1058,1.1058,1.1058,1.1311,1.1643,1.2419,1.2766,1.2857,1.3542,1.3711,1.3789,1.3789,1.3873,1.3529,1.2163,1.1649,1.1477,1.1477,1.1311,1.1052,1.0549,1.0554,1.0467,0.9951,0.9951,1.0038,1.0038,1.0038,1.0125,1.0376,1.0376,1.0549,1.1068,1.1434,1.1736,1.1906,1.2029,1.1918,1.1414,1.1142,1.0663,0.9911,1.0212,1.0207,0.9599,0.9593,0.9664,0.982,0.7778,0.7176,0.8021,0.7557,0.7476,0.7702,0.8309,0.8385,0.808,0.8313,0.8841,0.9588,0.8618,0.9079,1.0432,1.0956,1.1626,1.2365,1.3273,1.2828,1.1641,1.1863,1.1282,1.0801,1.1282,1.0993,1.0703,1.0703,1.0703,1.09,1.1282,1.1282,1.1575,1.215,1.2052,1.2052,1.2155,1.263,1.3204,1.3974,1.4166,1.4459,1.4644,1.3872,1.3392,1.3307,1.3307,1.3307,1.3499,1.3596,1.3788,1.4082,1.382,1.3641,1.343,1.3182,1.2921,1.2543,1.2726,1.2655,1.2464,1.2478,1.2504,1.2601,1.2504,1.251,1.2516,1.2601,1.2601,1.2516,1.2601,1.2766,1.3021,1.3704,1.388,1.4048,1.4566,1.4741,1.4824,1.4824,1.4908,1.4734,1.362,1.3014,1.2674,1.2674,1.2498,1.2163,1.1746,1.166,1.1574,1.1144,1.1144,1.1063,1.0554,1.0977,1.123,1.1058,1.1397,1.1826,1.2345,1.2351,1.2443,1.2619,1.2463,1.2161,1.1793,1.1698,1.1458,1.0818,1.1186,1.1254,1.0795,1.072,1.072,1.0944,0.9291,0.8694,0.9084,0.8479,0.8399,0.8623,0.9231,0.9377,0.9221,0.9448,0.997,1.0571,0.9674,0.9976,1.1111,1.1335,1.1855,1.2599,1.3273,1.4209,1.5054,1.4076,1.2732,1.177,1.2635,1.2058,1.1482,1.1482,1.1482,1.177,1.2732,1.2823,1.321,1.4172,1.4268,1.4268,1.4268,1.4364,1.4459,1.4555,1.4555,1.4937,1.5893,1.5893,1.5317,1.3866,1.3771,1.4166,1.4854,1.5045,1.5514,1.6177,1.5876,1.5652,1.5239,1.4966,1.46,1.4166,1.4573,1.4566,1.4482,1.465,1.4734,1.4734,1.4734,1.4566,1.4482,1.465,1.4566,1.4482,1.465,1.4734,1.4734,1.4734,1.4734,1.4734,1.4734,1.4915,1.509,1.509,1.5264,1.5431,1.5431,1.465,1.3873,1.3873,1.3444,1.293,1.293,1.2845,1.2845,1.276,1.293,1.2674,1.1666,1.251,1.3008,1.2077,1.2753,1.3529,1.4041,1.3548,1.33,1.3737,1.2971,1.2195,1.1714,1.2029,1.2113,1.1764,1.1948,1.2224,1.2599,1.1929,1.1706,1.2077,1.1093,1.0496,1.0288,0.9155,0.9084,0.9992,1.0218,1.0513,1.0812,1.072,1.1019,1.1484,1.0645,1.072,1.1329,1.1855,1.2224,1.2519,1.3046,1.3977,1.4903,1.4268,1.398,1.3692,1.3884,1.3788,1.3596,1.3596,1.3596,1.3692,1.3884,1.398,1.4076,1.4268,1.4268,1.4268,1.4268,1.5032,1.5798,1.656,1.6662,1.6756,1.6943,1.6943,1.685,1.6459,1.6285,1.6197,1.6197,1.6204,1.6175,1.6125,1.5826,1.5513,1.52,1.4893,1.4719,1.4573,1.465,1.465,1.465,1.465,1.4734,1.4734,1.4734,1.465,1.465,1.465,1.465,1.465,1.4915,1.4999,1.4999,1.5173,1.5257,1.5257,1.5257,1.5257,1.534,1.534,1.5347,1.5431,1.5431,1.5333,1.5311,1.5311,1.5144,1.488,1.4364,1.428,1.4028,1.3353,1.3184,1.3184,1.293,1.3099,1.3353,1.3444,1.3698,1.4041,1.4475,1.4391,1.4398,1.4482,1.3794,1.3323,1.3198,1.2713,1.2363,1.2298,1.2587,1.2673,1.2599,1.2746,1.2826,1.2973,1.2077,1.1471,1.1162,1.0714,1.0571,1.0663,1.1335,1.1409,1.1037,1.1626,1.215,1.2526,1.17,1.1909,1.2712,1.2792,1.315,1.365,1.3833,1.4338,1.4832,1.5602,1.4937,1.4459,1.4937,1.4651,1.4268,1.4268,1.4268,1.4459,1.4937,1.5032,1.5222,1.5704,1.5697,1.5697,1.5697,1.6177,1.6756,1.7232,1.7326,1.7326,1.7326,1.7326,1.7326,1.7326,1.7347,1.716,1.6784,1.6871,1.6707,1.6303,1.5991,1.568,1.5368,1.505,1.4824,1.4734,1.4908,1.4999,1.4915,1.4999,1.4999,1.4999,1.4999,1.4992,1.4915,1.4999,1.4999,1.5082,1.5173,1.5257,1.5264,1.5347,1.5431,1.5431,1.5431,1.5431,1.5431,1.5431,1.5431,1.5423,1.5499,1.5658,1.5733,1.5733,1.5824,1.5824,1.5477,1.5394,1.522,1.472,1.4713,1.4622,1.4028,1.4531,1.4789,1.4538,1.4963,1.5394,1.565,1.5567,1.5401,1.5061,1.4821,1.4575,1.4346,1.4288,1.4193,1.3957,1.4171,1.4065,1.3623,1.3842,1.3768,1.3346,1.3046,1.2813,1.2712,1.1675,1.131,1.1545,1.1848,1.1855,1.1558,1.2077,1.2526,1.29,1.2452,1.2739,1.3397,1.3324,1.368,1.4322,1.433,1.4832,1.5401,1.7232,1.5988,1.5127,1.5893,1.5412,1.4841,1.4841,1.4841,1.5127,1.5988,1.6082,1.6372,1.7232,1.7326,1.7326,1.7326,1.7333,1.7333,1.7333,1.7426,1.7426,1.7426,1.7426,1.7426,1.7426,1.7628,1.7448,1.7073,1.7188,1.6999,1.6505,1.6099,1.5871,1.5562,1.5295,1.4999,1.4824,1.5257,1.5257,1.5173,1.534,1.5431,1.5431,1.5431,1.5257,1.5173,1.5347,1.5506,1.5665,1.5831,1.5748,1.5582,1.5582,1.5506,1.5423,1.5423,1.5506,1.5506,1.5665,1.5748,1.5824,1.6139,1.6139,1.6064,1.6064,1.6072,1.617,1.617,1.617,1.617,1.617,1.6327,1.6139,1.5213,1.5966,1.6394,1.5379,1.6139,1.6738,1.6812,1.673,1.6476,1.5891,1.5959,1.583,1.5468,1.5975,1.6134,1.5676,1.5788,1.5601,1.4997,1.5106,1.4784,1.3865,1.3958,1.4072,1.4129,1.2565,1.2117,1.2565,1.2505,1.2372,1.2298,1.2445,1.2746,1.3119,1.2966,1.3339,1.3863,1.371,1.4137,1.4776,1.4832,1.5251,1.5833,1.7628,1.7434,1.7239,1.7138,1.7145,1.7145,1.6951,1.7052,1.7239,1.7138,1.7138,1.7138,1.7326,1.7326,1.7326,1.7326,1.7527,1.7628,1.7628,1.79,1.7994,1.7994,1.7807,1.7714,1.7994,1.7815,1.7535,1.7239,1.7239,1.6936,1.6426,1.6038,1.5718,1.5405,1.5362,1.5347,1.5347,1.5347,1.5347,1.5347,1.5431,1.5431,1.5431,1.5431,1.5347,1.5347,1.5431,1.5906,1.6617,1.735,1.7107,1.6535,1.6535,1.6139,1.5658,1.5658,1.5831,1.6162,1.687,1.7017,1.7253,1.8043,1.7827,1.7448,1.7448,1.6878,1.6402,1.6566,1.6656,1.6656,1.6656,1.6656,1.6648,1.6484,1.6566,1.6648,1.6476,1.6566,1.682,1.7229,1.7554,1.7708,1.7627,1.7367,1.7163,1.7114,1.6589,1.6245,1.6197,1.6231,1.6262,1.6187,1.6348,1.608,1.5291,1.4913,1.4625,1.4353,1.3912,1.3688,1.3608,1.4057,1.3977,1.3455,1.3535,1.376,1.3912,1.3339,1.3557,1.4274,1.4425,1.4856,1.5426,1.578,1.5551,1.5188,1.7908,1.79,1.79,1.78,1.7807,1.79,1.78,1.7807,1.79,1.78,1.7707,1.7707,1.7707,1.7707,1.7707,1.7707,1.79,1.79,1.79,1.7994,1.8087,1.8087,1.7819,1.7713,1.7804,1.7621,1.7432,1.7161,1.7289,1.7138,1.6545,1.6316,1.6077,1.5756,1.5756,1.5756,1.5756,1.5756,1.5665,1.5582,1.5582,1.5499,1.5431,1.5431,1.5431,1.5431,1.5982,1.6706,1.7513,1.7836,1.7827,1.7577,1.7577,1.7496,1.7326,1.7326,1.7415,1.7577,1.7891,1.8052,1.8132,1.8612,1.8541,1.8399,1.8559,1.831,1.7755,1.6894,1.673,1.673,1.673,1.673,1.6894,1.7367,1.7212,1.7139,1.7367,1.7221,1.7229,1.7716,1.7878,1.8121,1.8371,1.8201,1.8184,1.8264,1.8179,1.8162,1.8311,1.8249,1.8033,1.7585,1.7805,1.7333,1.6229,1.6203,1.5808,1.5054,1.5321,1.5037,1.4274,1.4489,1.4418,1.4194,1.4258,1.4402,1.4697,1.4418,1.441,1.4697,1.4848,1.5141,1.5576,1.6272,1.6403,1.6315]}]]